[[{"header":{"parameterUnit":"m.s-1","parameterCategory":1,"la1":30.6,"la2":28.766,"lo1":-90.7593,"lo2":-88.6598,"dx":0.0162,"dy":0.0183,"nx":116,"ny":114,"refTime":"2022-12-30T06:00:00:Z","depth":0,"parameterNumber":2,"parameterNumberName":"U-component_of_WINDS"},"data":[0.0,0.0,0.0,0.0,0.0,0.0,0.0,0.0,0.0,0.0,0.0,0.0,0.0,0.0,0.0,0.0,0.0,0.0,0.0,0.0,0.0,0.0,0.0,0.0,0.0,0.0,0.0,0.0,0.0,0.0,0.0,0.0,0.0,0.0,0.0,0.0,0.0,0.0,0.0,0.0,0.0,0.0,0.0,0.0,0.0,0.0,0.0,0.0,0.0,0.0,0.0,0.0,0.0,0.0,0.0,0.0,0.0,0.0,0.0,0.0,0.0,0.0,0.0,0.0,0.0,0.0,0.0,0.0,0.0,0.0,0.0,0.0,0.0,0.0,0.0,0.0,0.0,0.0,0.0,0.0,0.0,0.0,0.0,0.0,0.0,0.0,0.0,0.0,0.0,0.0,0.0,0.0,0.0,0.0,0.0,0.0,0.0,0.0,0.0,0.0,0.0,0.0,0.0,0.0,0.0,0.0,0.0,0.0,0.0,0.0,0.0,0.0,0.0,0.0,0.0,0.0,0.0,0.0,0.0,0.0,0.0,0.0,0.0,0.0,0.0,0.0,0.0,0.0,0.0,0.0,0.0,0.0,0.0,0.0,0.0,0.0,0.0,0.0,0.0,0.0,0.0,0.0,0.0,0.0,0.0,0.0,0.0,0.0,0.0,0.0,0.0,0.0,0.0,0.0,0.0,0.0,0.0,0.0,0.0,0.0,0.0,0.0,0.0,0.0,0.0,0.0,0.0,0.0,0.0,0.0,0.0,0.0,0.0,0.0,0.0,0.0,0.0,0.0,0.0,0.0,0.0,0.0,0.0,0.0,0.0,0.0,0.0,0.0,0.0,0.0,0.0,0.0,0.0,0.0,0.0,0.0,0.0,0.0,0.0,0.0,0.0,0.0,0.0,0.0,0.0,0.0,0.0,0.0,0.0,0.0,0.0,0.0,0.0,0.0,0.0,0.0,0.0,0.0,0.0,0.0,0.0,0.0,0.0,0.0,0.0,0.0,0.0,0.0,0.0,0.0,0.0,0.0,0.0,0.0,0.0,0.0,0.0,0.0,0.0,0.0,0.0,0.0,0.0,0.0,0.0,0.0,0.0,0.0,0.0,0.0,0.0,0.0,0.0,0.0,0.0,0.0,0.0,0.0,0.0,0.0,0.0,0.0,0.0,0.0,0.0,0.0,0.0,0.0,0.0,0.0,0.0,0.0,0.0,0.0,0.0,0.0,0.0,0.0,0.0,0.0,0.0,0.0,0.0,0.0,0.0,0.0,0.0,0.0,0.0,0.0,0.0,0.0,0.0,0.0,0.0,0.0,0.0,0.0,0.0,0.0,0.0,0.0,0.0,0.0,0.0,0.0,0.0,0.0,0.0,0.0,0.0,0.0,0.0,0.0,0.0,0.0,0.0,0.0,0.0,0.0,0.0,0.0,0.0,0.0,0.0,0.0,0.0,0.0,0.0,0.0,0.0,0.0,0.0,0.0,0.0,0.0,0.0,0.0,0.0,0.0,0.0,0.0,0.0,0.0,0.0,0.0,0.0,0.0,0.0,0.0,0.0,0.0,0.0,0.0,0.0,0.0,0.0,0.0,0.0,0.0,0.0,0.0,0.0,0.0,0.0,0.0,0.0,0.0,0.0,0.0,0.0,0.0,0.0,0.0,0.0,0.0,0.0,0.0,0.0,0.0,0.0,0.0,0.0,0.0,0.0,0.0,0.0,0.0,0.0,0.0,0.0,0.0,0.0,0.0,0.0,0.0,0.0,0.0,0.0,0.0,0.0,0.0,0.0,0.0,0.0,0.0,0.0,0.0,0.0,0.0,0.0,0.0,0.0,0.0,0.0,0.0,0.0,0.0,0.0,0.0,0.0,0.0,0.0,0.0,0.0,0.0,0.0,0.0,0.0,0.0,0.0,0.0,0.0,0.0,0.0,0.0,0.0,0.0,0.0,0.0,0.0,0.0,0.0,0.0,0.0,0.0,0.0,0.0,0.0,0.0,0.0,0.0,0.0,0.0,0.0,0.0,0.0,0.0,0.0,0.0,0.0,0.0,0.0,0.0,0.0,0.0,0.0,0.0,0.0,0.0,0.0,0.0,0.0,0.0,0.0,0.0,0.0,0.0,0.0,0.0,0.0,0.0,0.0,0.0,0.0,0.0,0.0,0.0,0.0,0.0,0.0,0.0,0.0,0.0,0.0,0.0,0.0,0.0,0.0,0.0,0.0,0.0,0.0,0.0,0.0,0.0,0.0,0.0,0.0,0.0,0.0,0.0,0.0,0.0,0.0,0.0,0.0,0.0,0.0,0.0,0.0,0.0,0.0,0.0,0.0,0.0,0.0,0.0,0.0,0.0,0.0,0.0,0.0,0.0,0.0,0.0,0.0,0.0,0.0,0.0,0.0,0.0,0.0,0.0,0.0,0.0,0.0,0.0,0.0,0.0,0.0,0.0,0.0,0.0,0.0,0.0,0.0,0.0,0.0,0.0,0.0,0.0,0.0,0.0,0.0,0.0,0.0,0.0,0.0,0.0,0.0,0.0,0.0,0.0,0.0,0.0,0.0,0.0,0.0,0.0,0.0,0.0,0.0,0.0,0.0,0.0,0.0,0.0,0.0,0.0,0.0,0.0,0.0,0.0,0.0,0.0,0.0,0.0,0.0,0.0,0.0,0.0,0.0,0.0,0.0,0.0,0.0,0.0,0.0,0.0,0.0,0.0,0.0,0.0,0.0,0.0,0.0,0.0,0.0,0.0,0.0,0.0,0.0,0.0,0.0,0.0,0.0,0.0,0.0,0.0,0.0,0.0,0.0,0.0,0.0,0.0,0.0,0.0,0.0,0.0,0.0,0.0,0.0,0.0,0.0,0.0,0.0,0.0,0.0,0.0,0.0,0.0,0.0,0.0,0.0,0.0,0.0,0.0,0.0,0.0,0.0,0.0,0.0,0.0,0.0,0.0,0.0,0.0,0.0,0.0,0.0,0.0,0.0,0.0,0.0,0.0,0.0,0.0,0.0,0.0,0.0,0.0,0.0,0.0,0.0,0.0,0.0,0.0,0.0,0.0,0.0,0.0,0.0,0.0,0.0,0.0,0.0,0.0,0.0,0.0,0.0,0.0,0.0,0.0,0.0,0.0,0.0,0.0,0.0,0.0,0.0,0.0,0.0,0.0,0.0,0.0,0.0,0.0,0.0,0.0,0.0,0.0,0.0,0.0,0.0,0.0,0.0,0.0,0.0,0.0,0.0,0.0,0.0,0.0,0.0,0.0,0.0,0.0,0.0,0.0,0.0,0.0,0.0,0.0,0.0,0.0,0.0,0.0,0.0,0.0,0.0,0.0,0.0,0.0,0.0,0.0,0.0,0.0,0.0,0.0,0.0,0.0,0.0,0.0,0.0,0.0,0.0,0.0,0.0,0.0,0.0,0.0,0.0,0.0,0.0,0.0,0.0,0.0,0.0,0.0,0.0,0.0,0.0,0.0,0.0,0.0,0.0,0.0,0.0,0.0,0.0,0.0,0.0,0.0,0.0,0.0,0.0,0.0,0.0,0.0,0.0,0.0,0.0,0.0,0.0,0.0,0.0,0.0,0.0,0.0,0.0,0.0,0.0,0.0,0.0,0.0,0.0,0.0,0.0,0.0,0.0,0.0,0.0,0.0,0.0,0.0,0.0,0.0,0.0,0.0,0.0,0.0,0.0,0.0,0.0,0.0,0.0,0.0,0.0,0.0,0.0,0.0,0.0,0.0,0.0,0.0,0.0,0.0,0.0,0.0,0.0,0.0,0.0,0.0,0.0,0.0,0.0,0.0,0.0,0.0,0.0,0.0,0.0,0.0,0.0,0.0,0.0,0.0,0.0,0.0,0.0,0.0,0.0,0.0,0.0,0.0,0.0,0.0,0.0,0.0,0.0,0.0,0.0,0.0,0.0,0.0,0.0,0.0,0.0,0.0,0.0,0.0,0.0,0.0,0.0,0.0,0.0,0.0,0.0,0.0,0.0,0.0,0.0,0.0,0.0,0.0,0.0,0.0,0.0,0.0,0.0,0.0,0.0,0.0,0.0,0.0,0.0,0.0,0.0,0.0,0.0,0.0,0.0,0.0,0.0,0.0,0.0,0.0,0.0,0.0,0.0,0.0,0.0,0.0,0.0,0.0,0.0,0.0,0.0,0.0,0.0,0.0,0.0,0.0,0.0,0.0,0.0,0.0,0.0,0.0,0.0,0.0,0.0,0.0,0.0,0.0,0.0,0.0,0.0,0.0,0.0,0.0,0.0,0.0,0.0,0.0,0.0,0.0,0.0,0.0,0.0,0.0,0.0,0.0,0.0,0.0,0.0,0.0,0.0,0.0,0.0,0.0,0.0,0.0,0.0,0.0,0.0,0.0,0.0,0.0,0.0,0.0,0.0,0.0,0.0,0.0,0.0,0.0,0.0,0.0,0.0,0.0,0.0,0.0,0.0,0.0,0.0,0.0,0.0,0.0,0.0,0.0,0.0,0.0,0.0,0.0,0.0,0.0,0.0,0.0,0.0,0.0,0.0,0.0,0.0,0.0,0.0,0.0,0.0,0.0,0.0,0.0,0.0,0.0,0.0,0.0,0.0,0.0,0.0,0.0,0.0,0.0,0.0,0.0,0.0,0.0,0.0,0.0,0.0,0.0,0.0,0.0,0.0,0.0,0.0,0.0,0.0,0.0,0.0,0.0,0.0,0.0,0.0,0.0,0.0,0.0,0.0,0.0,0.0,0.0,0.0,0.0,0.0,0.0,0.0,0.0,0.0,0.0,0.0,0.0,0.0,0.0,0.0,0.0,0.0,0.0,0.0,0.0,0.0,0.0,0.0,0.0,0.0,0.0,0.0,0.0,0.0,0.0,0.0,0.0,0.0,0.0,0.0,0.0,0.0,0.0,0.0,0.0,0.0,0.0,0.0,0.0,0.0,0.0,0.0,0.0,0.0,0.0,0.0,0.0,0.0,0.0,0.0,0.0,0.0,0.0,0.0,0.0,0.0,0.0,0.0,0.0,0.0,0.0,0.0,0.0,0.0,0.0,0.0,0.0,0.0,0.0,0.0,0.0,0.0,0.0,0.0,0.0,0.0,0.0,0.0,0.0,0.0,0.0,0.0,0.0,0.0,0.0,0.0,0.0,0.0,0.0,0.0,0.0,0.0,0.0,0.0,0.0,0.0,0.0,0.0,0.0,0.0,0.0,0.0,0.0,0.0,0.0,0.0,0.0,0.0,0.0,0.0,0.0,0.0,0.0,0.0,0.0,0.0,0.0,0.0,0.0,0.0,0.0,0.0,0.0,0.0,0.0,0.0,0.0,0.0,0.0,0.0,0.0,0.0,0.0,0.0,0.0,0.0,0.0,0.0,0.0,0.0,0.0,0.0,0.0,0.0,0.0,0.0,0.0,0.0,0.0,0.0,0.0,0.0,0.0,0.0,0.0,0.0,0.0,0.0,0.0,0.0,0.0,0.0,0.0,0.0,0.0,0.0,0.0,0.0,0.0,0.0,0.0,0.0,0.0,0.0,0.0,0.0,0.0,0.0,0.0,0.0,0.0,0.0,0.0,0.0,0.0,0.0,0.0,0.0,0.0,0.0,0.0,0.0,0.0,0.0,0.0,0.0,0.0,0.0,0.0,0.0,0.0,0.0,0.0,0.0,0.0,0.0,0.0,0.0,0.0,0.0,0.0,0.0,0.0,0.0,0.0,0.0,0.0,0.0,0.0,0.0,0.0,0.0,0.0,0.0,0.0,0.0,0.0,0.0,0.0,0.0,0.0,0.0,0.0,0.0,0.0,0.0,0.0,0.0,0.0,0.0,0.0,0.0,0.0,0.0,0.0,0.0,0.0,0.0,0.0,0.0,0.0,0.0,0.0,0.0,0.0,0.0,0.0,0.0,0.0,0.0,0.0,0.0,0.0,0.0,0.0,0.0,0.0,0.0,0.0,0.0,0.0,0.0,0.0,0.0,0.0,0.0,0.0,0.0,0.0,0.0,0.0,0.0,0.0,0.0,0.0,0.0,0.0,0.0,0.0,0.0,0.0,0.0,0.0,0.0,0.0,0.0,0.0,0.0,0.0,0.0,0.0,0.0,0.0,0.0,0.0,0.0,0.0,-1.4761,-1.3071,0.0,0.0,0.0,0.0,0.0,0.0,0.0,0.0,0.0,0.0,0.0,0.0,0.0,0.0,0.0,0.0,0.0,0.0,0.0,0.0,0.0,0.0,0.0,-1.1193,-1.0583,-1.0571,-0.9358,0.0,0.0,0.0,0.0,0.0,0.0,0.0,0.0,0.0,-0.8572,-0.9543,-1.0532,-1.2245,-1.459,-1.3536,-1.2305,-1.0879,0.0,0.0,0.0,0.0,0.0,0.0,0.0,0.0,0.0,0.0,0.0,0.0,0.0,0.0,0.0,0.0,0.0,0.0,0.0,0.0,0.0,0.0,0.0,0.0,0.0,0.0,0.0,0.0,0.0,0.0,0.0,0.0,0.0,0.0,0.0,0.0,0.0,0.0,0.0,0.0,0.0,0.0,0.0,0.0,0.0,0.0,0.0,0.0,0.0,0.0,0.0,0.0,0.0,0.0,0.0,0.0,0.0,0.0,0.0,0.0,0.0,0.0,0.0,0.0,0.0,0.0,0.0,0.0,0.0,0.0,-1.5956,-1.4755,0.0,0.0,0.0,0.0,0.0,0.0,0.0,0.0,0.0,0.0,0.0,0.0,0.0,0.0,0.0,0.0,0.0,0.0,0.0,0.0,0.0,-1.2112,-1.2112,-1.1499,-1.1151,-1.1278,-1.0066,-0.9265,-0.9265,-0.8649,0.0,0.0,0.0,0.0,-0.8094,-0.8217,-0.962,-1.238,-1.3444,-1.5489,-1.8439,-1.8918,-1.7844,-1.5438,-1.2776,0.0,0.0,0.0,0.0,0.0,0.0,0.0,0.0,0.0,0.0,0.0,0.0,0.0,0.0,0.0,0.0,0.0,0.0,0.0,0.0,0.0,0.0,0.0,0.0,0.0,0.0,0.0,0.0,0.0,0.0,0.0,0.0,0.0,0.0,0.0,0.0,0.0,0.0,0.0,0.0,0.0,0.0,0.0,0.0,0.0,0.0,0.0,0.0,0.0,0.0,0.0,0.0,0.0,0.0,0.0,0.0,0.0,0.0,0.0,0.0,0.0,0.0,0.0,-1.7063,-1.7299,-1.781,-1.7471,-1.8092,-1.9342,-1.7707,-1.7218,-1.7339,-1.557,0.0,0.0,0.0,0.0,0.0,0.0,0.0,0.0,0.0,0.0,0.0,0.0,0.0,0.0,0.0,0.0,0.0,0.0,0.0,-1.219,-1.219,-1.1543,-1.1354,-1.1989,-1.0774,-0.9973,-0.9973,-0.9342,0.0,0.0,0.0,0.0,-0.8094,-0.868,-1.0312,-1.3067,-1.8361,-2.176,-2.3271,-2.3032,-2.2776,-2.2397,-1.8189,-1.6299,-1.6102,0.0,0.0,0.0,0.0,0.0,0.0,0.0,0.0,0.0,0.0,0.0,0.0,0.0,0.0,0.0,0.0,0.0,0.0,0.0,0.0,0.0,0.0,0.0,0.0,0.0,0.0,0.0,0.0,0.0,0.0,0.0,0.0,0.0,0.0,0.0,0.0,0.0,0.0,0.0,0.0,0.0,-1.5752,-1.5752,0.0,0.0,0.0,0.0,0.0,0.0,0.0,0.0,0.0,0.0,0.0,0.0,0.0,-1.7854,-1.8453,-1.9442,-2.0473,-2.1505,-2.2034,-2.26,-2.3152,-2.2647,-2.2342,-2.2253,-2.1998,0.0,-1.8202,-1.7517,0.0,0.0,0.0,0.0,0.0,0.0,0.0,0.0,0.0,0.0,0.0,0.0,0.0,0.0,0.0,0.0,0.0,0.0,0.0,0.0,0.0,-1.392,-1.4397,-1.5499,-1.4658,-1.3598,-1.2482,-1.142,0.0,0.0,0.0,-0.8279,-0.8664,-1.045,-1.3667,-1.83,-2.3179,-2.5696,-2.6009,-2.6471,-2.6616,-2.6321,-2.3983,-2.1455,-1.8838,-1.7298,0.0,0.0,0.0,0.0,0.0,0.0,0.0,0.0,0.0,0.0,0.0,0.0,0.0,0.0,0.0,0.0,0.0,0.0,0.0,0.0,0.0,0.0,0.0,0.0,0.0,0.0,0.0,0.0,0.0,0.0,0.0,0.0,0.0,0.0,0.0,0.0,0.0,0.0,0.0,-1.5087,-1.5847,-1.6525,-1.5616,-1.4666,0.0,0.0,0.0,0.0,0.0,0.0,0.0,0.0,0.0,-2.0324,-2.103,-2.1667,-2.2264,-2.2793,-2.3309,-2.3838,-2.3897,-2.4053,-2.4318,-2.3834,-2.3517,-2.3372,-2.3372,-2.2481,-2.0955,-2.0207,-1.9089,-1.7763,0.0,0.0,0.0,0.0,-1.7279,-1.7231,0.0,0.0,0.0,0.0,0.0,0.0,0.0,0.0,0.0,0.0,0.0,0.0,-1.5052,-1.6087,-1.7178,-1.8361,-1.7838,-1.6824,-1.5303,-1.3482,-1.1702,-0.9958,-0.8911,-0.8587,-0.9081,-1.2827,-1.7421,-2.2809,-2.6404,-2.7983,-2.7657,-2.8498,-2.8732,-2.8381,-2.7873,-2.5666,-2.2216,-2.0864,-1.912,-1.7033,0.0,0.0,0.0,0.0,0.0,0.0,0.0,0.0,0.0,0.0,0.0,0.0,0.0,0.0,0.0,0.0,0.0,0.0,0.0,0.0,0.0,0.0,0.0,0.0,0.0,0.0,0.0,0.0,0.0,0.0,0.0,0.0,0.0,0.0,0.0,0.0,0.0,-1.5877,-1.6613,-1.784,-1.7419,-1.662,0.0,0.0,0.0,0.0,0.0,0.0,-1.9849,-2.0894,-2.2024,-2.3418,-2.434,-2.5032,-2.5466,-2.5466,-2.5548,-2.5697,-2.5261,-2.5088,-2.5228,-2.4849,-2.4561,-2.4426,-2.4426,-2.4074,-2.3484,-2.2406,-2.1295,-2.0232,-1.9917,-1.9215,-1.8454,-1.9669,-1.9847,-1.9811,0.0,0.0,0.0,0.0,0.0,0.0,0.0,0.0,0.0,0.0,0.0,-1.5098,-1.5206,-1.6932,-1.8391,-1.9179,-1.8577,-1.8115,-1.8007,-1.496,-1.2805,-1.2087,-1.0112,-0.9065,-0.9096,-1.5602,-2.072,-2.421,-2.6995,-2.835,-2.835,-2.8381,-2.8396,-2.8411,-2.8365,-2.8109,-2.751,-2.4399,-2.2967,-2.2351,-1.7174,0.0,0.0,0.0,0.0,0.0,0.0,0.0,0.0,0.0,0.0,0.0,0.0,0.0,0.0,0.0,0.0,0.0,0.0,0.0,0.0,0.0,0.0,0.0,0.0,0.0,0.0,0.0,0.0,0.0,0.0,0.0,0.0,0.0,0.0,0.0,0.0,0.0,0.0,-2.0533,-1.9997,0.0,0.0,0.0,0.0,-1.8629,-1.9239,-2.0609,-2.2837,-2.3607,-2.4761,-2.6538,-2.666,-2.6701,-2.6728,-2.6728,-2.7013,-2.7569,-2.7053,-2.709,-2.7578,-2.7113,-2.6587,-2.6077,-2.6077,-2.5706,-2.5071,-2.3532,-2.2369,-2.1483,-2.1522,-2.1225,-2.0802,-2.0934,-2.0946,-2.1014,0.0,0.0,0.0,-1.0481,-1.0235,-1.0343,-1.0986,-1.0724,-1.0881,-1.2056,-1.3944,-1.5672,-1.6993,-1.9362,-2.1285,-2.2409,-2.2286,-2.1593,-2.0285,-1.7422,-1.5683,-1.5437,-1.3051,-1.3575,-1.7499,-2.0824,-2.3963,-2.6949,-2.8218,-2.87,-2.8411,-2.9152,-2.9073,-2.8427,-2.8858,-2.8933,-2.8647,-2.7102,-2.5453,-2.3694,-2.127,-1.8007,0.0,0.0,0.0,0.0,0.0,0.0,0.0,0.0,0.0,0.0,0.0,0.0,0.0,0.0,0.0,0.0,0.0,0.0,0.0,0.0,0.0,0.0,0.0,0.0,0.0,0.0,0.0,0.0,0.0,0.0,0.0,0.0,0.0,0.0,0.0,0.0,0.0,-2.0579,-2.1077,0.0,-2.1057,-2.1559,-2.2142,-2.2739,-2.3716,-2.4815,-2.605,-2.6307,-2.6904,-2.7936,-2.7963,-2.8139,-2.8519,-2.8532,-2.8635,-2.8892,-2.904,-2.8644,-2.7779,-2.7908,-2.7566,-2.6651,-2.6651,-2.6346,-2.5917,-2.5372,-2.4578,-2.3685,-2.3685,-2.3398,-2.3074,-2.3383,-2.3498,-2.3567,0.0,0.0,0.0,-1.0558,-1.025,-1.025,-1.0678,-1.0389,-1.0851,-1.2928,-1.4975,-1.6978,-1.9006,-2.1486,-2.3332,-2.4225,-2.4302,-2.3825,-2.2717,-1.9669,-1.7915,-1.7915,-1.5545,-1.6961,-2.284,-2.3856,-2.5656,-2.8411,-2.8934,-2.9043,-2.8701,-2.9679,-2.9723,-2.9039,-2.9254,-2.9283,-2.9155,-2.8424,-2.7287,-2.5765,-2.4153,-2.1289,-1.776,0.0,0.0,0.0,0.0,0.0,0.0,0.0,0.0,0.0,0.0,0.0,0.0,0.0,0.0,0.0,0.0,0.0,0.0,0.0,0.0,0.0,0.0,0.0,0.0,0.0,0.0,0.0,0.0,0.0,0.0,0.0,0.0,0.0,0.0,-1.933,-2.0805,-2.1465,-2.2546,-2.3214,-2.3214,-2.4313,-2.5276,-2.5873,-2.666,-2.7379,-2.7976,-2.8193,-2.8478,-2.8872,-2.9089,-2.9387,-2.9781,-2.9794,-2.9712,-2.9487,-2.9907,-2.9377,-2.7999,-2.835,-2.8072,-2.7148,-2.7148,-2.6911,-2.6534,-2.6534,-2.5918,-2.5086,-2.4927,-2.4631,-2.4303,-2.4619,-2.4732,-2.4777,0.0,0.0,-1.1532,-0.9512,-0.9681,-1.0112,-1.0127,-1.0158,-1.1389,-1.4775,-1.6962,-1.9006,-2.109,-2.3102,-2.4317,-2.4333,-2.4333,-2.4625,-2.5272,-2.1547,-1.9364,-1.9364,-1.7561,-1.8991,-2.4287,-2.4425,-2.5733,-2.8411,-2.9089,-2.9362,-2.921,-2.9898,-3.0204,-3.0127,-2.9501,-2.9245,-2.93,-2.8393,-2.8414,-2.8791,-2.5644,-2.3994,-2.2902,0.0,0.0,0.0,0.0,0.0,0.0,0.0,0.0,0.0,0.0,0.0,0.0,0.0,0.0,0.0,0.0,0.0,0.0,0.0,0.0,0.0,0.0,0.0,0.0,0.0,0.0,0.0,0.0,0.0,0.0,0.0,0.0,0.0,-2.0414,-2.0664,-2.152,-2.3441,-2.4505,-2.5073,-2.5086,-2.6158,-2.7094,-2.7691,-2.7732,-2.799,-2.8587,-2.9157,-2.9482,-2.9509,-3.0093,-3.0418,-3.0446,-3.0446,-3.0156,-2.9539,-2.957,-2.919,-2.852,-2.852,-2.8243,-2.7693,-2.7693,-2.7409,-2.6908,-2.6908,-2.6441,-2.5673,-2.5228,-2.4848,-2.4486,-2.4508,-2.4519,-2.453,-1.1948,-1.1635,-1.122,-1.065,-1.0312,-1.0266,-1.074,-1.1281,-1.2482,-1.4898,-1.7422,-1.961,-2.1152,-2.3102,-2.4502,-2.4995,-2.5041,-2.5118,-2.5302,-2.244,-2.0767,-2.0767,-2.304,-2.5025,-2.6518,-2.7026,-2.7642,-2.8411,-2.8958,-2.9245,-2.921,-3.0281,-3.0259,-2.9331,-2.965,-2.924,-2.8377,-2.8096,-2.8103,-2.8222,-2.7344,-2.5846,-2.3952,0.0,0.0,0.0,0.0,0.0,0.0,0.0,0.0,0.0,0.0,0.0,0.0,0.0,0.0,0.0,0.0,0.0,0.0,0.0,0.0,0.0,0.0,0.0,0.0,0.0,0.0,0.0,0.0,0.0,0.0,0.0,-1.9887,-2.117,-2.131,-2.2779,-2.4014,-2.4573,-2.5646,-2.6497,-2.6932,-2.7271,-2.7705,-2.8302,-2.8343,-2.8614,-2.9197,-2.9387,-2.9686,-3.0133,-3.031,-3.0622,-3.1042,-3.1042,-3.0962,-3.0758,-3.0758,-3.0154,-2.9188,-2.9188,-2.8818,-2.83,-2.83,-2.7818,-2.7092,-2.7092,-2.6622,-2.5847,-2.5599,-2.5094,-2.453,-2.4858,-2.5207,-2.5513,-1.22,-1.1856,-1.1466,-1.1139,-1.0771,-1.0648,-1.1032,-1.1466,-1.2882,-1.6041,-1.7853,-1.9777,-2.227,-2.3856,-2.4887,-2.5287,-2.558,-2.5626,-2.5333,-2.3317,-2.2517,-2.3379,-2.541,-2.7057,-2.8211,-2.8627,-2.8916,-2.9143,-2.9751,-2.9983,-2.9841,-3.0864,-3.09,-3.0159,-2.9977,-2.9516,-2.8809,-2.8197,-2.7955,-2.802,-2.7955,-2.7159,-2.5874,-2.4964,-2.356,-2.189,-2.0961,-2.0329,-1.9925,-1.9641,0.0,0.0,0.0,0.0,0.0,0.0,0.0,0.0,0.0,0.0,0.0,0.0,0.0,0.0,0.0,0.0,0.0,0.0,0.0,0.0,0.0,0.0,0.0,0.0,-2.1609,-2.2828,-2.3371,-2.4545,-2.5466,-2.5738,-2.6606,-2.742,-2.8017,-2.8085,-2.8329,-2.8912,-2.8967,-2.9224,-2.9835,-3.0106,-3.0405,-3.0771,-3.1015,-3.1314,-3.1653,-3.1424,-3.1136,-3.0846,-3.0545,-2.9947,-2.904,-2.904,-2.8816,-2.851,-2.851,-2.8099,-2.7522,-2.7522,-2.6951,-2.6163,0.0,0.0,0.0,0.0,-2.5655,-2.5895,-1.2205,-1.22,-1.1994,-1.1343,-1.1216,-1.1216,-1.1216,-1.1278,-1.2983,-1.7608,-1.8268,-1.9836,-2.3871,-2.4918,-2.5349,-2.5426,-2.6057,-2.6164,-2.5487,-2.4379,-2.4548,-2.6303,-2.5918,-2.6796,-2.93,-2.9362,-2.9633,-3.0188,-3.0807,-3.0964,-3.0704,-3.1396,-3.1754,-3.1618,-3.0313,-2.9818,-2.9758,-2.8369,-2.784,-2.7955,-2.784,-2.794,-2.8064,-2.6965,-2.6211,-2.5605,-2.4539,-2.3444,-2.2399,-2.1737,0.0,0.0,0.0,0.0,0.0,0.0,0.0,0.0,0.0,0.0,0.0,0.0,0.0,0.0,0.0,0.0,0.0,0.0,0.0,0.0,0.0,0.0,0.0,0.0,-2.313,-2.4611,-2.5738,-2.5955,-2.6226,-2.685,-2.7447,-2.8017,-2.8546,-2.8655,-2.8912,-2.9442,-2.9536,-2.9849,-3.0473,-3.1015,0.0,0.0,0.0,-3.2169,-3.2096,-3.1542,-3.0996,-3.0317,-2.9793,-2.9197,-2.859,-2.851,-2.851,-2.851,-2.851,-2.8271,-2.78,-2.78,-2.729,-2.6373,-2.6052,-2.5895,-2.5895,-2.5895,-2.5895,-2.5895,-1.2195,-1.22,-1.2154,-1.201,-1.1994,-1.1994,-1.1994,-1.2436,-1.4098,-1.7731,-1.8715,-2.0408,-2.3933,-2.4918,-2.5549,-2.6134,-2.6795,-2.6903,-2.6226,-2.6441,-2.6488,-2.6244,-2.7132,-2.811,-2.9042,-2.9057,-2.9377,-3.0046,-3.0537,-3.0744,-3.0704,-3.1282,-3.1297,-3.0728,-2.9978,-2.9334,-2.8847,-2.797,-2.7625,-2.7675,-2.7625,-2.7875,-2.8155,-2.7944,-2.7904,-2.7953,-2.7736,-2.7518,-2.742,-2.7321,-2.6125,-2.454,-2.3948,-2.1967,0.0,0.0,0.0,0.0,0.0,0.0,0.0,0.0,0.0,0.0,0.0,0.0,0.0,0.0,0.0,0.0,0.0,0.0,0.0,-2.2617,-2.3987,-2.5086,-2.5792,-2.6321,-2.6864,-2.7461,-2.8058,-2.8465,-2.8587,-2.9021,-2.9347,-2.9469,-2.9944,-3.05,-3.1083,-3.1232,-3.1504,-3.1992,-3.2114,-3.1936,-3.1381,-3.1776,-3.1394,-3.0317,-3.0177,0.0,-2.9184,-2.8736,-2.851,-2.851,-2.851,-2.8099,-2.736,-2.736,-2.6787,-2.5979,-2.5895,-2.5895,-2.5895,-2.5895,-2.5895,-2.5895,-1.2195,-1.2195,-1.22,-1.2195,-1.221,-1.221,-1.221,-1.2488,-1.3898,-1.7254,-1.8299,-1.9777,-2.2501,-2.3702,-2.4179,-2.3856,-2.4764,-2.5487,-2.5826,-2.6503,-2.7042,-2.7271,-2.7931,-2.8556,-2.9078,-2.9428,-2.9879,-3.0386,-3.0996,-3.12,-3.1102,-3.1375,-3.1287,-3.0971,-3.0013,-2.94,-2.9026,-2.8008,-2.7625,-2.7625,-2.7625,-2.7775,-2.8103,-2.8103,-2.825,-2.8493,-2.8493,-2.8589,-2.8732,-2.8811,-2.8199,-2.7319,-2.7119,-2.5377,-2.2722,0.0,0.0,0.0,0.0,0.0,0.0,0.0,0.0,0.0,0.0,0.0,0.0,0.0,0.0,-1.9612,-2.0904,0.0,-2.2777,-2.3933,-2.4869,-2.5656,-2.6267,-2.6877,-2.7379,-2.7664,-2.8234,-2.8709,-2.9007,-2.9306,-2.9726,-3.0337,-3.0676,-3.111,-3.1707,-3.1734,-3.1712,-3.169,-3.1703,-3.1542,-3.122,-3.1233,-3.0934,-3.0317,-3.0012,-2.9561,-2.8961,-2.8431,-2.8203,-2.8203,-2.7938,-2.7429,-2.6846,-2.6622,-2.6302,-2.5895,-2.5895,-2.5895,-2.5895,-2.5895,-2.5895,-2.5895,-1.2195,-1.221,-1.221,-1.221,-1.221,-1.221,-1.221,-1.221,-1.3313,-1.6409,-1.7285,-1.8391,-2.047,-2.1778,-2.2178,-2.1347,-2.264,-2.401,-2.5241,-2.6226,-2.7272,-2.8301,-2.8363,-2.8556,-2.9114,-2.9626,-3.0175,-3.0744,-3.1261,-3.1534,-3.1482,-3.1482,-3.1407,-3.1285,-3.0103,-2.9505,-2.931,-2.8083,-2.7625,-2.7625,-2.7625,-2.774,-2.802,-2.802,-2.8168,-2.8411,-2.8411,-2.8444,-2.8589,-2.8747,-2.8826,-2.8936,-2.9075,-2.7968,-2.5888,-2.2243,-2.1283,0.0,0.0,0.0,0.0,0.0,0.0,0.0,0.0,-1.8887,-1.929,-2.0401,-2.1254,-2.2041,-2.2935,-2.3646,-2.4354,-2.5059,-2.5575,-2.6145,-2.6891,-2.7406,-2.78,-2.8017,-2.8478,-2.8953,-2.9428,-2.9686,-3.0228,-3.1219,-3.1395,-3.168,-3.2155,-3.2096,-3.179,-3.1381,-3.1307,-3.122,-3.122,-3.0696,-3.0317,-3.0101,-2.9639,-2.904,-2.8351,-2.8042,-2.7881,-2.7708,-2.7278,-2.6857,-2.6445,-2.6052,-2.5895,-2.5895,-2.5895,-2.5961,-2.6026,-2.5928,-2.5961,-2.6037,-1.221,-1.221,-1.221,-1.221,-1.221,-1.221,-1.221,-1.221,-1.2974,-1.5145,-1.5472,-1.6286,-1.833,-1.9269,-2.0165,-2.1229,-2.3071,-2.4502,-2.5272,-2.7119,-2.8194,-2.8235,-2.8103,-2.8323,-2.8822,-2.8824,-2.9349,-3.0507,-3.0582,-3.0941,-3.1482,-3.1482,-3.121,-3.0582,-2.9894,-2.9265,-2.8667,-2.7904,-2.7625,-2.7625,-2.7625,-2.774,-2.802,-2.802,-2.8168,-2.8411,-2.8411,-2.8411,-2.846,-2.87,-2.8794,-2.8842,-2.9045,-2.8917,-2.805,-2.4563,-2.36,-2.286,-1.889,-1.8071,-1.8688,-2.0215,-1.9783,-1.9976,0.0,-2.3008,-2.2119,-2.3729,-2.3886,-2.3974,-2.464,-2.4381,-2.4489,-2.5602,-2.5846,-2.6294,-2.7447,-2.7664,-2.8098,-2.9157,-2.9333,-2.9401,-2.9469,-3.0459,-3.1151,-3.1287,-3.1789,-3.2114,-3.2182,-3.1629,-3.1542,-3.2096,-3.1542,-3.122,-3.122,-3.1145,-3.0545,-2.9496,-2.9419,-2.8882,-2.7973,-2.7881,-2.7708,-2.7267,-2.6775,-2.6528,-2.6445,-2.6052,-2.5895,-2.5895,-2.5895,-2.6168,-2.6496,-2.6059,-2.6168,-2.6551,-1.221,-1.221,-1.221,-1.221,-1.221,-1.221,-1.221,-1.221,-1.2774,-1.4406,-1.4975,-1.5503,-1.6348,-1.6376,-1.6699,-1.7669,-2.0701,-2.284,-2.3517,-2.6611,-2.8348,-2.8299,-2.825,-2.829,-2.8314,-2.8656,-2.9019,-2.94,-2.9789,-3.0118,-3.0387,-3.0387,-3.0238,-2.9939,-2.9295,-2.8861,-2.8562,-2.7859,-2.7625,-2.7625,-2.7675,-2.784,-2.802,-2.8103,-2.825,-2.8396,-2.8493,-2.823,0.0,-2.8623,-2.8592,-2.8387,-2.8919,-2.8853,-2.8034,-2.5639,-2.5381,-2.5454,-2.3672,-2.2951,-2.2834,-2.3196,-2.3122,-2.3337,-2.4533,-2.4412,-2.4154,-2.4496,-2.4998,-2.5283,-2.5018,-2.5385,-2.586,-2.6348,-2.6728,-2.7121,-2.7637,-2.8302,-2.8912,-2.9414,-3.0106,-3.054,-3.054,-3.0988,-3.1436,-3.1789,-3.2046,-3.2182,-3.2182,-3.1936,-3.1703,-3.1616,-3.1381,-3.0996,-3.0696,-3.0696,-3.0254,-2.9419,-2.9419,-2.8882,-2.7893,-2.7941,-2.7478,-2.6808,-2.6639,-2.6565,-2.6587,-2.6691,-2.6715,-2.6715,-2.6715,-2.6846,-2.6966,-2.6496,-2.6616,-2.7031,-1.221,-1.221,-1.221,-1.221,-1.221,-1.221,-1.221,-1.221,-1.2565,-1.3513,-1.4067,-1.4375,-1.4375,-1.3944,-1.3913,-1.459,-1.8207,-2.0885,-2.1947,-2.5672,-2.8011,-2.8381,-2.8348,-2.825,-2.802,-2.844,-2.8671,-2.8607,-2.9086,-2.94,-2.9579,-2.9579,-2.949,-2.928,-2.8816,-2.8502,-2.8278,-2.7784,-2.7625,-2.7625,-2.774,-2.7905,-2.8005,-2.8137,-2.8054,-2.7842,-2.7968,-2.7566,-2.6916,-2.7047,-2.6889,-2.6701,-2.7158,-2.7233,-2.6922,-2.5893,-2.5951,-2.6298,-2.6144,-2.5871,-2.5564,-2.5043,-2.5473,-2.5792,-2.479,-2.5095,-2.5392,-2.479,-2.5507,-2.6038,-2.5605,-2.6226,-2.6877,-2.704,-2.742,-2.7827,-2.8153,-2.894,-2.9604,-2.9944,-3.0758,-3.1368,-3.1517,-3.1544,-3.1636,-3.1909,-3.2096,-3.2096,-3.1936,-3.1936,-3.1703,-3.1233,-3.1071,-3.0771,-3.0317,-3.0088,-2.9793,-2.9419,-2.9106,-2.8566,-2.7731,-2.7569,-2.7272,-2.6824,-2.6824,-2.6824,-2.6846,-2.7173,-2.7315,-2.7315,-2.7315,-2.7392,-2.7468,-2.714,-2.7228,-2.7512,-1.221,-1.221,-1.221,-1.221,-1.221,-1.221,-1.221,-1.221,-1.221,-1.2257,-1.2287,-1.2303,-1.2303,-1.2272,-1.2534,-1.319,-1.6332,-1.9144,-2.1178,-2.4533,-2.7026,-2.835,-2.8299,-2.8137,-2.802,-2.7871,-2.8101,-2.8607,-2.8622,-2.8951,-2.9579,-2.9579,-2.9235,-2.8622,-2.8607,-2.8233,-2.7655,-2.7625,-2.7625,-2.7625,-2.774,-2.7905,-2.8005,-2.8137,-2.7486,-2.6486,-2.6561,-2.6112,-2.5172,-2.3258,-2.2948,-2.3341,-2.293,-2.3631,-2.471,-2.523,-2.4969,-2.4399,-2.4057,-2.4428,-2.4907,-2.4892,-2.5821,-2.6471,-2.5251,-2.543,-2.5701,-2.509,-2.5466,-2.6063,-2.666,-2.6796,-2.7013,-2.7596,-2.7691,-2.8112,-2.9265,-2.9455,-2.9916,-3.1097,-3.1273,-3.1517,-3.2101,-3.2155,-3.1923,-3.1307,-3.185,-3.1936,-3.1307,-3.1233,-3.122,-3.122,-3.062,-3.0317,-3.0317,-2.9716,-2.9419,-2.9419,-2.8431,-2.7708,-2.7208,-2.6812,-2.6867,-2.7293,-2.7293,-2.7293,-2.7293,-2.7304,-2.7315,-2.7315,-2.7315,-2.7599,-2.8014,-2.8003,-2.8003,-2.8025,-1.2851,-1.2519,-1.2349,-1.2796,-1.2503,-1.221,-1.221,-1.221,-1.221,-1.221,-1.221,0.0,0.0,0.0,0.0,0.0,-1.5441,-1.7761,-1.9842,-2.2701,-2.5164,-2.698,-2.7441,-2.7791,-2.8137,-2.8005,-2.7961,-2.8086,-2.797,-2.8038,-2.8248,-2.8248,-2.8128,-2.7919,-2.7919,-2.7784,-2.7625,-2.7625,-2.7625,-2.7625,-2.784,-2.7955,-2.8065,-2.874,-2.738,-2.5033,0.0,-2.3794,-2.2723,-2.2009,-2.1744,-2.1831,-2.292,-2.3219,-2.335,-2.4206,-2.4667,-2.4963,-2.538,-2.5681,-2.5934,-2.6141,-2.6474,-2.6732,-2.6597,-2.6688,-2.6847,-2.6846,-2.7138,-2.7467,-2.7673,-2.7857,-2.8058,-2.8261,-2.8627,-2.9021,-2.9414,-3.0174,-3.0825,-3.1246,-3.1639,-3.1965,-3.2155,-3.2182,-3.2096,-3.1863,-3.2096,-3.2096,-3.1863,-3.1468,-3.122,-3.122,-3.062,-3.0101,-2.9716,-2.9263,-2.8803,-2.8431,-2.78,-2.7731,-2.817,-2.7414,-2.7337,-2.7796,-2.7796,-2.7796,-2.7818,-2.8134,-2.8265,-2.8265,-2.8265,-2.856,-2.8997,-2.8997,-2.9205,-2.9434,0.0,-1.3005,-1.2682,-1.3113,-1.2657,0.0,0.0,0.0,0.0,0.0,0.0,0.0,0.0,0.0,0.0,0.0,0.0,-1.6268,-1.8053,-2.052,-2.2778,-2.4841,-2.5102,-2.5597,-2.6367,-2.6016,-2.6105,-2.6705,-2.6801,-2.7111,-2.7625,-2.7625,-2.7625,-2.7675,-2.7675,-2.7675,-2.7675,-2.7675,-2.781,-2.7976,-2.7482,-2.7155,-2.6976,-2.6888,-2.4945,0.0,-2.1279,-2.0053,-1.8905,-1.8858,-1.8952,-1.928,-2.0485,-2.1772,-2.2991,-2.3615,-2.4534,-2.5477,-2.6,-2.6141,-2.6323,-2.6944,-2.7128,-2.7234,-2.758,-2.7597,-2.7726,-2.8048,-2.8092,-2.8047,-2.816,-2.851,-2.8716,-2.8587,-2.9455,-3.012,-3.012,-3.0988,-3.1527,-3.1299,-3.1793,-3.2023,-3.1556,-3.1716,-3.1776,-3.1556,-3.1703,-3.1629,-3.1259,-3.1233,-3.0921,-3.0393,-2.9935,-2.9394,-2.8621,-2.8383,-2.802,-2.7671,-2.7578,-2.7886,-2.8387,-2.7809,-2.7839,-2.8298,-2.8298,-2.8298,-2.8331,-2.8822,-2.9019,-2.903,-2.9205,-2.9467,-2.974,-2.974,-3.0046,-3.0384,0.0,0.0,-1.3251,0.0,0.0,0.0,0.0,0.0,0.0,0.0,0.0,0.0,0.0,0.0,0.0,0.0,0.0,0.0,-1.601,-1.7992,-1.9996,-2.1993,-2.1532,-2.1818,-2.2995,-2.2337,-2.2823,-2.4566,-2.5137,-2.6063,-2.737,-2.737,-2.745,-2.7595,-2.7549,-2.7534,-2.7534,-2.7504,-2.7836,-2.8212,-2.6485,-2.5378,-2.4655,-2.2909,-2.0551,-1.8037,-1.6871,-1.5423,-1.4089,-1.4133,-1.5091,-1.6241,-1.6245,-1.9585,-2.348,-2.3496,-2.4564,-2.5792,-2.5865,-2.5908,-2.6228,-2.7461,-2.7781,-2.783,-2.8168,-2.8254,-2.8353,-2.87,-2.8215,-2.7771,-2.8088,-2.8539,-2.8853,-2.857,-3.0079,-3.13,-3.13,-3.1802,-3.1936,-3.1307,-3.1776,-3.1629,-3.0469,-3.0846,-3.0921,-3.0317,-3.0846,-3.062,-2.9496,-3.0469,-3.0393,-2.887,-2.8803,-2.8235,-2.7267,-2.7185,-2.7213,-2.7346,-2.7794,-2.8022,-2.808,-2.808,-2.8331,-2.8757,-2.8757,-2.8757,-2.879,-2.9281,-2.9489,-2.9532,-3.0024,-3.022,-3.0253,-3.0253,-3.0537,-3.0876,0.0,0.0,0.0,0.0,0.0,0.0,0.0,0.0,0.0,0.0,0.0,0.0,0.0,0.0,0.0,0.0,0.0,0.0,-1.4621,-1.5668,-1.7145,-1.9144,-2.0085,-2.0931,-2.1741,-2.198,-2.2291,-2.2712,-2.2742,-2.3185,-2.3968,-2.3968,-2.4282,-2.4777,-2.4295,-2.4055,-2.4053,-2.3598,-2.3179,-2.2806,-2.2495,-2.1965,-2.1377,-2.151,-1.9613,-1.6918,-1.7086,-1.5165,-1.2802,-1.4437,-1.7074,-1.9803,-2.0818,-2.2169,-2.3555,-2.4253,-2.5072,-2.5995,-2.6968,-2.7578,-2.8028,-2.8347,-2.8448,-2.8608,-2.9117,-2.9262,-2.9247,-2.9347,-2.8698,-2.7797,-2.6919,-2.7638,-2.8147,-2.7557,-2.9656,-3.13,-3.13,-3.1414,-3.1542,-3.1936,-3.1629,-3.1307,-3.0996,-3.0696,-3.0241,-2.9639,-3.0177,-3.0406,-3.0101,-2.9947,-2.9639,-2.9263,-2.8498,-2.803,-2.7708,-2.7033,-2.6881,-2.7316,-2.7426,-2.7842,-2.8571,-2.8571,-2.8637,-2.8757,-2.8757,-2.8757,-2.879,-2.9281,-2.9489,-2.9532,-3.0024,-3.0417,-3.0723,-3.0723,-3.1029,-3.1422,0.0,0.0,0.0,0.0,0.0,0.0,0.0,0.0,0.0,0.0,0.0,0.0,0.0,0.0,0.0,0.0,0.0,0.0,0.0,-1.3944,-1.4975,-1.6379,-1.6914,-1.7652,-1.8592,-1.8572,-1.9083,-2.0254,-2.0161,-2.0685,-2.1919,-2.1633,-2.1732,-2.2158,-2.178,-2.1613,-2.1606,-2.1228,-2.1046,0.0,0.0,-1.9379,-1.8835,-1.8377,-1.6707,-1.4669,-1.4968,-1.4878,-1.4909,-1.6969,-1.917,-2.1257,-2.2637,-2.354,-2.4244,-2.5014,-2.5908,-2.6794,-2.7534,-2.8187,-2.8739,-2.9029,-2.9087,-2.9116,-2.9189,-2.9218,-2.8971,-2.8115,-2.727,-2.6361,-2.5283,-2.6483,-2.7597,-2.7143,-2.9802,-3.1894,-3.1752,-3.1643,-3.1673,-3.173,-3.1233,-3.0696,-3.0469,-2.9935,-2.9484,-2.904,-2.9561,-2.9793,-2.9484,-2.9419,-2.9197,-2.8736,-2.8018,-2.7383,-2.7056,-2.668,-2.683,-2.7315,-2.7534,-2.8025,-2.8757,-2.8757,-2.8757,-2.8757,-2.8757,-2.8757,-2.8811,-2.9521,-2.9805,-2.9871,-3.0559,-3.0985,-3.1214,-3.1214,-3.1389,-3.1618,0.0,0.0,0.0,0.0,0.0,0.0,0.0,0.0,0.0,0.0,0.0,-1.2303,-1.221,-1.221,0.0,0.0,0.0,0.0,0.0,0.0,-1.3328,-1.3913,-1.3452,-1.3744,-1.4914,-1.4353,-1.5171,-1.7502,-1.7425,-1.8331,-2.0101,-1.9526,-1.9349,-1.9577,-1.9485,-1.9455,-1.944,-1.9348,-1.9607,-1.9897,-1.808,-1.7073,-1.6431,0.0,-1.3317,-1.2394,-1.2353,-1.4591,-1.7917,-2.0049,-2.1203,-2.1999,-2.3393,-2.4493,-2.5311,-2.5814,-2.6721,-2.7636,-2.781,-2.826,-2.8855,-2.9566,-2.9755,-2.9566,-2.884,-2.8608,-2.7984,-2.5952,-2.5023,-2.4274,-2.3331,-2.5217,-2.6961,-2.7014,-3.0083,-3.2352,-3.2069,-3.1982,-3.1711,-3.1286,-3.062,-3.0024,-2.9574,-2.9106,-2.8724,-2.8431,-2.8882,-2.887,-2.8431,-2.8882,-2.8712,-2.7708,-2.7278,-2.6704,-2.5895,-2.6321,-2.6769,-2.7228,-2.7708,-2.8233,-2.8757,-2.8757,-2.879,-2.8844,-2.8872,-2.8757,-2.8822,-2.9805,-3.0209,-3.0308,-3.1258,-3.1618,-3.1618,-3.1618,-3.1618,-3.1618,0.0,0.0,0.0,0.0,0.0,0.0,0.0,0.0,0.0,0.0,-1.4406,-1.2827,0.0,0.0,0.0,0.0,0.0,0.0,0.0,0.0,0.0,-1.2549,-1.2981,-1.3313,-1.3529,-1.3951,-1.4372,-1.4781,-1.477,-1.516,-1.5957,-1.5836,-1.6163,-1.6841,-1.6248,-1.6004,-1.5998,-1.5472,-1.4955,-1.446,-1.4157,-1.3636,-1.3056,-1.2663,0.0,0.0,-1.3306,-1.4573,-1.6422,-1.9806,-2.2556,-2.4808,-2.6253,-2.6629,-2.6526,-2.6576,-2.6765,-2.7186,-2.8231,-2.8594,-2.8956,-3.0118,-3.0408,-3.0103,-2.8942,-2.8274,-2.72,-2.4733,-2.3717,-2.2859,-2.1685,-2.3688,-2.5788,-2.6552,-2.9154,-3.1211,-3.1322,-3.0937,-3.0737,-3.1158,-3.0241,-2.9716,-3.0101,-2.9328,-2.8578,-2.8042,-2.7765,-2.7684,-2.7962,-2.7765,-2.7336,-2.6775,-2.6693,-2.6373,-2.5895,-2.5983,-2.6278,-2.6758,-2.7217,-2.7905,-2.8757,-2.8757,-2.8975,-2.9336,-2.8932,-2.8757,-2.8822,-2.9805,-3.0209,-3.0308,-3.1258,-3.1618,-3.1618,-3.1618,-3.1618,-3.1516,0.0,0.0,0.0,0.0,0.0,0.0,0.0,-1.5841,-1.7009,-1.9069,-1.8515,-1.6991,-1.4544,-1.3344,-1.2596,0.0,0.0,0.0,0.0,0.0,0.0,-1.221,-1.2519,-1.2688,-1.2694,-1.2997,-1.3328,-1.3682,0.0,-1.3413,-1.4023,-1.3672,-1.3735,-1.4113,-1.3743,-1.3613,-1.3613,-1.3312,-1.2988,-1.2694,-1.2716,-1.2557,-1.2302,0.0,0.0,0.0,-1.347,-1.4983,-1.6717,-1.8848,-2.2003,-2.5355,-2.6696,-2.6937,-2.6779,-2.6779,-2.7258,-2.7897,-2.8507,-2.916,-2.9813,-3.0422,-3.0568,-2.9972,-2.7694,-2.6678,-2.5299,-2.2062,-2.1162,-2.0654,-1.9711,-2.1974,-2.4262,-2.5071,-2.7954,-3.0251,-3.0703,-3.0777,-3.1009,-3.1629,-3.033,-2.9639,-3.0241,-2.9106,-2.8191,-2.7881,-2.7196,-2.7021,-2.7534,-2.7348,-2.701,-2.6528,-2.6528,-2.629,-2.5895,-2.6147,-2.6649,-2.737,-2.7839,-2.8571,-2.951,-2.951,-2.95,-2.9467,-2.9237,-2.8986,-2.8822,-2.9805,-3.0209,-3.0308,-3.1258,-3.1618,-3.1618,-3.1618,-3.1618,-3.1516,0.0,0.0,0.0,0.0,0.0,0.0,0.0,-1.8115,-1.959,-2.224,-2.2671,-2.1393,-1.79,-1.5452,-1.3605,0.0,0.0,0.0,0.0,0.0,0.0,0.0,0.0,0.0,-1.2205,0.0,0.0,-1.3062,-1.2499,0.0,0.0,0.0,0.0,0.0,-1.2216,-1.2221,-1.2246,-1.2401,-1.2484,0.0,0.0,-1.2562,-1.2587,0.0,0.0,0.0,0.0,-1.5062,-1.6634,-1.8259,-2.1061,-2.4152,-2.585,-2.6562,-2.6779,-2.6779,-2.7592,-2.8507,-2.8637,-2.9508,-3.0408,-3.0539,-3.0568,-2.9726,-2.6518,-2.5299,-2.3699,-1.9899,-1.9101,-1.8956,-1.8491,-2.0654,-2.285,-2.3946,-2.6707,-2.9059,-3.0079,-3.044,-3.0956,-3.1909,-3.033,-2.9496,-3.0241,-2.8882,-2.7893,-2.7893,-2.7033,-2.661,-2.694,-2.694,-2.6775,-2.6362,-2.6474,-2.6373,-2.6059,-2.654,-2.7206,-2.8047,-2.8528,-2.927,-3.0209,-3.0209,-3.0057,-2.9773,-2.9576,-2.927,-2.8975,-2.9849,-3.0209,-3.0308,-3.1258,-3.1618,-3.1618,-3.1618,-3.1516,-3.1219,0.0,0.0,0.0,0.0,0.0,0.0,0.0,-1.9254,-2.1716,-2.6241,-2.5256,-2.3517,-2.1901,-1.8823,-1.5825,0.0,0.0,0.0,0.0,0.0,0.0,0.0,0.0,0.0,0.0,0.0,0.0,-1.2298,-1.2277,0.0,0.0,0.0,0.0,0.0,0.0,-1.2323,-1.243,-1.3036,0.0,0.0,0.0,0.0,0.0,0.0,0.0,0.0,0.0,-1.4212,-1.447,-1.9159,-2.0654,-2.1075,-2.4109,-2.5865,-2.6779,-2.6779,-2.7273,-2.794,-2.8521,-2.9189,-2.9856,-3.0437,-3.0568,-2.9726,-2.6518,-2.5299,-2.3699,-1.9899,-1.9101,-1.9087,-1.9029,-2.0204,-2.1945,-2.4315,-2.5546,-2.6972,-2.9249,-2.9074,-2.937,-3.1101,-2.9729,-2.904,-3.0177,-2.8882,-2.7893,-2.7893,-2.7033,-2.6373,-2.6063,-2.5979,-2.5979,-2.5979,-2.6406,-2.6562,-2.6562,-2.702,-2.7512,-2.8047,-2.8528,-2.927,-3.0209,-3.0209,-3.0417,-3.0723,-2.986,-2.9456,-2.9456,-2.9991,-3.0209,-3.0308,-3.1258,-3.1618,-3.1618,-3.1618,-3.1116,-3.038,0.0,0.0,0.0,0.0,0.0,0.0,-1.8885,-1.995,-2.2117,-2.7225,-2.6873,-2.5597,-2.4158,-2.1403,-1.7915,-1.3575,0.0,0.0,0.0,0.0,0.0,0.0,0.0,0.0,0.0,0.0,-1.2226,-1.2266,-1.2246,0.0,0.0,0.0,0.0,0.0,0.0,-1.2343,-1.243,-1.3125,0.0,0.0,0.0,0.0,0.0,0.0,0.0,0.0,0.0,0.0,-1.4964,-1.7766,-1.9333,-2.032,-2.1612,-2.3397,-2.5197,-2.5952,-2.7186,-2.8361,-2.8608,-2.9421,-3.0263,-3.051,-3.0292,-2.9261,-2.6431,-2.4704,-2.2772,-1.974,-1.8811,-1.868,-1.9029,-1.9841,-2.1154,-2.3357,-2.4529,-2.5716,-2.7104,-2.7789,-2.8546,-2.9513,-2.8672,-2.8546,-2.9654,-2.8882,-2.803,-2.7534,-2.6857,-2.629,-2.5895,-2.6179,-2.6343,-2.6343,-2.6802,-2.7184,-2.7479,-2.7949,-2.8571,-2.9347,-2.9827,-3.0406,-3.1061,-3.1061,-3.1007,-3.0854,-3.0209,-2.9925,-2.9936,-3.0133,-3.0373,-3.069,-3.1356,-3.1527,-3.1322,-3.0557,-3.0037,-2.9418,0.0,0.0,0.0,0.0,0.0,-1.5499,-1.941,-2.052,-2.2609,-2.7363,-2.7272,-2.6442,-2.5571,-2.2263,-1.8623,-1.5006,-1.3159,0.0,0.0,0.0,0.0,0.0,0.0,0.0,0.0,0.0,-1.2785,-1.3233,-1.3212,-1.3233,0.0,0.0,-1.2864,-1.2645,0.0,0.0,0.0,0.0,0.0,0.0,0.0,0.0,0.0,0.0,0.0,0.0,0.0,0.0,0.0,0.0,0.0,-1.987,-2.0248,-2.1598,-2.3368,-2.5023,-2.6881,-2.8448,-2.8637,-2.961,-3.0568,-3.0568,-3.0103,-2.8956,-2.6373,-2.4457,-2.2453,-1.9928,-1.8898,-1.8608,-1.9029,-1.9653,-2.0635,-2.2212,-2.335,-2.4454,-2.57,-2.6405,-2.7275,-2.8478,-2.7697,-2.7582,-2.8962,-2.8778,-2.8191,-2.7441,-2.694,-2.6595,-2.6356,-2.6658,-2.6769,-2.6638,-2.7348,-2.7905,-2.8244,-2.8877,-2.9598,-3.0417,-3.0734,-3.1149,-3.1618,-3.1618,-3.1433,-3.1083,-3.0525,-3.0319,-3.0319,-3.022,-3.0415,-3.0852,-3.124,-3.1105,-3.0578,-2.9713,-2.886,-2.8019,0.0,0.0,0.0,0.0,0.0,0.0,-1.8793,-2.1013,-2.3502,-2.6965,-2.6195,-2.561,-2.6303,-2.0931,-1.7485,-1.8115,-1.4498,0.0,0.0,0.0,0.0,0.0,0.0,0.0,0.0,0.0,-1.4074,-1.5458,-1.5524,-1.5573,-1.5557,-1.4885,-1.4189,-1.3463,0.0,0.0,0.0,0.0,0.0,0.0,0.0,0.0,0.0,0.0,0.0,0.0,0.0,0.0,0.0,0.0,0.0,0.0,0.0,-2.1003,-2.1525,-2.4094,-2.6162,-2.7882,-2.8507,-2.961,-3.0568,-3.0568,-3.0103,-2.8956,-2.6373,-2.4791,-2.3165,-2.0611,-1.9566,-1.9087,-1.9101,-1.9653,-2.0347,-2.1088,-2.1713,-2.3034,-2.5524,-2.4983,-2.5389,-2.8255,-2.6688,-2.6149,-2.8295,-2.8467,-2.8351,-2.7881,-2.7441,-2.725,-2.7267,-2.7315,-2.7097,-2.6638,-2.8003,-2.8839,-2.8746,-2.9707,-3.0428,-3.0887,-3.0898,-3.1149,-3.1618,-3.1618,-3.1618,-3.1586,-3.0813,-3.0507,-3.0507,-3.0216,-3.0216,-3.0561,-3.0749,-3.0266,-2.9482,-2.9187,-2.7795,-2.6082,0.0,0.0,0.0,0.0,0.0,0.0,0.0,-1.8515,-2.0507,-2.3412,-2.2678,-2.2279,-2.335,-1.9311,-1.6594,-1.6809,-1.399,0.0,0.0,0.0,0.0,0.0,0.0,0.0,0.0,0.0,-1.5301,-1.6245,-1.6743,-1.72,-1.7681,-1.6038,-1.5153,-1.4877,-1.3226,-1.2625,0.0,0.0,0.0,0.0,0.0,0.0,0.0,0.0,0.0,0.0,0.0,0.0,0.0,0.0,0.0,0.0,0.0,0.0,0.0,-2.1859,-2.4196,-2.6445,-2.6649,-2.765,-2.8521,-2.81,-2.7824,-2.7128,-2.4979,-2.3847,-2.2643,-2.0538,-1.9566,-1.9246,-1.9696,-1.958,-2.0287,-2.2961,-2.2637,-2.292,-2.53,-2.5292,-2.5403,-2.6608,-2.7185,-2.7775,-2.8411,-2.853,-2.8351,-2.7962,-2.7452,-2.709,-2.6763,-2.7128,-2.7403,-2.7588,-2.8353,-2.891,-2.9248,-2.9893,-3.045,-3.0898,-3.1236,-3.1476,-3.1618,-3.1618,-3.1527,-3.13,-3.0712,-3.06,-3.0675,-3.0253,-3.0317,-3.0615,-2.9901,-2.9408,-2.8744,-2.7023,-2.5954,-2.511,0.0,0.0,0.0,0.0,0.0,0.0,0.0,-1.6962,-1.859,-2.0763,-1.9943,-1.9805,-2.1605,-1.7762,-1.5499,-1.6486,-1.3898,0.0,0.0,0.0,0.0,0.0,0.0,0.0,-1.5229,-1.5411,-1.6523,-1.8554,-1.8728,-1.931,-2.0241,-1.8693,-1.7255,-1.5912,-1.4363,-1.3368,0.0,0.0,0.0,0.0,0.0,0.0,-1.4326,0.0,0.0,0.0,0.0,0.0,0.0,0.0,0.0,0.0,0.0,0.0,0.0,0.0,-2.2236,-2.4196,-2.5168,-2.6373,-2.7273,-2.6881,-2.6416,-2.5662,-2.4225,-2.302,-2.1815,-2.0393,-1.9566,-1.9232,-1.9653,-1.9595,-2.0182,-2.2283,-2.1993,-2.2305,-2.445,-2.4529,-2.4657,-2.5555,-2.7152,-2.813,-2.7909,-2.827,-2.8431,-2.8122,-2.7708,-2.7387,-2.7329,-2.7513,-2.7807,-2.8298,-2.8779,-2.9172,-2.9489,-2.9969,-3.0351,-3.0646,-3.1116,-3.1345,-3.1356,-3.1542,-3.1527,-3.1311,-3.0815,-3.0653,0.0,-3.0303,-3.0025,-2.9953,-2.9092,-2.8213,-2.7239,-2.5626,-2.4659,-2.4008,0.0,0.0,0.0,0.0,0.0,0.0,0.0,-1.6225,-1.7607,-1.8917,-1.79,-1.8053,-2.0613,-1.6222,-1.4129,-1.6624,0.0,0.0,0.0,0.0,0.0,0.0,0.0,0.0,-1.6565,-1.6085,-1.776,-2.1724,-2.1219,-2.1692,-2.3049,-2.2303,-2.013,-1.6795,-1.6034,-1.4869,0.0,0.0,0.0,0.0,-1.5745,-1.5667,0.0,0.0,0.0,0.0,0.0,0.0,0.0,0.0,0.0,0.0,0.0,0.0,0.0,0.0,0.0,0.0,0.0,-2.5371,-2.6431,-2.6387,-2.5502,-2.4409,-2.3775,-2.2265,0.0,-2.0161,-1.9537,-1.913,-1.9179,-1.9628,-1.9984,-1.9973,-2.0346,-2.1353,-2.3389,-2.3408,-2.3833,-2.5527,-2.6895,-2.758,-2.7212,-2.7987,-2.8539,-2.8539,-2.8151,-2.8122,-2.8516,-2.8221,-2.8244,-2.8691,-2.9172,-2.9434,-2.9434,-2.9915,-3.0155,-3.0166,-3.0657,-3.0898,-3.0919,-3.14,-3.1629,-3.1527,-3.1034,-3.0724,-3.062,-3.0099,-2.9323,-2.8532,-2.8116,-2.6816,-2.5075,-2.477,-2.4008,-2.3014,0.0,0.0,0.0,0.0,0.0,0.0,0.0,0.0,0.0,0.0,-1.6246,-1.5968,-1.6561,-1.4113,-1.2704,0.0,0.0,0.0,0.0,0.0,0.0,0.0,0.0,0.0,-1.6581,-1.7508,-1.8977,-2.1047,-2.2165,-2.3437,-2.4797,-2.3243,-2.1288,-1.904,-1.7304,-1.5509,0.0,0.0,0.0,0.0,-1.6533,-1.6754,0.0,0.0,0.0,0.0,-1.8666,-1.9406,0.0,0.0,0.0,0.0,0.0,0.0,0.0,0.0,-1.8753,-1.8999,-1.9595,0.0,-2.2991,-2.2483,-2.2512,-2.2367,0.0,-2.1003,-2.0683,-1.9566,-1.9217,-1.9238,-1.978,-1.9301,-1.971,-2.2289,-2.1616,-2.1901,-2.5229,-2.6506,-2.7716,-2.9386,-2.9506,-2.9496,-2.9425,-2.9307,-2.9033,-2.8611,-2.8202,-2.8057,-2.8181,-2.8043,-2.8091,-2.82,-2.8669,-2.8921,-2.8921,-2.9412,-2.9652,-2.9663,-3.0493,-3.0898,-3.0919,-3.14,-3.1424,-3.1034,-3.0827,-3.0068,-2.8774,-2.8668,-2.8009,-2.6915,-2.5963,-2.5322,-2.477,-2.3784,-2.3239,-2.3014,0.0,0.0,0.0,0.0,0.0,0.0,0.0,0.0,0.0,0.0,0.0,0.0,0.0,0.0,0.0,0.0,0.0,0.0,0.0,0.0,0.0,0.0,0.0,-1.6239,-1.6581,-1.7697,-1.9154,-2.1014,-2.2267,-2.3825,-2.5661,-2.4665,-2.2813,-2.0186,-1.721,-1.548,0.0,0.0,0.0,-1.6174,-1.7122,0.0,0.0,0.0,0.0,0.0,-1.8985,-1.9537,0.0,-2.0001,-2.0422,-2.0799,0.0,0.0,0.0,0.0,-1.7751,-1.7751,-1.7751,-1.9827,-2.1902,-2.154,-2.1728,-2.1815,-2.1133,-2.0538,-1.9928,-1.9246,-1.8936,-1.8906,-1.921,-1.9415,-2.0007,-2.1315,-2.1914,-2.322,-2.6209,-2.7866,-2.9278,-3.0435,-3.0312,-3.0055,-2.9832,-2.9304,-2.8884,-2.8626,-2.8395,-2.8343,-2.8343,-2.8374,-2.8375,-2.8375,-2.8615,-2.8757,-2.8757,-2.9019,-2.915,-2.9161,-2.9893,-3.0253,-3.0264,-3.0756,-3.0773,-3.0269,-2.974,-2.8798,-2.7855,-2.7218,-2.637,-2.5351,-2.4723,-2.4293,-2.3896,-2.3239,-2.3014,-2.3014,0.0,0.0,0.0,0.0,0.0,0.0,0.0,0.0,0.0,0.0,0.0,0.0,0.0,0.0,0.0,0.0,0.0,0.0,0.0,0.0,0.0,0.0,0.0,-1.5732,-1.6685,-1.727,-1.8812,-2.1239,-2.2308,-2.3917,-2.603,-2.6288,-2.4383,-2.0655,-1.7071,-1.559,0.0,0.0,-1.6159,-1.732,-1.7615,0.0,0.0,0.0,0.0,0.0,0.0,0.0,0.0,-2.0567,-2.1148,-2.1481,-2.0204,0.0,0.0,0.0,0.0,0.0,-1.7156,-1.9382,-2.1643,-2.1439,-2.1599,-2.17,-2.1513,-2.0197,-1.8988,-1.8898,-1.874,-1.8623,-1.8797,-1.9793,-2.0411,-2.0009,-2.2274,-2.4826,-2.6769,-2.8414,-2.9641,-3.0254,-3.0304,-3.0173,-2.9699,-2.9063,-2.868,-2.868,-2.8723,-2.8689,-2.8689,-2.8804,-2.8757,-2.8757,-2.8757,-2.8757,-2.8757,-2.8757,-2.8757,-2.8861,-2.9248,-2.9489,-2.95,-2.9991,-2.9894,-2.9479,-2.8246,-2.7441,-2.6851,-2.5722,-2.4659,-2.3894,-2.3894,-2.3483,-2.2934,-2.2934,-2.2966,-2.3014,0.0,0.0,0.0,0.0,0.0,0.0,0.0,0.0,0.0,0.0,0.0,0.0,0.0,0.0,0.0,0.0,0.0,0.0,0.0,0.0,0.0,0.0,-1.4054,-1.5253,-1.7051,-1.7102,-1.8371,-2.0968,-2.3427,-2.5168,-2.6292,-2.7458,-2.5482,-2.0892,-1.9176,-1.7296,-1.549,-1.7052,-1.7194,-1.6535,-1.8179,0.0,0.0,0.0,0.0,0.0,0.0,0.0,0.0,-1.9551,-1.9841,-2.0175,-1.8898,0.0,0.0,0.0,0.0,0.0,-1.6986,-1.8737,-1.9992,-1.9022,-1.9709,-2.0373,-1.9256,-1.8789,-1.8461,-1.8068,-1.8562,-1.9464,-2.1003,-2.0258,-2.0372,-2.3324,-2.4785,-2.6049,-2.742,-2.8967,-3.0326,-3.1312,-3.1051,-3.0793,-3.0778,-2.9874,-2.917,-2.8804,-2.8789,-2.8729,-2.8729,-2.8806,-2.8757,-2.8757,-2.8757,-2.8757,-2.8757,-2.8757,-2.8757,-2.8861,-2.9248,-2.9489,-2.95,-2.9991,-2.9479,-2.8135,-2.7925,-2.6497,-2.4245,-2.4044,-2.3347,-2.236,-2.236,-2.2469,-2.2569,-2.2569,-2.276,-2.3014,0.0,0.0,0.0,0.0,0.0,0.0,0.0,0.0,0.0,0.0,0.0,0.0,0.0,0.0,0.0,0.0,0.0,0.0,0.0,0.0,0.0,-1.4485,-1.4769,-1.54,-1.6466,-1.8199,-2.0234,-2.2646,-2.5045,-2.6994,-2.8609,-2.7151,-2.4677,-2.1438,-1.9116,-1.7432,-1.6372,-1.6895,-1.7185,-1.7359,0.0,0.0,0.0,0.0,0.0,0.0,0.0,0.0,0.0,0.0,-1.9841,-1.9885,-1.8608,0.0,0.0,0.0,0.0,0.0,-1.6173,-1.7671,-1.8976,-1.8728,-2.0352,-2.1876,-2.1583,-2.1237,-2.0689,-1.992,-2.0123,-2.0677,-2.1411,-2.1693,-2.2801,-2.6186,-2.6346,-2.6615,-2.8306,-2.9448,-3.0374,-3.1144,-3.1288,-3.1258,-3.0938,-3.0079,-2.9393,-2.9209,-2.8943,-2.8757,-2.8757,-2.8757,-2.8757,-2.8757,-2.8757,-2.8757,-2.8757,-2.8757,-2.8757,-2.8757,-2.8986,-2.9095,-2.9095,-2.923,-2.8433,-2.7029,-2.6329,-2.4931,-2.3032,-2.2411,-2.2022,-2.1687,-2.1687,-2.1894,-2.222,-2.2418,-2.2585,-2.276,0.0,0.0,0.0,0.0,0.0,0.0,0.0,0.0,0.0,0.0,0.0,0.0,0.0,0.0,0.0,0.0,0.0,0.0,0.0,0.0,-1.3555,-1.513,-1.5817,-1.6511,-1.7372,-1.9809,-2.2266,-2.4736,-2.6886,-2.8807,-3.044,-2.7079,-2.4254,-2.1916,-1.9261,-1.7766,-1.7233,-1.6982,-1.7403,-1.8216,0.0,0.0,0.0,0.0,0.0,0.0,0.0,0.0,0.0,0.0,0.0,0.0,0.0,0.0,0.0,-1.6056,-1.5509,-1.5501,-1.5978,-1.6972,-1.8126,-1.8983,-2.0714,-2.2467,-2.348,-2.2873,-2.2011,-2.1696,-2.1797,-2.1964,-2.201,-2.3325,-2.5177,-2.7548,-2.7115,-2.7091,-2.8871,-2.9677,-3.0242,-3.0639,-3.1169,-3.1372,-3.0984,-3.0034,-2.9485,-2.9485,-2.9035,-2.8757,-2.8757,-2.8757,-2.8757,-2.8757,-2.8757,-2.8757,-2.8757,-2.8757,-2.8757,-2.8757,-2.8757,-2.8757,-2.8757,-2.8279,-2.7305,-2.5935,-2.4669,-2.3402,-2.2021,-2.1224,-2.1084,-2.133,-2.133,-2.1536,-2.1878,-2.2235,-2.2253,-2.2308,0.0,0.0,0.0,0.0,0.0,0.0,0.0,0.0,0.0,0.0,0.0,0.0,0.0,0.0,0.0,0.0,0.0,0.0,0.0,0.0,-1.3015,-1.3727,-1.6469,-1.9199,-2.1674,-2.1856,-2.3443,-2.6628,-2.8946,-3.0149,-3.0297,-2.8408,-2.5581,-2.2046,-2.1131,-1.9497,-1.7456,-1.8455,-1.8622,-1.8259,-1.8811,0.0,0.0,0.0,0.0,0.0,0.0,0.0,0.0,0.0,0.0,0.0,0.0,0.0,-1.7175,-1.6655,-1.6107,-1.5969,-1.7215,-1.7137,-1.7162,-1.892,-1.9206,-1.9649,-2.1982,-2.0929,-2.0015,-2.2024,-2.2662,-2.3058,-2.36,-2.4912,-2.5997,-2.6238,-2.7019,-2.7837,-2.8474,-2.9448,-3.0098,-3.0146,-3.0636,-3.0984,-3.0859,-3.0034,-2.9485,-2.9485,-2.9035,-2.8757,-2.8757,-2.8757,-2.8757,-2.8757,-2.8757,-2.8757,-2.8757,-2.8757,-2.8757,-2.8757,-2.8757,-2.8757,-2.8746,-2.7474,-2.6194,-2.4827,-2.3574,-2.2198,-2.1027,-2.0917,-2.0933,-2.0964,-2.0964,-2.1179,-2.1423,-2.1663,-2.1681,-2.162,0.0,0.0,0.0,0.0,0.0,0.0,0.0,0.0,0.0,0.0,0.0,0.0,0.0,0.0,0.0,0.0,0.0,0.0,0.0,0.0,-1.375,-1.5155,-1.7495,-1.9808,-2.2017,-2.3996,-2.6736,-3.035,-3.1638,-3.1877,-3.0953,-2.7584,-2.4747,-2.2513,-2.0248,-1.8979,-1.8462,-1.8506,-1.8637,-1.8782,-1.9014,-1.9101,0.0,0.0,0.0,0.0,0.0,0.0,0.0,0.0,-1.8114,-1.7842,-1.7421,-1.7423,-1.7319,-1.6437,-1.5757,-1.5455,-1.6093,-1.6449,-1.6967,-1.8462,-1.8843,-1.9547,-2.2175,-2.2861,-2.3213,-2.405,-2.4645,-2.4998,-2.5202,-2.6526,-2.7488,-2.7164,-2.7729,-2.8402,-2.8931,-2.9629,-3.0206,-3.0543,-3.1041,-3.1306,-3.0949,-3.0306,-2.9852,-2.9485,-2.9035,-2.8757,-2.8757,-2.8757,-2.8757,-2.8757,-2.8757,-2.8757,-2.8757,-2.8757,-2.8757,-2.8581,-2.8757,-2.8664,-2.8477,-2.72,-2.5828,-2.4571,-2.3203,-2.2013,-2.0925,-2.0925,-2.0925,-2.0925,-2.0719,-2.0703,-2.0851,-2.0984,-2.0994,-2.0964,0.0,0.0,0.0,0.0,0.0,0.0,0.0,0.0,0.0,0.0,0.0,0.0,0.0,0.0,0.0,0.0,0.0,0.0,-1.1593,-1.2517,-1.3745,-1.524,-1.7359,-1.9595,-2.1946,-2.4936,-2.8057,-3.1308,-3.2338,-3.199,-3.0234,-2.6591,-2.4297,-2.3152,-2.032,-1.9435,-1.9982,-1.9145,-1.9043,-1.9406,-1.9188,-1.9101,0.0,0.0,0.0,0.0,0.0,0.0,0.0,0.0,-1.7277,-1.7121,-1.6711,-1.6709,-1.675,-1.5955,-1.5694,-1.5663,-1.5815,-1.6239,-1.6983,-1.8362,-1.896,-1.9937,-2.2618,-2.3797,-2.465,-2.5829,-2.6081,-2.6202,-2.655,-2.7236,-2.7741,-2.7717,-2.8162,-2.8643,-2.9003,-2.9641,-3.0218,-3.0408,-3.1065,-3.1217,-3.0758,-3.0216,-2.9852,-2.9485,-2.9035,-2.8757,-2.8757,-2.8757,-2.8757,-2.8757,-2.8757,-2.8757,-2.8757,-2.8757,-2.856,-2.8196,-2.8164,-2.807,-2.7704,-2.6436,-2.5168,-2.389,-2.2619,-2.1623,-2.0925,-2.0925,-2.0925,-2.0917,-2.0617,-2.0584,-2.0604,-2.0513,-2.0552,-2.0612,0.0,0.0,0.0,0.0,0.0,0.0,0.0,0.0,-1.221,-1.221,-1.22,0.0,0.0,0.0,0.0,0.0,0.0,0.0,-1.133,-1.199,-1.27,-1.3365,-1.5835,-1.8695,-2.1873,-2.4442,-2.6707,-2.8681,-3.0568,-3.019,-2.7665,-2.5763,-2.4549,-2.3885,-2.1887,-2.1393,-2.1987,-2.0666,-2.0103,-2.0059,-1.9377,-1.9116,-1.9078,0.0,0.0,0.0,0.0,0.0,0.0,0.0,-1.6332,-1.5003,-1.6128,-1.5838,-1.5173,-1.5351,-1.606,-1.6782,-1.6782,-1.6791,-1.7181,-1.8694,-1.945,-2.0502,-2.3171,-2.2967,-2.3268,-2.6959,-2.6875,-2.6442,-2.7524,-2.6851,-2.6466,-2.7548,-2.8162,-2.851,-2.8522,-2.9424,-2.9905,-2.9482,-3.0302,-3.0668,-3.0216,-2.976,-2.9485,-2.9485,-2.9024,-2.8757,-2.8757,-2.8757,-2.8757,-2.8757,-2.8757,-2.8757,-2.8757,-2.8757,-2.8362,-2.7589,-2.7084,-2.6693,-2.633,-2.507,-2.389,-2.2785,-2.1514,-2.0925,-2.0925,-2.0925,-2.0925,-2.0917,-2.0617,-2.0732,-2.0922,-2.0393,-2.0382,-2.0595,0.0,0.0,0.0,0.0,0.0,0.0,0.0,0.0,-1.221,-1.221,-1.2195,0.0,0.0,0.0,0.0,0.0,0.0,0.0,-1.1293,-1.199,-1.27,-1.3365,-1.5835,-1.765,-1.8608,-2.1569,-2.495,-2.8681,-2.8797,-2.7998,-2.6315,-2.4413,-2.3412,-2.3165,-2.2149,-2.1582,-2.1262,-2.0436,-2.0349,-2.0669,-2.0059,-1.9627,-1.9322,0.0,0.0,0.0,0.0,0.0,0.0,0.0,0.0,0.0,-1.5082,-1.5736,-1.635,-1.5178,-1.5312,-1.5745,-1.5359,-1.6286,-1.7557,-1.8394,-2.0318,-2.2426,-2.3953,-2.4338,-2.5023,-2.726,-2.7765,-2.7777,-2.7729,-2.7765,-2.7777,-2.7729,-2.8162,-2.8643,-2.9015,-2.9082,-2.9295,-2.9879,-2.9957,-2.9814,-2.9726,-2.9577,-2.9393,-2.9024,-2.885,-2.8757,-2.8757,-2.8757,-2.8757,-2.8757,-2.8757,-2.8757,-2.8757,-2.8571,-2.7893,-2.6713,-2.6426,-2.6051,-2.5577,-2.4079,-2.3103,-2.2509,-2.142,-2.0925,-2.0925,-2.0925,-2.0925,-2.0917,-2.0617,-2.0473,-2.0373,-2.0189,-2.0134,-2.0089,0.0,0.0,0.0,0.0,0.0,0.0,-1.2216,-1.22,-1.22,-1.22,-1.22,-1.2159,0.0,0.0,0.0,-1.1437,-1.146,-1.1531,-1.1608,-1.211,-1.2816,-1.3729,-1.5487,-1.7055,-1.8332,-2.0988,-2.3325,-2.527,-2.5894,-2.5546,-2.4268,-2.3876,-2.3641,-2.3641,-2.3557,-2.2991,-2.2091,-2.122,-2.0792,-2.0654,-2.0039,-1.9525,-1.9073,0.0,0.0,0.0,0.0,0.0,0.0,0.0,0.0,0.0,-1.406,-1.46,-1.5422,-1.4955,-1.5501,-1.6244,-1.6593,-1.7703,-1.9081,-2.0254,-2.162,-2.3099,-2.4771,-2.5733,-2.655,-2.7524,-2.7981,-2.8162,-2.8053,-2.7956,-2.7925,-2.7818,-2.7897,-2.8125,-2.8432,-2.841,-2.8521,-2.8988,-2.8969,-2.8912,-2.8876,-2.8921,-2.8918,-2.8828,-2.8757,-2.8757,-2.8757,-2.8664,-2.8664,-2.8664,-2.8571,-2.8466,-2.8466,-2.829,-2.7715,-2.6542,-2.5858,-2.508,-2.451,-2.3302,-2.2409,-2.1827,-2.1224,-2.0925,-2.0925,-2.0925,-2.0925,-2.0917,-2.0617,-2.0385,-2.0307,-2.0204,-2.013,-2.0201,0.0,0.0,0.0,0.0,0.0,0.0,-1.2205,-1.2205,-1.2205,-1.2205,-1.2205,-1.2102,0.0,0.0,0.0,-1.1132,-1.1388,-1.1669,-1.1992,-1.2306,-1.3023,-1.4253,-1.5168,-1.7069,-2.0117,-2.1714,-2.1671,-1.9928,-2.241,-2.3006,-2.1859,-2.3775,-2.4641,-2.4728,-2.5357,-2.4907,-2.363,-2.225,-2.1126,-2.0161,-1.9474,-1.8962,-1.8528,-1.7576,0.0,0.0,0.0,0.0,0.0,0.0,0.0,0.0,-1.3198,-1.3052,-1.3276,-1.4578,-1.613,-1.7712,-1.9047,-2.0009,-2.1103,-2.3183,-2.3159,-2.3244,-2.5636,-2.6908,-2.7639,-2.7729,-2.7765,-2.7945,-2.8347,-2.7707,-2.7305,-2.7799,-2.7452,-2.7185,-2.7185,-2.7575,-2.7729,-2.7375,-2.7693,-2.7988,-2.7927,-2.7971,-2.8156,-2.8593,-2.8659,-2.8691,-2.8691,-2.856,-2.8395,-2.8395,-2.8092,-2.7998,-2.7998,-2.7998,-2.762,-2.686,-2.5178,-2.4007,-2.3229,-2.2627,-2.1827,-2.0925,-2.0925,-2.0925,-2.0925,-2.0925,-2.0925,-2.0917,-2.0617,-2.0493,-2.0551,-2.0264,-2.0345,-2.064,0.0,0.0,0.0,0.0,0.0,0.0,-1.2205,-1.2205,-1.2205,-1.2205,-1.2205,-1.2102,-1.1826,-1.1615,0.0,-1.1108,-1.1621,-1.1787,-1.1348,-1.2488,-1.3513,-1.4282,-1.6866,-1.9072,-2.077,-2.0233,-1.9493,-1.8622,-2.0625,-2.1235,-2.0553,-2.241,-2.3569,-2.4094,-2.4239,-2.3586,-2.228,-2.0223,-1.9438,-1.9543,-1.863,-1.8248,-1.816,-1.7534,-1.636,0.0,0.0,0.0,0.0,0.0,0.0,0.0,-1.3012,-1.346,-1.3958,-1.3398,-1.5229,-1.7303,-1.6763,-1.859,-2.0995,-2.2714,-2.4542,-2.6069,-2.6622,-2.7019,-2.7316,-2.7639,-2.8053,-2.8299,-2.8111,-2.7867,-2.7659,-2.7418,-2.7267,-2.7185,-2.7185,-2.6948,-2.6914,-2.7256,-2.7059,-2.7042,-2.7424,-2.7468,-2.7512,-2.761,-2.7981,-2.82,-2.82,-2.8283,-2.8395,-2.8395,-2.8092,-2.7998,-2.7998,-2.782,-2.7231,-2.6254,-2.4875,-2.3601,-2.2627,-2.1725,-2.1121,-2.0925,-2.0925,-2.0925,-2.0925,-2.0925,-2.0925,-2.0917,-2.0617,-2.0346,-2.0223,-2.0182,-2.0163,-2.004,0.0,0.0,0.0,0.0,0.0,0.0,0.0,0.0,-1.2226,-1.2246,-1.2143,-1.1976,-1.1768,-1.1505,0.0,0.0,-1.148,-1.1826,-1.2081,-1.2914,-1.3947,-1.5168,-1.7708,-1.913,-1.9174,-1.8535,-1.8042,-1.7722,-1.8375,-1.9029,-1.9667,-2.1859,-2.3235,-2.3905,-2.4005,-2.3005,-2.1169,-1.9486,-1.8589,-1.8303,-1.78,-1.751,-1.7295,-1.6741,-1.5681,-1.4487,-1.4075,0.0,0.0,0.0,0.0,0.0,0.0,0.0,-1.3678,-1.3782,-1.4983,-1.6452,-1.746,-1.9012,-2.0784,-2.2686,-2.4402,-2.5589,-2.5589,-2.6013,-2.6485,-2.6717,-2.7328,-2.7846,-2.7615,-2.7371,-2.7126,-2.694,-2.6693,-2.6539,-2.6539,-2.6373,-2.6318,-2.6583,-2.6447,-2.6463,-2.6933,-2.6988,-2.7075,-2.7293,-2.7555,-2.7687,-2.7687,-2.7575,-2.7532,-2.7532,-2.7366,-2.7389,-2.7492,-2.6938,-2.6456,-2.6051,-2.4187,-2.2811,-2.1725,-2.1121,-2.0925,-2.0925,-2.0925,-2.0925,-2.0925,-2.0925,-2.0925,-2.0917,-2.0617,-2.03,-2.0101,-1.9979,-1.994,-1.9813,0.0,0.0,0.0,0.0,0.0,0.0,0.0,0.0,0.0,-1.2287,-1.2096,-1.1869,-1.1725,-1.1576,-1.1442,0.0,0.0,0.0,-1.298,-1.3243,-1.4194,-1.598,-1.7693,-1.8158,-1.7229,-1.7098,-1.704,-1.704,-1.6409,-1.7141,-1.9152,-2.1485,-2.3028,-2.375,-2.3652,-2.2419,-2.0401,-1.8852,-1.7679,-1.6872,-1.6608,-1.6389,-1.6158,-1.5517,-1.4701,-1.3871,-1.3248,-1.306,-1.3073,-1.3126,0.0,0.0,0.0,0.0,-1.2889,-1.4117,-1.4725,-1.5552,-1.8133,-1.9539,-2.081,-2.296,-2.4016,-2.4476,-2.4568,-2.5158,-2.5709,-2.5789,-2.6531,-2.7185,-2.7103,-2.6764,-2.6445,-2.6456,-2.6135,-2.5895,-2.5895,-2.5895,-2.5895,-2.5895,-2.5895,-2.6059,-2.6463,-2.6507,-2.666,-2.7042,-2.7151,-2.7195,-2.7107,-2.6751,-2.6525,-2.6336,-2.633,-2.6372,-2.6383,-2.5767,-2.5577,-2.5751,-2.3502,-2.1928,-2.0925,-2.0925,-2.0925,-2.0925,-2.0925,-2.0925,-2.0925,-2.0925,-2.0925,-2.0917,-2.0514,-2.03,-2.0078,-1.9783,-1.965,-1.9689,0.0,0.0,0.0,0.0,0.0,0.0,0.0,0.0,0.0,0.0,-1.2159,-1.1991,-1.1725,-1.2039,-1.2187,-1.1978,-1.2573,-1.2767,-1.2356,0.0,0.0,-1.5371,-1.6184,-1.6779,-1.72,-1.6634,-1.6343,-1.6343,-1.5951,-1.6937,-1.9209,-2.0724,-2.2066,-2.3152,-2.1744,-2.0862,-2.0288,-1.6742,-1.5438,-1.5591,-1.4254,-1.4274,-1.4977,-1.3948,-1.3436,-1.3235,-1.2631,-1.2431,-1.2461,-1.2817,-1.2908,0.0,0.0,0.0,-1.207,-1.2241,-1.3612,-1.5001,-1.5049,-1.814,-2.1777,-2.3546,-2.4797,-2.5624,-2.6037,-2.5939,-2.5925,-2.633,-2.6849,-2.7103,-2.6693,-2.6528,-2.6373,-2.6063,-2.5895,-2.5895,-2.5895,-2.5895,-2.5895,-2.5895,-2.5895,-2.5928,-2.5994,-2.5994,-2.6026,-2.6081,-2.6474,-2.6628,-2.6455,-2.6579,-2.6156,-2.5037,-2.5189,-2.484,-2.4059,-2.418,-2.4285,-2.4384,-2.3111,-2.1928,-2.0925,-2.0925,-2.0925,-2.0925,-2.0925,-2.0925,-2.0925,-2.0925,-2.0925,-2.0814,-2.0395,-2.0078,-2.0086,-1.9583,-1.9405,-1.9381,0.0,0.0,0.0,0.0,0.0,0.0,0.0,0.0,0.0,0.0,0.0,-1.2028,-1.1748,-1.2042,-1.2263,-1.2252,-1.2546,-1.2784,-1.287,-1.313,-1.372,-1.4718,-1.4905,-1.5193,-1.5574,-1.495,-1.5035,-1.5909,-1.4762,-1.5827,-1.8963,-1.9195,-2.0487,-2.2509,-2.055,-1.932,-1.848,-1.5236,-1.3992,-1.4123,-1.3162,-1.3913,-1.5496,-1.3813,-1.3702,-1.4186,-1.2808,-1.2287,-1.2271,-1.246,-1.2628,-1.2803,-1.2803,0.0,0.0,0.0,-1.2337,-1.3285,-1.5522,-1.8643,-2.1709,-2.3738,-2.4633,-2.5083,-2.5284,-2.538,-2.5555,-2.5754,-2.6102,-2.6385,-2.6218,-2.6135,-2.6135,-2.5895,-2.5895,-2.5895,-2.5895,-2.5895,-2.5895,-2.5895,-2.5895,-2.5895,-2.5895,-2.5895,-2.5895,-2.5895,-2.6018,-2.5968,-2.5883,-2.5721,-2.5197,-2.4019,-2.4173,-2.3929,-2.3075,-2.2955,-2.2693,-2.2308,-2.1818,-2.1326,-2.0925,-2.0925,-2.0925,-2.0925,-2.0925,-2.0925,-2.0925,-2.0925,-2.0925,-2.0814,-2.0292,-2.0078,-2.0086,-1.948,-1.9279,-1.9323,0.0,0.0,0.0,0.0,0.0,0.0,0.0,0.0,0.0,0.0,0.0,-1.2125,-1.191,0.0,0.0,0.0,-1.2657,-1.286,-1.3365,-1.3315,-1.3464,-1.3939,-1.3768,-1.3698,-1.3799,-1.3308,-1.3642,-1.4882,-1.3732,-1.5038,-1.8552,-1.8208,-1.9529,-2.2075,-2.0051,-1.852,-1.7264,-1.4701,-1.3488,-1.3316,-1.3204,-1.4299,-1.5941,-1.4918,-1.5184,-1.5862,-1.3754,-1.298,-1.2883,-1.2467,-1.2521,-1.2768,-1.2768,-1.2285,0.0,0.0,0.0,-1.1981,-1.594,-1.8412,-2.0483,-2.3223,-2.405,-2.4314,-2.4738,-2.5109,-2.536,-2.536,-2.5644,-2.5895,-2.5895,-2.5895,-2.5895,-2.5895,-2.5895,-2.5895,-2.5895,-2.5895,-2.5895,-2.5895,-2.5895,-2.5895,-2.5895,-2.5812,-2.5812,-2.5812,-2.5644,-2.5475,-2.5391,-2.5126,-2.4327,-2.2999,-2.3248,-2.2919,-2.1897,-2.1664,-2.1312,-2.079,-2.0877,-2.0925,-2.0917,-2.0829,-2.0837,-2.0925,-2.0925,-2.0925,-2.0925,-2.0925,-2.0822,-2.0719,-2.0292,-2.0078,-1.9983,-1.948,-1.9279,-1.9323,0.0,0.0,0.0,0.0,0.0,0.0,0.0,0.0,0.0,0.0,0.0,-1.2234,-1.2347,-1.2283,-1.2506,-1.3292,-1.335,-1.335,-1.3394,-1.3394,-1.3262,-1.2995,-1.2653,0.0,-1.2412,-1.2192,-1.2287,-1.2675,-1.3351,-1.5136,-1.795,-1.8516,-1.9967,-2.2043,-2.0316,-1.8953,-1.7722,-1.5547,-1.4274,-1.3754,-1.4731,-1.5208,-1.5568,-1.7482,-1.8289,-1.8019,-1.5775,-1.4957,-1.4728,-1.318,-1.2685,-1.2709,-1.2709,-1.1998,-1.1135,0.0,0.0,0.0,-1.4611,-1.6218,-1.7963,-2.1788,-2.3094,-2.3851,-2.5486,-2.5852,-2.5863,-2.5863,-2.5884,-2.5895,-2.5895,-2.5895,-2.5895,-2.5895,-2.5895,-2.5895,-2.5895,-2.5895,-2.5895,-2.5895,-2.5895,-2.5895,-2.5895,-2.5728,-2.5654,-2.5654,-2.538,-2.5115,-2.4946,-2.4946,-2.3983,-2.1872,-2.2089,-2.1388,-1.9549,-2.0149,-2.05,-2.0424,-2.0766,-2.0925,-2.0909,-2.0575,-2.0607,-2.0925,-2.0925,-2.0925,-2.0925,-2.0925,-2.0719,-2.0522,-2.0189,-1.9983,-1.968,-1.9376,-1.9279,-1.9211,0.0,0.0,0.0,0.0,0.0,0.0,0.0,0.0,0.0,0.0,0.0,0.0,0.0,-1.2377,-1.2977,-1.3365,-1.3758,-1.3977,-1.3977,-1.3013,-1.2768,-1.3445,-1.2012,-1.1581,-1.2413,-1.1597,-1.1531,-1.2226,-1.2108,-1.3514,-1.6351,-1.6504,-1.7712,-1.9793,-1.8856,-1.8238,-1.7618,-1.4385,-1.3078,-1.3288,-1.4352,-1.5776,-1.7338,-1.8166,-1.9283,-2.0096,-1.7944,-1.6517,-1.5464,-1.4886,-1.4021,-1.3216,-1.3216,-1.1989,-1.0389,-0.9343,-1.0017,-1.1535,-1.3578,-1.5727,-1.7843,-2.0109,-2.2069,-2.3497,-2.3963,-2.5,-2.5895,-2.5895,-2.5895,-2.5895,-2.5895,-2.5895,-2.5895,-2.5895,-2.5895,-2.5895,-2.5895,-2.5895,-2.5812,-2.5728,-2.5738,-2.5644,-2.5464,-2.538,-2.538,-2.538,-2.5115,-2.468,-2.3963,-2.38,-2.2833,-2.0881,-2.0931,-2.0499,-1.9368,-1.9614,-1.9844,-2.0051,-2.0178,-2.0241,-2.0241,-2.0106,-2.0122,-2.0241,-2.0241,-2.0504,-2.0901,-2.0678,-2.0381,-2.0187,-1.9882,-1.957,-1.9388,-1.9302,-1.9411,-1.9488,0.0,0.0,0.0,0.0,0.0,0.0,0.0,0.0,-1.2499,-1.2608,0.0,0.0,0.0,0.0,-1.3168,-1.3394,-1.3557,-1.3646,-1.3592,-1.2397,-1.1955,-1.2623,-1.1329,-1.0975,-1.1851,-1.0791,-1.0596,-1.1281,-1.1047,-1.2133,-1.4422,-1.5004,-1.6259,-1.7983,-1.7029,-1.7029,-1.7543,-1.4829,-1.3582,-1.3545,-1.5502,-1.6723,-1.7665,-1.9752,-2.0894,-2.1211,-1.9915,-1.8558,-1.7339,-1.6824,-1.6095,-1.5187,-1.4368,-1.2329,-1.0053,-0.8814,-0.9704,-1.1399,-1.2854,-1.4839,-1.6945,-1.8963,-2.0353,-2.1731,-2.3312,-2.4314,-2.5109,-2.5764,-2.5895,-2.5895,-2.5895,-2.5895,-2.5895,-2.5895,-2.5895,-2.5895,-2.5895,-2.5812,-2.5728,-2.5654,-2.5559,-2.538,-2.52,-2.5115,-2.5115,-2.5115,-2.4861,-2.4433,-2.38,-2.3357,-2.2208,-2.0339,-1.9985,-1.957,-1.9185,-1.9312,-1.9487,-1.9701,-1.9812,-1.9868,-1.986,-1.9749,-1.9757,-1.986,-1.9749,-2.0027,-2.0551,-2.0213,-1.992,-1.9629,-1.943,-1.913,-1.8959,-1.9096,-1.925,-1.9252,0.0,0.0,0.0,0.0,0.0,0.0,0.0,0.0,-1.1844,-1.2413,0.0,0.0,0.0,0.0,0.0,-1.3455,-1.2874,-1.2384,-1.2213,-1.1542,-1.0916,-1.0421,0.0,0.0,-1.0585,-0.9729,-0.9413,-0.9686,-1.0257,-1.1102,-1.2184,-1.4169,-1.5715,-1.6715,-1.5047,-1.5465,-1.7424,-1.69,-1.575,-1.4639,-1.8229,-1.8193,-1.6548,-2.2306,-2.3244,-2.1524,-2.1524,-2.1163,-2.0469,-1.9006,-1.8703,-1.8514,-1.5998,-1.2953,-1.0192,-0.9653,-1.0264,-1.1363,0.0,0.0,0.0,-1.816,-1.8024,-1.8498,-2.3553,-2.3731,-2.3416,-2.5404,-2.5808,-2.5819,-2.5884,-2.5895,-2.5895,-2.5895,-2.5895,-2.5895,-2.5895,-2.5738,-2.5559,-2.557,-2.538,-2.52,-2.52,-2.5031,-2.4861,-2.4861,-2.4615,-2.4454,-2.4454,-2.3551,-2.2208,-2.0339,-1.9271,-1.8827,-1.8827,-1.9177,-1.9352,-1.936,-1.9677,-1.9836,-1.982,-1.9503,-1.9534,-1.9812,-1.9495,-1.9542,-1.9836,-1.956,-1.9372,-1.9086,-1.8777,-1.8481,-1.8328,-1.8657,-1.8789,-1.8578,0.0,0.0,0.0,0.0,0.0,-1.1936,-1.254,-1.2401,-1.2305,0.0,0.0,0.0,-1.1571,-1.3095,-1.4459,-1.5156,-1.4507,-1.3502,-1.2223,-1.0776,-1.009,-1.0309,-0.9724,-0.9566,-0.9946,-0.933,-0.9045,-0.9132,-0.9342,-0.9946,-1.0929,-1.1854,-1.3059,-1.4401,-1.3954,-1.4048,-1.4583,-1.3651,-1.3867,-1.4941,-1.6774,-1.8205,-1.9564,-2.2354,-2.3749,-2.4162,-2.3914,-2.3173,-2.2207,-2.1202,-1.9447,-1.7012,-1.3614,-1.1776,-1.063,-0.9417,-1.0298,-1.1664,-1.1699,0.0,0.0,0.0,0.0,0.0,-1.8135,-1.905,-2.0336,-2.3187,-2.3536,-2.3842,-2.5579,-2.5895,-2.5895,-2.5895,-2.5895,-2.5895,-2.5895,-2.5738,-2.5559,-2.5285,-2.5115,-2.4946,-2.47,-2.4625,-2.4625,-2.4625,-2.454,-2.4186,-2.3551,-2.1943,-2.052,-1.9271,-1.8912,-1.8827,-1.8827,-1.8931,-1.8978,-1.8978,-1.9074,-1.9113,-1.9113,-1.9026,-1.9026,-1.9113,-1.8839,-1.8769,-1.8871,-1.9106,-1.9016,-1.8735,-1.8446,-1.8148,-1.7991,-1.8321,-1.8738,-1.8815,0.0,0.0,-1.1638,-1.2176,-1.2374,-1.273,-1.3591,-1.3449,-1.3269,0.0,0.0,0.0,-1.356,-1.5138,-1.6118,-1.5965,-1.4634,-1.3078,-1.1378,-0.9625,-0.8684,-0.8709,-0.8595,-0.868,-0.8985,-0.8644,-0.8595,-0.8815,-0.8631,-0.8827,-0.9371,-1.0363,-1.1166,-1.1832,-1.2082,-1.2145,-1.2118,-1.1255,-1.2241,-1.4581,-1.7038,-1.8401,-1.9345,-2.2131,-2.3176,-2.3238,-2.3933,-2.3454,-2.2545,-2.2571,-2.0257,-1.7003,-1.4525,-1.2531,-1.0977,-1.0013,-1.0743,-1.1866,-1.1837,-1.2696,-1.3656,-1.3875,0.0,0.0,-1.7137,-1.7723,-1.8843,-2.2703,-2.3294,-2.3684,-2.5518,-2.5895,-2.5895,-2.5895,-2.5895,-2.5895,-2.5895,-2.5644,-2.538,-2.52,-2.4594,-2.4069,-2.3907,-2.356,-2.3299,-2.3299,-2.3299,-2.2931,-2.1943,-2.0872,-1.9812,-1.8827,-1.8827,-1.8827,-1.8827,-1.8827,-1.8827,-1.8827,-1.8827,-1.8827,-1.8827,-1.8827,-1.8735,-1.8658,-1.8574,-1.8481,-1.8303,-1.8394,-1.8384,-1.8195,-1.7911,-1.7713,-1.7655,-1.7977,-1.8124,-1.7928,0.0,0.0,-1.2159,-1.3384,-1.375,-1.4237,-1.5373,-1.4958,-1.4544,0.0,-1.4639,-1.5414,-1.752,-1.808,-1.7765,-1.638,-1.4087,-1.1948,-1.02,-0.8486,-0.7238,-0.6514,-0.7441,-0.799,-0.799,-0.7983,-0.8236,-0.8706,-0.8153,-0.7924,-0.8008,-0.9451,-0.9908,-0.9521,-1.0004,-1.0221,-1.0209,-0.9968,-1.1296,-1.393,-1.7855,-1.8515,-1.763,-2.1675,-2.2182,-2.0864,-2.2731,-2.288,-2.2296,-2.3108,-2.1075,-1.798,-1.6974,-1.4496,-1.1815,-1.1169,-1.1583,-1.2309,-1.2584,-1.2742,-1.3096,-1.4451,-1.3187,0.0,-1.7817,-1.7722,-1.7811,-2.2292,-2.3166,-2.3636,-2.4952,-2.5175,-2.5196,-2.5251,-2.5311,-2.5507,-2.5863,-2.5421,-2.5115,-2.5115,-2.3988,-2.3191,-2.3142,-2.2299,-2.1789,-2.1743,-2.1692,-2.1284,-2.0339,-2.0339,-1.9812,-1.8827,-1.8827,-1.8827,-1.8827,-1.8827,-1.8827,-1.8827,-1.8827,-1.8827,-1.8827,-1.8743,-1.8658,-1.8481,-1.8481,-1.8288,-1.7994,-1.7815,-1.7628,-1.7628,-1.7426,-1.7232,-1.7174,-1.75,-1.7134,-1.6332,-1.163,-1.2207,-1.2977,-1.3507,-1.4711,-1.6055,-1.7331,-1.6518,-1.6105,-1.7054,-1.6769,-1.7692,-2.0955,-1.9494,-1.8198,-1.7973,-1.5408,-1.2718,-1.0173,-0.8684,-0.7437,-0.6379,-0.7355,-0.7922,-0.7922,-0.8332,-0.861,-0.8706,-0.8153,-0.8117,-0.8561,-0.8875,-0.9187,-0.9497,-0.9605,-0.9653,-0.9749,-1.1375,-1.2948,-1.4367,-1.5231,-1.7208,-1.9874,-2.1472,-2.2651,-2.3429,-2.3541,-2.3625,-2.3532,-2.2252,-2.0952,-1.9419,-1.6612,-1.6089,-1.5842,-1.2611,-1.3233,-1.4747,-1.342,-1.3479,-1.3721,-1.3102,-1.3198,0.0,-1.2499,-1.2827,-1.3984,-1.6353,-1.6894,-1.7629,-2.0172,-2.0686,-2.0817,-2.113,-2.1792,-2.3129,-2.5539,-2.5131,-2.4626,-2.4626,-2.4148,-2.3596,-2.3227,-2.273,-2.2272,-2.1858,-2.1541,-2.0995,-2.0331,-2.0339,-1.9812,-1.8827,-1.8827,-1.8827,-1.8827,-1.8827,-1.8827,-1.8827,-1.8827,-1.8827,-1.8827,-1.8658,-1.8574,-1.8481,-1.8009,-1.7822,-1.7721,-1.7527,-1.7527,-1.7628,-1.7426,-1.685,-1.6123,-1.6332,-1.6038,-1.5214,-1.2305,-1.3237,-1.4424,-1.5333,-1.6368,-1.7567,-1.9067,-1.8507,-1.8221,-1.9089,-1.9469,-2.0111,-2.1385,-2.0359,-1.9127,-1.7893,-1.5541,-1.2969,-1.0319,-0.8766,-0.7452,-0.6343,-0.7335,-0.802,-0.8308,-0.8285,-0.8682,-0.9499,-0.8417,-0.8165,-0.8718,-0.897,-0.9702,-1.0759,-0.988,-0.9987,-1.0783,-1.0738,-1.1529,-1.3059,-1.5519,-1.825,-2.0888,-2.1658,-2.2656,-2.3604,-2.3372,-2.3446,-2.3447,-2.2251,-2.0926,-1.9469,-1.7984,-1.7307,-1.6543,-1.3701,-1.4071,-1.5043,-1.3457,-1.3323,-1.3488,-1.333,-1.3122,0.0,0.0,-1.26,-1.3188,-1.5877,-1.5839,-1.6113,-1.8881,-1.893,-1.883,-1.9922,-2.0881,-2.1833,-2.285,-2.3413,-2.3822,-2.3995,-2.333,-2.2734,-2.2503,-2.1511,-2.061,-1.9911,-1.9643,-1.9408,-1.9074,-1.9082,-1.8734,-1.8131,-1.8131,-1.821,-1.8201,-1.8201,-1.8286,-1.8458,-1.8458,-1.8458,-1.8458,-1.8473,-1.8388,-1.8102,-1.8001,-1.7714,-1.7434,-1.685,-1.6662,-1.6756,-1.6567,-1.5988,-1.5064,-1.5259,-1.4841,-1.4197,-1.2784,-1.3918,-1.5432,-1.6584,-1.7708,-1.8877,-2.0297,-2.0057,-1.9957,-2.0502,-2.1605,-2.2119,-2.1392,-2.1312,-2.0432,-1.8321,-1.62,-1.384,-1.125,-0.9506,-0.8215,-0.741,-0.7612,-0.8237,-0.9297,-0.8477,-0.8682,-0.9992,-0.8802,-0.8429,-0.885,-0.9307,-1.0191,-1.1398,-1.055,-1.0712,-1.1572,-1.0173,-1.0691,-1.2755,-1.6482,-1.8877,-2.0412,-2.1216,-2.1924,-2.2399,-2.2595,-2.2617,-2.2553,-2.2101,-2.0825,-1.9281,-1.91,-1.8209,-1.6785,-1.4731,-1.4865,-1.5303,-1.3725,-1.3413,-1.3605,-1.3874,-1.3272,-1.2857,0.0,0.0,0.0,-1.5788,-1.5372,-1.5255,-1.7517,-1.7074,-1.6885,-1.8376,-1.9458,-1.99,-1.9174,-2.05,-2.1773,-2.2426,-2.2149,-2.1797,-2.1381,-1.9824,-1.8556,-1.7738,-1.7507,-1.7499,-1.7755,-1.7684,-1.7604,-1.7445,-1.7437,-1.7482,-1.7476,-1.7476,-1.7652,-1.7987,-1.7987,-1.8025,-1.8087,-1.8288,-1.8102,-1.7721,-1.79,-1.7707,-1.7232,-1.6466,-1.5893,-1.5514,-1.5514,-1.4873,-1.4087,-1.426,-1.3814,-1.3137,-1.1864,-1.315,-1.458,-1.4624,-1.7351,-1.9727,-2.0386,-2.0134,-2.0145,-2.0836,-2.1904,-2.2773,-2.3206,-2.2858,-2.2316,-2.1618,-1.9365,-1.6836,-1.4036,-1.2071,-1.1099,-1.1255,-0.8646,-0.8549,-1.1459,-0.9622,-0.8706,-0.8899,-0.9187,-0.9341,-0.9401,-0.9461,-0.9353,-0.9195,-1.15,-1.1618,-1.0274,-1.2036,-1.4328,-1.6738,-1.6222,-1.6447,-1.7255,-1.9048,-1.9906,-2.0341,-2.1118,-2.1395,-2.1324,-2.0961,-2.0642,-2.0091,-1.8093,-1.8705,-1.9353,-1.5572,-1.6163,-1.7571,-1.5427,-1.5349,-1.5386,-1.3368,-1.383,-1.3904,-1.0794,0.0,-1.1798,-1.1236,0.0,-1.1491,-1.2488,0.0,0.0,-1.3228,-1.4175,-1.4924,-1.5339,-1.6035,-1.71,-1.8649,-2.1114,-2.1998,-2.0154,-1.8773,-1.7796,-1.7383,-1.6412,-1.63,-1.7447,-1.7342,-1.7159,-1.7159,-1.7159,-1.7182,-1.7133,-1.7133,-1.73,-1.7636,-1.7636,-1.7797,-1.8087,-1.7908,-1.7729,-1.7721,-1.752,-1.7333,-1.7326,-1.7138,-1.6082,-1.4459,-1.4459,-1.3928,-1.3181,-1.342,-1.2946,-1.2235,-1.2359,-1.4118,-1.5371,-1.4543,-1.6491,-1.8368,-1.9066,-2.024,-2.1172,-2.1488,-2.2205,-2.2807,-2.3157,-2.2392,-2.1693,-2.1259,-1.9732,-1.7492,-1.4506,-1.3548,-1.2437,-1.1039,-0.968,-0.9596,-1.0942,-0.9331,-0.8689,-0.9175,-0.8926,-0.8878,-0.9043,-0.9341,-0.991,-1.0721,-1.1879,-1.2639,-1.3082,-1.2966,-1.3567,-1.4637,-1.4346,-1.453,-1.5361,-1.9036,-2.0394,-2.0306,-2.0629,-2.0672,-2.043,-2.0245,-1.9781,-1.9261,-1.8746,-1.8962,-1.8877,-1.6579,-1.6722,-1.735,-1.5594,-1.5515,-1.5597,-1.4112,-1.4066,-1.3755,-1.1401,-1.0912,-1.0941,-1.09,0.0,0.0,0.0,0.0,0.0,0.0,-1.3434,-1.3983,-1.3389,-1.4933,-1.6441,-1.7222,0.0,0.0,-1.7927,-1.7162,-1.6806,-1.6924,-1.5734,-1.5539,-1.6752,-1.6738,-1.6569,-1.6314,-1.6314,-1.6327,-1.6364,-1.6364,-1.6705,-1.7213,-1.7213,-1.7288,-1.743,-1.7632,-1.7524,-1.7261,-1.7446,-1.7138,-1.6372,-1.5798,-1.4644,-1.3307,-1.2732,-1.2397,-1.2138,-1.2347,-1.2263,-1.2172,-1.2493,-1.4154,-1.5048,-1.4108,-1.5447,-1.6983,-1.8,-1.981,-2.117,-2.1516,-2.1977,-2.2455,-2.2862,-2.2429,-2.1977,-2.1668,-2.0842,-1.918,-1.6447,-1.5381,-1.4351,-1.3031,-1.1287,-1.0645,-1.1352,-0.9436,-0.8521,-0.8663,-0.8321,-0.8376,-0.8795,-0.8963,-0.9747,-1.1045,-1.1801,-1.2916,-1.4185,-1.351,-1.3641,-1.4343,-1.4194,-1.4683,-1.5881,-1.898,-2.0062,-1.9972,-1.9885,-1.9659,-1.9335,-1.9224,-1.8715,-1.8245,-1.8806,-1.8666,-1.8178,-1.7429,-1.7381,-1.7319,-1.6104,-1.5964,-1.5863,-1.4515,-1.3947,-1.3295,-1.1668,-1.1044,-1.0835,-1.1094,-1.0648,0.0,0.0,0.0,-1.0785,-1.2003,0.0,-1.2922,-1.1901,-1.3339,-1.4634,0.0,0.0,0.0,0.0,-1.5408,-1.5386,-1.6102,-1.4855,-1.4767,-1.6226,-1.6229,-1.6064,-1.5658,-1.5658,-1.5693,-1.5782,-1.5782,-1.6052,-1.6601,-1.6601,-1.6645,-1.6733,-1.6875,-1.6805,-1.6493,-1.6629,-1.6202,-1.5317,-1.4555,-1.3692,-1.263,-1.1868,-1.1558,-1.1619,-1.1761,-1.1987,-1.2243,-1.1595,-1.217,-1.2603,-1.2562,-1.4333,-1.6231,-1.7768,-1.8522,-1.93,-2.0463,-2.1043,-2.1762,-2.2902,-2.3818,-2.4386,-2.435,-2.4032,-2.3053,-2.132,-1.8195,-1.7439,-1.97,-1.3737,-1.1557,-1.3993,-1.0586,-0.8068,-0.6595,-0.7411,-0.8203,-0.8969,-0.8204,-0.8021,-0.8461,-1.1148,-1.2016,-1.1476,-1.3755,-1.6315,-1.8645,-1.709,-1.789,-1.9822,-1.8146,-1.8058,-1.8692,-1.8282,-1.8031,-1.798,-1.7595,-1.7449,0.0,-1.7512,-1.7787,-1.8127,-1.8052,-1.8348,-1.8458,-1.7642,-1.7422,-1.678,-1.402,-1.3323,-1.2681,-1.033,-1.0965,-1.1777,-1.0885,-1.2042,-1.2905,-1.2026,-1.1659,-1.1426,-1.1366,-1.0822,0.0,0.0,-0.9896,-0.9848,0.0,0.0,0.0,0.0,-1.3676,-1.3534,0.0,-1.3598,-1.389,-1.6024,-1.5824,-1.5658,-1.5431,-1.5431,-1.5431,-1.5445,-1.5445,-1.5613,-1.5943,-1.5943,-1.6104,-1.6382,-1.5493,-1.5194,-1.5351,-1.4446,-1.4227,-1.4364,-1.4268,-1.3692,-1.2727,-1.263,-1.2328,-1.1808,-1.1813,-1.2077,-1.2432,-1.2116,-1.3011,-1.3201,-1.1574,-1.2764,-1.4556,-1.6486,-1.8044,-1.934,-2.0442,-2.1027,-2.191,-2.3393,-2.385,-2.4311,-2.4963,-2.4584,-2.3508,-2.1536,-1.9873,-1.8826,-1.8541,-1.4971,-1.3101,-1.3404,-1.1031,-0.9065,-0.7618,-0.7773,-0.7928,-0.8055,-0.7611,-0.755,-0.791,-1.0278,-1.1937,-1.3101,-1.4458,-1.5722,-1.6797,-1.6191,-1.7149,-1.8811,-1.9116,-1.8866,-1.8201,-1.804,-1.7627,0.0,-1.6993,-1.6949,-1.7083,-1.7375,-1.732,-1.7268,-1.7543,-1.7729,-1.7805,-1.723,-1.7495,-1.7378,-1.5069,-1.4061,-1.3126,-1.1323,-1.1498,-1.1776,-1.068,-1.1972,-1.2973,-1.1844,-1.1705,-1.1657,-1.1331,-1.1093,-1.0666,0.0,-0.9504,-0.9504,0.0,0.0,0.0,0.0,0.0,0.0,0.0,-1.4138,0.0,-1.5996,-1.5997,-1.5756,-1.5431,-1.5431,-1.5431,-1.5431,-1.5431,-1.5592,-1.5913,-1.5913,-1.5972,-1.6074,-1.6008,-1.5499,-1.4803,-1.4826,-1.4204,-1.3081,-1.3143,-1.2635,-1.1688,-1.184,-1.1875,-1.1817,-1.1817,-1.2082,-1.2441,-1.2455,-1.3044,-1.3108,-1.1777,-1.2681,-1.4207,-1.6046,-1.7835,-1.9384,-2.0478,-2.0949,-2.1737,-2.3209,-2.3387,-2.3771,-2.4613,-2.4376,-2.3467,-2.1942,-2.0941,-1.9876,-1.8815,-1.6732,-1.5192,-1.4231,-1.2266,-1.051,-0.9012,-0.8237,-0.7939,-0.8099,-0.7368,-0.717,-0.7537,-0.9211,-1.1217,-1.3323,-1.445,-1.5587,-1.674,-1.6595,-1.7107,-1.8171,0.0,-1.8735,-1.7763,0.0,-1.731,-1.673,-1.673,-1.6742,-1.683,-1.7236,-1.7229,-1.7113,-1.7516,-1.7648,-1.7595,-1.7132,-1.7424,-1.7418,-1.5556,-1.4616,-1.3778,-1.2048,-1.2455,-1.2761,-1.1379,-1.257,-1.3555,-1.2848,-1.2259,-1.1825,-1.1757,-1.1012,-1.0057,0.0,-0.8748,-0.8922,0.0,0.0,0.0,0.0,0.0,0.0,0.0,0.0,0.0,0.0,-1.6108,-1.5922,-1.5499,-1.5431,-1.5431,-1.5431,-1.5431,-1.5365,-1.522,-1.522,-1.5127,-1.4778,-1.4616,-1.4213,-1.3454,-1.3622,-1.2949,-1.1847,-1.2068,-1.177,-1.1217,-1.1435,-1.1638,-1.1827,-1.1902,-1.2148,-1.2441,-1.2618,-1.2388,-1.244,-1.3094,-1.3999,-1.5069,-1.6414,-1.7941,-1.9324,-2.0409,-2.076,-2.1287,-2.2345,-2.2587,-2.2949,-2.3455,-2.3478,-2.3248,-2.273,-2.1436,-2.07,-2.0722,-1.9,-1.7571,-1.6494,-1.4136,-1.2154,-1.0575,-0.8743,-0.8246,-0.8995,-0.7442,-0.6859,-0.7178,-0.8051,-0.9842,-1.2232,-1.3812,-1.6095,-1.862,-1.8121,-1.7942,-1.7925,-1.7951,-1.7712,-1.7344,-1.7413,-1.7066,-1.673,-1.673,-1.673,-1.682,-1.7229,-1.7392,-1.7473,-1.7797,-1.7951,-1.7874,-1.7499,-1.7397,-1.7056,-1.5475,-1.5009,-1.4478,-1.2556,-1.3698,-1.4655,-1.3011,-1.3775,-1.4859,-1.4925,-1.3165,-1.1919,-1.2447,-1.0624,-0.8647,-0.7315,-0.7723,-0.8026,0.0,0.0,0.0,0.0,0.0,0.0,0.0,0.0,0.0,0.0,-1.5909,-1.5913,-1.5733,-1.5499,-1.5431,-1.5431,-1.5431,-1.4999,-1.4139,-1.4139,-1.362,-1.276,-1.1832,-1.144,-1.1577,-1.0928,-1.0782,-1.0896,-1.1109,-1.1194,-1.1217,-1.1444,-1.1661,-1.1869,-1.2077,-1.2276,-1.2441,-1.3902,-1.3822,-1.4015,-1.4613,-1.4001,-1.4293,-1.6786,-1.731,-1.813,-1.9991,-2.0391,-2.0915,-2.192,-2.243,-2.2949,-2.3455,-2.3156,-2.2811,-2.2673,-2.1382,-2.0803,-2.1195,-1.9499,-1.8265,-1.7728,-1.4848,-1.2829,-1.1841,-0.9791,-0.8546,-0.8109,-0.7409,-0.6785,-0.6348,-0.7479,-0.9683,-1.2608,-1.3575,-1.5437,-1.7716,-1.7635,-1.7379,-1.7163,0.0,-1.7553,-1.6959,-1.726,-1.7066,-1.673,-1.673,-1.673,-1.673,-1.682,-1.6894,-1.6894,-1.6976,-1.731,-1.7448,-1.7025,-1.7162,-1.7254,-1.6511,-1.5667,-1.4849,-1.4351,-1.4865,-1.5129,-1.3772,-1.5,-1.5704,-1.3968,-1.3203,-1.2493,-1.1499,-1.0187,-0.9253,-0.9115,0.0,0.0,-0.9679,0.0,0.0,0.0,0.0,0.0,0.0,0.0,0.0,0.0,0.0,-1.4873,-1.5959,-1.5922,-1.5831,-1.5658,-1.5658,-1.5416,-1.509,-1.4398,-1.3971,-1.3711,-1.2766,-1.1952,-1.1348,-1.1493,-1.1246,-1.0683,-1.1047,-1.1194,-1.1231,-1.16,-1.1959,-1.2285,-1.2342,-1.2394,-1.2441,-1.4614,-1.4881,-1.5219,-1.5485,-1.5109,-1.5499,-1.7535,-1.744,-1.781,-1.9622,-2.0079,-2.0421,-2.0967,-2.1891,-2.2644,-2.2925,-2.2689,-2.243,-2.2217,-2.1675,-2.1196,-2.0842,-2.0497,-2.0006,-1.9382,-1.6824,-1.4989,-1.4013,-1.1061,-0.9124,-0.8097,-0.7123,-0.6347,-0.5808,-0.7175,-0.9123,-1.1544,-1.369,-1.5382,-1.6645,-1.6952,-1.6936,0.0,-1.722,-1.7171,-1.6782,-1.6993,-1.6894,-1.673,-1.673,-1.673,-1.673,-1.673,-1.673,-1.673,-1.673,-1.6902,-1.7066,-1.6738,-1.6902,-1.7017,-1.6806,-1.6218,-1.5681,-1.5375,-1.5571,-1.5605,-1.4761,-1.523,-1.5602,-1.4872,-1.3625,-1.2191,-1.0463,-0.9679,-0.9171,-0.8871,0.0,0.0,0.0,-0.9315,0.0,0.0,0.0,0.0,0.0,0.0,0.0,0.0,0.0,-1.4715,-1.6191,-1.6024,-1.5771,-1.5409,-1.5097,-1.4594,-1.3893,-1.3203,-1.2687,-1.226,-1.174,-1.1235,-1.0748,-1.1201,-1.1027,-1.0608,-1.1023,-1.125,-1.1378,-1.1794,-1.2153,-1.2441,-1.2441,-1.2441,-1.2441,-1.4835,-1.5457,-1.5933,-1.5602,-1.6355,-1.7296,-1.8317,-1.8051,-1.8185,-1.9561,-1.9896,-2.0046,-2.0113,-2.1336,-2.2226,-2.2226,-2.216,-2.1942,-2.1516,-2.1953,-2.1658,-2.0325,-2.1533,-2.1778,-2.0989,-1.8965,-1.7265,-1.592,-1.2272,-0.9713,-0.8231,-0.6812,-0.5875,-0.5461,-0.7095,-0.8658,-1.0382,-1.413,-1.5688,-1.5762,-1.6445,-1.673,-1.673,-1.673,-1.673,-1.673,-1.673,-1.673,-1.673,-1.673,-1.673,-1.673,-1.673,-1.673,-1.673,-1.673,-1.673,-1.673,-1.673,-1.673,-1.673,-1.673,-1.673,-1.65,-1.5891,-1.5992,-1.6198,-1.5821,-1.5251,-1.5235,-1.6293,-1.422,-1.1727,-0.9822,-0.9435,-0.9128,0.0,0.0,0.0,0.0,0.0,0.0,0.0,0.0,0.0,0.0,0.0,0.0,0.0,0.0,-1.4696,-1.6429,-1.5871,-1.5434,-1.5108,-1.4365,-1.3361,-1.2219,-1.1655,-1.0982,-1.0294,-1.0038,-1.0038,-1.0062,-1.0362,-1.0546,-1.0608,-1.1023,-1.1354,-1.1633,-1.1997,-1.2261,-1.2441,-1.2441,-1.2441,-1.2441,-1.4471,-1.4953,-1.5295,-1.445,-1.5474,-1.6938,-1.8733,-1.8843,-1.9157,-2.0295,-2.062,-2.0885,-2.1224,-2.1574,-2.1712,-2.1712,-2.1352,-2.1079,-2.1059,-2.1439,-2.1603,-2.1352,-2.1514,-2.148,-2.1311,-1.8622,-1.6367,-1.4464,-1.2337,-0.9793,-0.6931,-0.6967,-0.642,-0.5461,-0.7095,-0.96,-1.2721,-1.5112,-1.622,-1.6557,-1.6659,-1.673,-1.673,-1.673,-1.673,-1.673,-1.673,-1.673,-1.673,-1.673,-1.673,-1.673,-1.673,-1.673,-1.673,-1.673,-1.673,-1.673,-1.673,-1.673,-1.673,-1.673,-1.673,-1.669,-1.65,-1.6589,-1.6613,-1.6557,-1.6445,-1.6094,-1.5454,0.0,-1.2505,-1.1039,-1.0774,-1.104,0.0,0.0,0.0,0.0,0.0,-1.0542,0.0,0.0,0.0,0.0,0.0,0.0,0.0,0.0,-1.3439,0.0,-1.6011,-1.5465,0.0,0.0,-1.4047,-1.3372,-1.2336,-1.1843,-1.1585,-1.0467,-1.0038,-1.0052,-1.0216,-1.0423,-1.0608,-1.1023,-1.1524,-1.2039,-1.211,-1.2261,-1.2441,-1.2441,-1.2441,-1.2441,-1.54,-1.5881,-1.6299,-1.6114,-1.7269,-1.8559,-1.9508,-2.0006,-2.0467,-2.0742,-2.0841,-2.085,-2.0839,-2.1516,-2.1865,-2.1614,-2.1374,-2.1341,-2.1603,-2.1538,-2.1514,-2.1514,-2.1365,-2.1192,-2.0892,-1.9236,-1.7195,-1.4795,-1.2579,-1.004,-0.7193,-0.6365,-0.5753,-0.5497,-0.7528,-0.9951,-1.2685,-1.4748,-1.5815,-1.6132,-1.6516,-1.673,-1.673,-1.673,-1.673,-1.673,-1.673,-1.6857,-1.7016,-1.7016,-1.7016,-1.7048,-1.7215,-1.7151,-1.7016,-1.7016,-1.6881,-1.673,-1.673,-1.673,-1.673,-1.673,-1.673,-1.673,-1.673,-1.673,-1.673,-1.673,-1.673,-1.6437,-1.5511,-1.4082,0.0,0.0,-1.1651,0.0,0.0,0.0,-1.1882,0.0,0.0,0.0,0.0,0.0,0.0,0.0,0.0,0.0,0.0,0.0,-1.2592,0.0,0.0,0.0,-1.4352,0.0,-1.3246,-1.2841,-1.1781,-1.1241,-1.1241,-1.0381,-1.0038,-1.0052,-1.0178,-1.039,-1.0622,-1.1255,-1.1765,-1.2042,-1.1715,-1.1593,-1.1673,-1.1227,-1.1008,-1.1118,-1.6558,-1.6915,-1.7299,-1.7772,-1.8888,-1.9813,-1.9911,-2.0806,-2.133,-2.1046,-2.0994,-2.0762,-2.0412,-2.1385,-2.1854,-2.1472,-2.129,-2.1382,-2.1761,-2.1376,-2.1177,-2.1177,-2.1085,-2.0775,-2.0361,-1.9802,-1.8171,-1.5446,-1.3072,-1.0581,-0.8036,-0.61,-0.5579,-0.6394,-0.8564,-1.0677,0.0,0.0,-1.5414,-1.5883,-1.6485,-1.673,-1.673,-1.673,-1.673,-1.673,-1.673,-1.6969,-1.7278,-1.7278,-1.7326,-1.7413,-1.7604,-1.7485,-1.7278,-1.7278,-1.7072,-1.6849,-1.6849,-1.6849,-1.6833,-1.6754,-1.673,-1.673,-1.673,-1.6675,-1.6619,-1.6619,-1.6619,-1.6381,-1.5559,-1.4449,0.0,0.0,-1.2521,0.0,0.0,0.0,-1.304,0.0,0.0,0.0,-0.9797,0.0,0.0,0.0,0.0,0.0,-1.1895,0.0,0.0,0.0,0.0,-1.3588,-1.3274,0.0,-1.238,-1.202,-1.1128,-1.0722,-1.0722,-1.0207,-1.0038,-1.0047,-1.013,-1.0395,-1.0764,-1.151,-1.1864,-1.1791,-1.1289,-1.1017,-1.0684,-1.0017,-0.9775,-0.9859,-1.7134,-1.707,-1.7067,-1.7322,-1.8056,-1.8787,-1.9356,-2.0303,-2.1068,-2.1472,-2.1134,-2.1013,-2.1417,-2.1177,-2.0981,-2.1005,-2.0439,-2.0107,-2.0149,-2.0359,-2.0511,-2.0511,-2.0399,-2.0294,-2.0178,-1.9631,-1.811,-1.5643,-1.3985,-1.1691,-0.894,-0.7244,-0.7436,-0.9278,-1.0565,0.0,0.0,-1.5324,-1.592,-1.6595,-1.6698,-1.673,-1.673,-1.673,-1.673,-1.673,-1.673,-1.6969,-1.7278,-1.7278,-1.7477,-1.7676,-1.7405,-1.731,-1.7278,-1.7278,-1.7254,-1.7231,-1.7231,-1.7231,-1.7151,-1.6818,-1.673,-1.673,-1.673,-1.6484,-1.6254,-1.6254,-1.6254,-1.5936,-1.4887,-1.5594,-1.5626,0.0,-1.3811,-1.4411,0.0,0.0,-1.3675,-1.3926,0.0,0.0,0.0,-0.7845,0.0,0.0,0.0,0.0,0.0,0.0,0.0,-1.33,-1.2668,-1.2164,-1.1913,-1.2395,-1.256,-1.2266,-1.1566,-1.1241,-1.1241,-1.0381,-1.0038,-1.0038,-1.0062,-1.0423,-1.1175,-1.1628,-1.1521,-1.1214,-1.1122,-1.0574,-0.9908,-0.9798,-0.9708,-0.9478,-1.7676,-1.7555,-1.7755,-1.8463,-1.8812,-1.9358,-2.0555,-2.0795,-2.0926,-2.0986,-2.1174,-2.1254,-2.1166,-2.0981,-2.074,-2.0456,-2.0069,-2.0069,-2.0341,-2.0086,-2.0019,-2.0283,-1.9915,-1.9548,-1.932,-1.9082,-1.7837,-1.5659,-1.3663,-1.1773,-0.9917,-0.8523,-0.9011,-1.1073,-1.229,-1.3646,-1.5056,-1.592,-1.6429,-1.673,-1.673,-1.673,-1.673,-1.673,-1.673,-1.6762,-1.6984,-1.7278,-1.7604,-1.7819,-1.7842,-1.7747,-1.7612,-1.7572,-1.7572,-1.7572,-1.7572,-1.7572,-1.7572,-1.7429,-1.7247,-1.7096,-1.6897,-1.673,-1.673,-1.6627,-1.646,-1.6246,-1.6134,-1.5858,-1.5443,-1.4743,-1.4187,-1.4062,-1.3711,-1.377,-1.4764,0.0,0.0,-1.5427,0.0,-1.3376,0.0,0.0,0.0,0.0,0.0,0.0,0.0,0.0,0.0,-1.1477,0.0,-1.2189,-1.1583,-1.2034,-1.2307,-1.2365,-1.1354,-1.0895,-1.0895,-1.0294,-1.0109,-1.0154,-1.0272,-1.0375,-1.0538,-1.0826,-1.0725,-1.0213,-0.9658,-0.9364,-0.891,-0.8388,-0.8106,-0.7954,-1.8555,-1.8442,-1.8592,-1.9356,-1.9435,-1.9717,-2.0866,-2.0736,-2.0441,-2.0307,-2.0744,-2.0899,-2.0619,-2.0653,-2.0511,-2.0107,-1.9954,-1.9998,-2.04,-1.9775,-1.9542,-1.9766,-1.939,-1.8922,-1.8531,-1.8451,-1.7752,-1.6283,-1.4264,-1.2755,-1.1805,-1.0464,-1.0854,-1.2742,-1.3688,-1.4622,-1.5541,-1.6397,-1.673,-1.673,-1.673,-1.673,-1.673,-1.673,-1.6802,-1.6929,-1.7191,-1.7556,-1.7946,-1.8097,-1.8049,-1.7906,-1.7803,-1.7842,-1.7906,-1.7803,-1.7842,-1.7922,-1.7922,-1.7755,-1.7556,-1.7445,-1.7231,-1.7016,-1.6913,-1.681,-1.6553,-1.587,-1.5561,-1.5438,-1.5205,-1.3775,-1.295,-1.3689,-1.3243,-1.304,-1.4121,-1.4873,-1.5478,-1.5717,-1.4702,-1.365,-1.2804,-1.0815,0.0,0.0,0.0,0.0,0.0,0.0,0.0,0.0,0.0,0.0,-1.1534,-1.1885,-1.2226,-1.2409,-1.1258,-1.0702,-1.0549,-0.9946,-0.9623,-0.9642,-0.9837,-0.9858,-0.9648,-1.0006,-0.973,-0.9147,-0.8649,-0.8348,-0.7974,-0.7231,-0.694,-0.6883,-1.9905,-1.9738,-1.958,-1.9575,-1.9396,-1.9341,-1.956,-1.9615,-1.9615,-1.9615,-1.9626,-1.9692,-1.9878,-2.002,-2.0085,-2.0085,-1.9893,-1.9693,-1.9693,-1.9449,-1.9143,-1.878,-1.87,-1.8451,-1.804,-1.804,-1.8031,-1.8006,-1.6326,-1.5323,-1.4926,-1.33,-1.3223,-1.4385,-1.4812,-1.563,-1.6706,-1.6722,-1.673,-1.673,-1.673,-1.673,-1.673,-1.673,-1.6961,-1.727,-1.7278,-1.7715,-1.824,-1.7898,-1.8009,-1.8232,-1.7882,-1.8009,-1.8224,-1.7874,-1.8017,-1.8295,-1.8295,-1.8287,-1.82,-1.7858,-1.7763,-1.7676,-1.735,-1.6992,-1.6293,-1.4801,-1.4486,-1.4253,-1.3464,-1.3188,-1.273,-1.1958,-1.2473,-1.3046,-1.3119,-1.3064,-1.3301,-1.4101,-1.1689,-1.0451,-1.1696,-0.8991,0.0,0.0,0.0,0.0,0.0,0.0,0.0,-1.0375,-1.0438,0.0,-1.1528,-1.207,-1.2314,-1.2409,-1.1431,-1.0858,-1.0549,-0.9414,-0.8549,-0.8,-0.8266,-0.8523,-0.8851,-0.9175,-0.8878,-0.8281,-0.8426,-0.7856,-0.6986,-0.6986,-0.6831,-0.6641,-2.0006,-2.0064,-2.0065,-1.9286,-1.9327,-1.955,-1.9605,-1.9605,-1.9539,-1.9407,-1.9473,-1.9666,-1.9917,-1.9873,-1.9747,-1.9747,-1.9121,-1.8864,-1.9083,-1.8434,-1.8154,-1.8193,-1.8201,-1.804,-1.7635,-1.7554,-1.7473,-1.7139,-1.5624,-1.4863,-1.4749,-1.4219,-1.4696,-1.5982,-1.6094,-1.6397,-1.673,-1.673,-1.6881,-1.7104,-1.7104,-1.7239,-1.7437,-1.6931,-1.7086,-1.7557,-1.7363,-1.7675,-1.8319,-1.8281,-1.8308,-1.8339,-1.7987,-1.8037,-1.8279,-1.816,-1.8383,-1.8661,-1.8661,-1.8486,-1.8271,-1.816,-1.7954,-1.7747,-1.7636,-1.6722,-1.5613,-1.4954,-1.4054,-1.3188,-1.2837,-1.2236,-1.1742,-1.15,-1.1691,-1.182,-1.1833,-1.2539,-1.3144,-1.3382,-1.2261,-1.1667,-1.2093,-1.0007,0.0,0.0,0.0,0.0,0.0,0.0,0.0,0.0,-1.0448,0.0,-1.0839,-1.084,-1.0905,-1.1047,-0.9701,-0.8988,-0.8812,-0.8576,-0.8387,-0.8173,-0.8332,-0.8233,-0.8041,-0.8241,-0.7836,-0.7171,-0.739,-0.7233,-0.6986,-0.6986,-0.6937,-0.6874,-2.0437,-2.0373,-2.0102,-1.9158,-1.9217,-1.947,-1.9638,-1.967,-1.9666,-1.9698,-1.9787,-1.9823,-1.9696,-1.954,-1.965,-2.008,-1.898,-1.846,-1.9029,-1.8234,-1.7712,-1.7789,-1.7797,-1.7554,-1.7147,-1.7147,0.0,-1.673,-1.5856,-1.5352,-1.5352,-1.5352,-1.5896,-1.673,-1.673,-1.673,-1.6746,-1.6881,-1.7072,-1.7286,-1.7413,-1.7588,-1.7771,-1.7247,-1.7508,-1.7905,-1.7686,-1.7939,-1.836,-1.8495,-1.8388,-1.8342,-1.8026,-1.8047,-1.8198,-1.8245,-1.8549,-1.8827,-1.8827,-1.8669,-1.8403,-1.8123,-1.7959,-1.7586,-1.7003,-1.6001,-1.4925,-1.413,-1.3231,-1.2464,-1.1781,-1.1193,-1.084,-1.0927,-1.0865,-1.0952,-1.1476,-1.2025,-1.2313,-1.2266,-1.1891,0.0,0.0,-1.011,-0.9309,0.0,0.0,0.0,0.0,0.0,-0.8741,-0.9252,-1.0663,-1.1305,-1.1214,-1.0515,-1.0274,-1.0487,-0.8977,-0.7998,-0.7629,-0.7726,-0.7712,-0.7583,-0.7671,-0.7498,-0.7141,-0.728,-0.7027,-0.6643,-0.6891,-0.6956,-0.6921,-0.697,-0.6956,-0.6923,-2.1095,-2.0582,-1.9955,-1.925,-1.9147,-1.9313,-1.9737,-1.981,-1.9955,-2.0369,-2.042,-2.0145,-1.938,-1.9234,-1.9618,-2.0831,-1.9182,-1.847,-1.9288,-1.8417,-1.7691,-1.7392,-1.731,-1.7147,-1.6738,-1.673,-1.673,-1.673,-1.673,-1.673,-1.673,-1.673,-1.673,-1.673,-1.673,-1.6746,-1.6794,-1.7135,-1.731,-1.7374,-1.7683,-1.7819,-1.7842,-1.7755,-1.796,-1.8335,-1.8245,-1.8375,-1.8481,-1.8481,-1.8288,-1.8087,-1.8087,-1.8087,-1.8118,-1.8249,-1.8474,-1.8735,-1.8643,-1.8643,-1.845,-1.7684,-1.7498,-1.713,-1.5629,-1.4891,-1.4141,-1.2677,-1.2221,-1.1791,-1.0505,-1.013,-1.006,-1.0263,-1.0126,-1.048,-1.1608,-1.1487,-1.1179,-1.1068,-1.0724,0.0,-0.9637,-0.9537,-0.9591,0.0,0.0,0.0,0.0,0.0,-0.8719,-1.0939,-1.093,-1.1324,-1.222,-1.0886,-1.0223,-1.0223,-0.8721,-0.7705,-0.7039,-0.7045,-0.6739,-0.6268,-0.6276,-0.6339,-0.6445,-0.6559,-0.6605,-0.663,-0.6866,-0.6896,-0.6817,-0.694,-0.6918,-0.6842,-2.106,-2.0796,-2.0396,-1.9729,-1.9882,-2.0141,-2.0245,-2.0265,-2.0307,-2.041,-2.042,-2.0483,-2.0614,-1.9522,-1.9279,-2.052,-1.8513,-1.7362,-1.7803,-1.7063,-1.6694,-1.6886,-1.6902,-1.6812,-1.673,-1.673,-1.673,-1.673,-1.673,-1.673,-1.673,-1.673,-1.673,-1.673,-1.673,-1.6889,-1.7159,-1.7247,-1.7494,-1.7807,-1.7885,-1.7983,-1.7934,-1.7559,-1.7804,-1.8349,-1.778,-1.7933,-1.8481,-1.8009,-1.7815,-1.7815,-1.7815,-1.7815,-1.78,-1.808,-1.8203,-1.8079,-1.7311,-1.7117,-1.6835,-1.5873,-1.5677,-1.5569,-1.5119,-1.4212,-1.336,-1.2791,-1.1921,-1.1125,-1.0634,-1.0461,-1.0442,-1.0494,-1.0456,-1.0548,-1.0833,-1.0847,-1.0774,-1.0751,-1.0636,-1.0527,-1.0389,-0.9763,-0.9152,0.0,0.0,-0.7891,-0.7518,-0.7406,-0.8418,-1.0649,-1.0277,-1.0116,-1.0305,-0.8987,-0.797,-0.7378,-0.6952,-0.6698,-0.6517,-0.6508,-0.6519,-0.6274,-0.6361,-0.6412,-0.6439,-0.6467,-0.648,-0.6494,-0.6646,-0.6747,-0.6817,-0.694,-0.7021,-0.7076,-2.0805,-2.0249,-1.9703,-1.952,-1.9685,-1.9981,-2.0535,-2.0596,-2.0668,-2.1031,-2.1062,-2.0997,-2.0858,-2.0042,-1.9434,-1.9335,-1.7787,-1.7021,-1.7601,-1.6838,-1.6532,-1.6722,-1.673,-1.673,-1.673,-1.673,-1.673,-1.673,-1.6905,-1.6984,-1.6984,-1.7135,-1.7207,-1.7207,-1.7207,-1.7318,-1.7517,-1.7589,-1.7705,-1.7869,-1.7933,-1.8018,-1.8087,-1.78,-1.7613,-1.7606,-1.7131,-1.685,-1.6662,-1.6372,-1.6183,-1.6183,-1.6183,-1.6183,-1.6183,-1.6271,-1.6842,-1.7217,-1.6163,-1.588,-1.5684,-1.4734,-1.4262,-1.3884,-1.3692,-1.3119,-1.2512,-1.2188,-1.15,-1.0967,-1.0759,-1.0721,-1.0721,-1.0721,-1.0721,-1.0754,-1.0844,-1.0858,-1.0825,-1.0731,-1.0435,-1.0113,-1.0027,-0.9363,-0.8607,-0.8045,-0.7903,0.0,-0.7523,-0.7756,-0.8516,-0.9566,-0.9291,-0.9188,-0.9275,-0.8185,-0.7232,-0.6437,-0.6437,-0.6404,-0.6347,-0.6407,-0.6401,-0.6347,-0.641,-0.6437,-0.6437,-0.6437,-0.6469,-0.6532,-0.6654,-0.6779,-0.6902,-0.7018,-0.71,-0.7154,-2.0602,-1.9571,-1.8839,-1.9153,-1.9334,-1.9747,-2.0642,-2.0805,-2.1063,-2.1603,-2.1731,-2.1415,-2.0702,-2.0469,-1.9825,-1.839,-1.7367,-1.7049,-1.7755,-1.7041,-1.6648,-1.6648,-1.6648,-1.6648,-1.673,-1.6786,-1.6841,-1.6889,-1.7199,-1.7358,-1.7358,-1.7644,-1.7771,-1.7771,-1.7771,-1.7715,-1.7779,-1.7819,-1.7794,-1.7682,-1.778,-1.7707,-1.7512,-1.7606,-1.703,-1.6271,-1.6271,-1.5602,-1.4555,-1.4555,-1.4459,-1.4268,-1.4268,-1.4268,-1.4268,-1.4076,-1.5026,-1.5785,-1.4918,-1.4536,-1.425,-1.3686,-1.3033,-1.2467,-1.1975,-1.1883,-1.178,-1.1292,-1.1194,-1.1142,-1.0972,-1.0943,-1.091,-1.0816,-1.0882,-1.0967,-1.1047,-1.1039,-1.0937,-1.077,-1.0066,-0.9523,-0.937,-0.86,-0.8124,-0.8124,-0.8147,-0.8222,-0.8222,-0.835,-0.8361,-0.8225,-0.8319,-0.8384,-0.8425,-0.773,-0.7033,-0.6437,-0.6437,-0.6437,-0.6437,-0.6437,-0.6437,-0.6437,-0.6437,-0.6437,-0.6437,-0.6437,-0.6507,-0.663,-0.6733,-0.6861,-0.6997,-0.7095,-0.7141,-0.7154,-2.0549,-2.018,-1.9823,-1.9273,-1.9847,-2.0474,-2.0616,-2.0949,-2.1201,-2.1272,-2.1282,-2.1205,-2.1128,-2.0469,-1.9904,-1.9659,-1.8158,-1.7115,-1.6714,-1.6558,-1.6476,-1.6476,-1.6476,-1.6566,-1.673,-1.704,-1.7334,-1.7612,-1.7668,-1.7691,-1.7691,-1.7747,-1.7684,-1.743,-1.743,-1.7497,-1.7596,-1.7643,-1.7187,-1.6504,-1.6459,-1.5893,-1.4937,-1.5127,-1.5032,-1.4937,-1.4937,-1.4746,-1.4555,-1.4364,-1.4364,-1.4268,-1.4268,-1.4268,-1.4076,-1.321,-1.3113,-1.3301,-1.3108,-1.2441,-1.177,-1.1678,-1.1487,-1.1389,-1.1292,-1.1292,-1.1292,-1.1198,-1.1194,-1.1184,-1.1156,-1.1146,-1.0976,-1.0456,-1.0811,-1.0976,-1.0485,-1.0296,-1.0207,-1.0177,-0.9383,-0.8973,-0.8849,-0.8157,-0.7664,-0.7664,-0.709,-0.6705,-0.6705,-0.6722,-0.6725,-0.6705,-0.74,-0.7409,-0.6734,-0.6637,-0.6537,-0.6437,-0.6437,-0.6437,-0.6437,-0.6437,-0.6437,-0.6437,-0.6437,-0.6437,-0.6437,-0.6437,-0.6507,-0.6622,-0.6641,-0.6785,-0.6989,-0.7013,-0.7078,-0.7157,-1.9759,-1.9364,-1.899,-1.8884,-1.9261,-1.9697,-2.0312,-2.0552,-2.0761,-2.1175,-2.0799,-2.0469,-2.0469,-1.9737,-1.9009,-1.8541,-1.7827,-1.6944,-1.6064,-1.6323,-1.6514,-1.6514,-1.6769,-1.6955,-1.7047,-1.7126,-1.7195,-1.7342,-1.7609,-1.7702,-1.7702,-1.7889,-1.7892,-1.7802,-1.7802,-1.7796,-1.785,-1.7766,-1.7101,-1.619,-1.5994,-1.5317,-1.4268,-1.4364,-1.4076,-1.3596,-1.3596,-1.321,-1.2732,-1.2635,-1.2635,-1.2635,-1.2635,-1.2635,-1.2543,-1.2058,-1.1868,-1.1868,-1.1868,-1.158,-1.1194,-1.1194,-1.1194,-1.1194,-1.1194,-1.1194,-1.1194,-1.1194,-1.1194,-1.1194,-1.1194,-1.1194,-1.1104,-1.0816,-1.0624,-1.0414,-1.0147,-0.966,-0.9324,-0.9324,-0.8627,-0.8127,-0.8127,-0.7431,-0.6933,-0.6933,-0.6637,-0.6437,-0.6437,-0.6437,-0.6437,-0.6437,-0.6734,-0.6734,-0.6437,-0.6437,-0.6437,-0.6437,-0.6437,-0.6437,-0.6437,-0.6437,-0.6437,-0.6439,-0.6507,-0.6502,-0.6361,-0.6484,-0.657,-0.6527,-0.6695,-0.6832,-0.71,-0.7103,-0.6345,-0.5481,-1.9431,-1.8854,-1.8504,-1.8428,-1.8574,-1.8887,-1.9871,-2.0068,-2.0371,-2.0991,-2.0479,-1.9982,-1.9747,-1.9177,-1.8372,-1.7504,-1.7261,-1.6772,-1.5974,-1.6231,-1.6428,-1.6505,-1.699,-1.7381,-1.7458,-1.7201,-1.7158,-1.7234,-1.7568,-1.7697,-1.7697,-1.7964,-1.8087,-1.7994,-1.7994,-1.7994,-1.79,-1.7714,-1.7052,-1.6096,-1.5893,-1.5222,-1.4268,-1.398,-1.3403,-1.2635,-1.2441,-1.1868,-1.1194,-1.1194,-1.1194,-1.1194,-1.1194,-1.1194,-1.1194,-1.1194,-1.1194,-1.1194,-1.1194,-1.1194,-1.1194,-1.1194,-1.1194,-1.1194,-1.1194,-1.1194,-1.1194,-1.1194,-1.1194,-1.1194,-1.1194,-1.1096,-1.0854,-1.0711,-1.0125,-0.9678,-0.955,-0.8951,-0.8528,-0.8528,-0.7829,-0.7332,-0.7332,-0.6734,-0.6437,-0.6437,-0.6437,-0.6437,-0.6437,-0.6437,-0.6437,-0.6437,-0.6437,-0.6437,-0.6437,-0.6437,-0.6437,-0.6437,-0.6437,-0.645,-0.6478,-0.6478,-0.6494,-0.6428,-0.6624,-0.6619,-0.6463,-0.6027,-0.5797,-0.5721,-0.5911,-0.6116,-0.6434,-0.698,-0.5721,-0.3805,-2.0291,-1.9966,-1.9518,-1.8251,-1.8379,-1.8789,-1.9268,-1.9668,-2.0068,-2.0585,-2.0566,-2.0245,-1.945,-1.9301,-1.8895,-1.7997,-1.718,-1.6698,-1.6617,-1.6224,-1.5992,-1.6234,-1.673,-1.7232,-1.7627,-1.7537,-1.7697,-1.801,-1.8033,-1.8048,-1.8048,-1.8071,-1.8001,-1.7721,-1.7721,-1.7621,-1.7333,-1.7333,-1.6756,-1.5798,-1.5798,-1.5222,-1.4172,-1.321,-1.2727,-1.2538,-1.1673,-1.1292,-1.1194,-1.1194,-1.1194,-1.1194,-1.1194,-1.1194,-1.1194,-1.1194,-1.1194,-1.1194,-1.1194,-1.1194,-1.1194,-1.1194,-1.1194,-1.1194,-1.1194,-1.1194,-1.1194,-1.1194,-1.1194,-1.1194,-1.1194,-1.0605,-0.9947,-0.9321,-0.9001,-0.8661,-0.8107,-0.7859,-0.773,-0.773,-0.6933,-0.6537,-0.6537,-0.6434,-0.6437,-0.6437,-0.6437,-0.6437,-0.6437,-0.6437,-0.6437,-0.6437,-0.6437,-0.6437,-0.6437,-0.6437,-0.6437,-0.6437,-0.6437,-0.6497,-0.6605,-0.6605,-0.6567,-0.6679,-0.669,-0.6695,-0.6598,-0.4324,-0.3405,-0.3456,-0.346,-0.361,-0.4118,-0.6331,-0.5725,-0.3357,-1.9694,-1.9441,-1.911,-1.8144,-1.8144,-1.8389,-1.8818,-1.9023,-1.9365,-2.0068,-1.9697,-1.9329,-1.9274,-1.8816,-1.8158,-1.7269,-1.6862,-1.646,-1.5906,-1.5708,-1.5963,-1.6825,-1.707,-1.7301,-1.7619,-1.752,-1.7487,-1.7613,-1.7613,-1.7613,-1.7613,-1.7613,-1.752,-1.7426,-1.7426,-1.7426,-1.7326,-1.7326,-1.6749,-1.5798,-1.5798,-1.5222,-1.4268,-1.3884,-1.3307,-1.2635,-1.2247,-1.177,-1.1194,-1.1194,-1.1194,-1.1194,-1.1194,-1.1194,-1.1194,-1.1194,-1.1194,-1.1194,-1.1194,-1.1194,-1.1194,-1.1194,-1.1194,-1.1194,-1.1194,-1.1194,-1.1194,-1.1194,-1.1194,-1.1194,-1.1194,-1.0507,-0.9947,-0.9731,-0.88,-0.7967,-0.7701,-0.7233,-0.6833,-0.6833,-0.6637,-0.6437,-0.6437,-0.6437,-0.6437,-0.6437,-0.6437,-0.6437,-0.6437,-0.6437,-0.6437,-0.6437,-0.6437,-0.6437,-0.6437,-0.6513,-0.6551,-0.6551,-0.6529,-0.6591,-0.6637,-0.6747,-0.6777,-0.6719,-0.5163,-0.5302,-0.6526,-0.5922,-0.3962,-0.1252,-0.1265,-0.0806,-0.0459,-0.2168,-0.1922,-0.0672,-1.9639,-1.9375,-1.9044,-1.8134,-1.8008,-1.8154,-1.8574,-1.8562,-1.8896,-1.9619,-1.9298,-1.9028,-1.9072,-1.8656,-1.8078,-1.7188,-1.6862,-1.646,-1.5824,-1.5686,-1.6007,-1.6944,-1.7103,-1.7323,-1.7527,-1.7426,-1.7326,-1.7326,-1.7326,-1.7326,-1.7326,-1.7326,-1.7326,-1.7326,-1.7326,-1.7326,-1.7326,-1.7326,-1.6943,-1.6271,-1.5893,-1.5412,-1.4746,-1.4076,-1.3307,-1.263,-1.2344,-1.177,-1.1194,-1.1194,-1.1194,-1.1194,-1.1194,-1.1194,-1.1194,-1.1194,-1.1194,-1.1194,-1.1194,-1.1194,-1.1194,-1.1194,-1.1194,-1.1194,-1.1194,-1.1194,-1.1194,-1.1194,-1.1194,-1.1194,-1.1194,-1.0507,-0.992,-0.9624,-0.8524,-0.7531,-0.7232,-0.6734,-0.6437,-0.6437,-0.6437,-0.6437,-0.6437,-0.6437,-0.6437,-0.6437,-0.6437,-0.6437,-0.6437,-0.6437,-0.6437,-0.6437,-0.6437,-0.6437,-0.6437,-0.6556,-0.6603,-0.6573,-0.6698,-0.635,-0.5636,-0.5642,-0.6095,-0.6792,-0.5142,-0.4407,-0.4424,-0.4807,-0.3013,-0.0,0.0469,0.105,0.1724,0.0915,0.068,0.1009,-2.0355,-2.0096,-1.9649,-1.8269,-1.8008,-1.8154,-1.8494,-1.8562,-1.8789,-1.9228,-1.9648,-1.9525,-1.8696,-1.9054,-1.8966,-1.8078,-1.7188,-1.6698,-1.6698,-1.6216,-1.6045,-1.6352,-1.6682,-1.7004,-1.7318,-1.7326,-1.7326,-1.7326,-1.7326,-1.7326,-1.7326,-1.7326,-1.7326,-1.7326,-1.7326,-1.7326,-1.7326,-1.7326,-1.7326,-1.7232,-1.6177,-1.5798,-1.5602,-1.3494,-1.2732,-1.2538,-1.158,-1.1194,-1.1194,-1.1194,-1.1194,-1.1194,-1.1194,-1.1194,-1.1194,-1.1194,-1.1194,-1.1194,-1.1194,-1.1194,-1.1194,-1.1194,-1.1194,-1.1194,-1.1194,-1.1194,-1.1194,-1.1194,-1.1194,-1.1194,-1.1194,-1.0511,-0.9723,-0.8924,-0.8127,-0.7332,-0.6537,-0.6437,-0.6437,-0.6437,-0.6437,-0.6437,-0.6437,-0.6437,-0.6437,-0.6437,-0.6437,-0.6437,-0.6437,-0.6437,-0.6437,-0.6437,-0.6437,-0.6437,-0.6437,-0.6559,-0.6567,-0.6366,-0.6581,-0.5435,-0.3186,-0.3186,-0.4621,-0.7147,-0.7157,-0.4379,-0.0,-0.0,-0.0,0.0118,0.1296,0.175,0.1837,0.1806,0.1458,0.1009,-2.1008,-2.042,-1.977,-1.871,-1.8114,-1.7832,-1.7829,-1.7858,-1.8002,-1.8423,-1.8586,-1.8737,-1.9032,-1.921,-1.9077,-1.855,-1.7674,-1.6609,-1.5387,-1.5161,-1.5191,-1.5583,-1.6378,-1.6901,-1.6996,-1.7216,-1.7326,-1.7326,-1.7326,-1.7326,-1.7326,-1.7326,-1.7326,-1.7326,-1.7326,-1.7326,-1.7232,-1.656,-1.6278,-1.6177,-1.5127,-1.4746,-1.4651,-1.4076,-1.3403,-1.263,-1.2344,-1.177,-1.1194,-1.1194,-1.1194,-1.1194,-1.1194,-1.1194,-1.1194,-1.1194,-1.1194,-1.1194,-1.1194,-1.1194,-1.1194,-1.1194,-1.1194,-1.1194,-1.1194,-1.1194,-1.1194,-1.1194,-1.1194,-1.0998,-1.0507,-0.9719,-0.8924,-0.8127,-0.7332,-0.6634,-0.6434,-0.6437,-0.6437,-0.6437,-0.6437,-0.6437,-0.6437,-0.6437,-0.6437,-0.6437,-0.6437,-0.6437,-0.6437,-0.6034,-0.5834,-0.5834,-0.5834,-0.5634,-0.5236,-0.6149,-0.6608,-0.6584,-0.5229,-0.5081,-0.5871,-0.2481,-0.1415,-0.2191,-0.2116,-0.0897,0.1122,0.1134,0.0917,0.0695,0.1043,0.1386,0.1839,0.183,0.17,0.157,-2.0869,-2.0226,-1.9507,-1.871,-1.8046,-1.7588,-1.7539,-1.747,-1.7555,-1.7802,-1.7981,-1.8275,-1.8786,-1.9137,-1.92,-1.8967,-1.824,-1.7098,-1.5394,-1.5228,-1.5154,-1.5007,-1.576,-1.6325,-1.6569,-1.6886,-1.7052,-1.7052,-1.7145,-1.7153,-1.7153,-1.7239,-1.7326,-1.7326,-1.7326,-1.7326,-1.7232,-1.6662,-1.6372,-1.6278,-1.5134,-1.4848,-1.4746,-1.389,-1.3216,-1.2635,-1.2252,-1.1673,-1.1194,-1.1194,-1.1194,-1.1194,-1.1194,-1.1194,-1.1194,-1.1194,-1.1194,-1.1194,-1.1194,-1.1194,-1.1194,-1.1194,-1.1194,-1.1194,-1.1194,-1.0998,-1.0806,-1.1096,-1.0703,-1.0207,-1.0019,-0.9324,-0.8524,-0.773,-0.7232,-0.6734,-0.6437,-0.6437,-0.6437,-0.6437,-0.6234,-0.6037,-0.6037,-0.5934,-0.5737,-0.5737,-0.6137,-0.6234,-0.5837,-0.5634,-0.5534,-0.5336,-0.5236,-0.5135,-0.4834,-0.5496,-0.6146,-0.6567,-0.4065,-0.326,-0.3904,-0.1066,0.0322,0.0322,0.0328,0.066,0.1321,0.1551,0.1458,0.1253,0.1253,0.148,0.1823,0.1823,0.181,0.1795,-2.0537,-1.9759,-1.9177,-1.8462,-1.794,-1.7539,-1.747,-1.747,-1.747,-1.747,-1.7792,-1.8038,-1.8076,-1.8684,-1.9174,-1.925,-1.8837,-1.7925,-1.6296,-1.6057,-1.5643,-1.4817,-1.5035,-1.5374,-1.5937,-1.6371,-1.656,-1.6588,-1.6878,-1.6979,-1.6979,-1.7145,-1.7239,-1.7239,-1.7239,-1.7239,-1.7232,-1.7138,-1.7138,-1.6951,-1.5622,-1.5235,-1.5222,-1.3033,-1.236,-1.2344,-1.1482,-1.1194,-1.1096,-1.1194,-1.1194,-1.1194,-1.1194,-1.1194,-1.1194,-1.1194,-1.1194,-1.1194,-1.1096,-1.1096,-1.1096,-1.0998,-1.0998,-1.0998,-1.1096,-1.0511,-1.0117,-1.0801,-0.9813,-0.9023,-0.9624,-0.9225,-0.8425,-0.763,-0.7531,-0.7232,-0.6437,-0.6337,-0.6337,-0.6237,-0.5834,-0.5536,-0.5536,-0.5135,-0.4834,-0.4834,-0.5737,-0.5834,-0.4834,-0.5236,-0.5236,-0.4734,-0.4734,-0.4634,-0.4533,-0.4634,-0.5142,-0.6163,-0.3274,-0.0928,0.0827,0.083,0.0831,0.0832,0.0847,0.0853,0.0959,0.1406,0.1649,0.1675,0.1675,0.179,0.1795,0.1795,0.1795,0.1795,-2.1729,-2.0719,-1.9704,-1.8977,-1.8327,-1.7666,-1.7116,-1.7047,-1.7047,-1.7047,-1.7121,-1.7296,-1.7602,-1.7796,-1.8165,-1.8813,-1.8426,-1.7674,-1.6617,-1.5966,-1.5477,-1.5228,-1.4871,-1.4751,-1.4879,-1.577,-1.635,-1.6588,-1.6683,-1.6683,-1.6683,-1.6777,-1.677,-1.677,-1.677,-1.677,-1.6676,-1.5913,-1.5622,-1.5432,-1.3516,-1.2743,-1.2646,-1.1389,-1.09,-1.0895,-1.09,-1.0703,-1.0609,-1.0806,-1.0998,-1.1194,-1.1194,-1.1194,-1.1194,-1.1194,-1.1194,-1.1096,-1.0413,-1.0216,-1.0113,-0.9517,-0.9316,-0.9517,-1.0117,-0.962,-0.9122,-0.932,-0.9023,-0.8623,-0.8226,-0.7928,-0.763,-0.6833,-0.6637,-0.6437,-0.5837,-0.5737,-0.5636,-0.5236,-0.5035,-0.4935,-0.4935,-0.4834,-0.4834,-0.4834,-0.5035,-0.5035,-0.4834,-0.4535,-0.4332,-0.4133,-0.4133,-0.3629,-0.2621,-0.3422,-0.4029,-0.4343,-0.3649,-0.1724,0.1423,0.1445,0.1454,0.1456,0.1376,0.1376,0.1464,0.1573,0.1592,0.1724,0.1724,0.1753,0.1795,0.1795,0.1795,0.1795,-2.125,-2.0355,-1.9573,-1.9233,-1.8452,-1.7725,-1.7304,-1.7038,-1.6908,-1.6908,-1.6908,-1.6991,-1.7193,-1.7385,-1.7597,-1.7837,-1.7448,-1.6766,-1.5886,-1.5546,-1.5235,-1.4824,-1.4484,-1.4382,-1.4516,-1.5232,-1.5789,-1.5999,-1.6236,-1.6407,-1.64,-1.6494,-1.6298,-1.5812,-1.5812,-1.5615,-1.5127,-1.4555,-1.4364,-1.4268,-1.3028,-1.264,-1.2635,-1.1385,-1.0993,-1.1086,-1.0703,-1.0511,-1.0408,-1.0609,-1.0703,-1.0703,-1.0199,-1.0199,-1.0301,-0.9805,-0.9809,-1.001,-0.9521,-0.9422,-0.9221,-0.8623,-0.8124,-0.8124,-0.9221,-0.8825,-0.8226,-0.8421,-0.7826,-0.7229,-0.693,-0.6531,-0.6132,-0.5734,-0.5636,-0.5536,-0.5233,-0.5236,-0.5135,-0.4834,-0.4533,-0.4334,-0.4033,-0.4234,-0.4334,-0.4033,-0.4535,-0.4533,-0.4033,-0.4033,-0.3932,-0.3632,-0.3228,-0.2722,-0.2017,-0.2215,-0.2116,-0.1817,-0.2018,-0.121,0.0707,0.1326,0.1641,0.1641,0.1554,0.1552,0.1641,0.1641,0.1658,0.1686,0.1699,0.1733,0.1775,0.179,0.1795,0.1795,-2.07,-1.9977,-1.9562,-1.9375,-1.8509,-1.7842,-1.7706,-1.7235,-1.6908,-1.6908,-1.6908,-1.6908,-1.6908,-1.7257,-1.7415,-1.7072,-1.6671,-1.6118,-1.5378,-1.5323,-1.5011,-1.4334,-1.4166,-1.4202,-1.4442,-1.4736,-1.5057,-1.5398,-1.5886,-1.613,-1.613,-1.6211,-1.5724,-1.4854,-1.4657,-1.4166,-1.3392,-1.3392,-1.3392,-1.3295,-1.292,-1.2915,-1.3006,-1.177,-1.138,-1.1365,-1.06,-1.0314,-1.0413,-1.0314,-1.0212,-1.0006,-0.9103,-0.9008,-0.9011,-0.812,-0.8223,-0.8524,-0.8326,-0.8326,-0.8223,-0.7624,-0.6927,-0.6731,-0.7826,-0.7627,-0.7229,-0.7425,-0.6431,-0.5534,-0.5729,-0.5233,-0.4834,-0.4834,-0.4834,-0.4734,-0.4634,-0.4634,-0.4634,-0.4533,-0.4133,-0.3732,-0.323,-0.3632,-0.3632,-0.323,-0.3932,-0.393,-0.3027,-0.3328,-0.3226,-0.2826,-0.2118,-0.1715,-0.1614,-0.0908,-0.0202,0.0606,0.0202,-0.0101,-0.0,0.1111,0.1617,0.1617,0.1617,0.1617,0.1617,0.1617,0.1635,0.1665,0.1688,0.1718,0.1753,0.1784,0.1795,0.1795,-2.199,-2.1302,-2.0537,-1.9497,-1.8767,-1.824,-1.7774,-1.7235,-1.6908,-1.6908,-1.6908,-1.6908,-1.6908,-1.7257,-1.7513,-1.7424,-1.7129,-1.6954,-1.7033,-1.5743,-1.502,-1.522,-1.4496,-1.4108,-1.4142,-1.4429,-1.485,-1.5398,-1.5691,-1.5832,-1.5832,-1.4962,-1.449,-1.4388,-1.3409,-1.292,-1.2823,-1.2823,-1.2823,-1.2727,-1.1853,-1.1463,-1.1365,-1.0306,-0.992,-0.9916,-1.0019,-1.0216,-1.0314,-1.0117,-0.9612,-0.9008,-0.8806,-0.8212,-0.7521,-0.7322,-0.7322,-0.7223,-0.6526,-0.6429,-0.6229,-0.5432,-0.5133,-0.5133,-0.5334,-0.5233,-0.5233,-0.5233,-0.5033,-0.4935,-0.4933,-0.4834,-0.4834,-0.4834,-0.4834,-0.4634,-0.4133,-0.4133,-0.3932,-0.3432,-0.3331,-0.323,-0.323,-0.323,-0.323,-0.323,-0.2723,-0.2319,-0.2219,-0.1613,-0.121,-0.1109,-0.1008,-0.0605,0.0101,0.0202,0.0606,0.1415,0.1414,0.1313,0.1313,0.1516,0.1617,0.1617,0.1617,0.1617,0.1617,0.1617,0.1635,0.1662,0.1667,0.1701,0.1753,0.1784,0.1795,0.1795,-2.1741,-2.1313,-2.0805,-1.9922,-1.9309,-1.8767,-1.824,-1.7706,-1.7245,-1.6908,-1.6908,-1.6908,-1.6908,-1.6704,-1.6368,-1.5922,-1.5528,-1.5124,-1.4819,-1.4395,-1.426,-1.4392,-1.4246,-1.4088,-1.4088,-1.4369,-1.4649,-1.491,-1.5364,-1.5585,-1.5591,-1.5279,-1.4873,-1.4298,-1.3806,-1.2926,-1.1853,-1.1853,-1.1565,-1.089,-1.0498,-1.0306,-1.0207,-0.9821,-0.9628,-0.9628,-0.9727,-0.9826,-0.992,-0.9826,-0.9521,-0.9118,-0.8517,-0.8219,-0.7826,-0.6628,-0.6531,-0.6531,-0.5632,-0.5331,-0.5131,-0.4533,-0.4334,-0.4234,-0.3932,-0.3932,-0.4033,-0.4332,-0.4334,-0.4234,-0.3932,-0.3932,-0.3932,-0.3932,-0.3932,-0.3831,-0.3632,-0.3531,-0.3432,-0.323,-0.323,-0.323,-0.323,-0.2826,-0.2522,-0.2522,-0.1815,-0.131,-0.131,-0.1008,-0.0806,-0.0806,-0.0404,-0.0,0.0404,0.0808,0.1212,0.1617,0.1617,0.1617,0.1617,0.1617,0.1617,0.1617,0.1617,0.1617,0.1617,0.1617,0.1625,0.164,0.1673,0.1722,0.1776,0.179,0.1795,0.1795]},{"header":{"parameterUnit":"m.s-1","parameterCategory":1,"la1":30.6,"la2":28.766,"lo1":-90.7593,"lo2":-88.6598,"dx":0.0162,"dy":0.0183,"nx":116,"ny":114,"refTime":"2022-12-30T06:00:00:Z","depth":0,"parameterNumber":3,"parameterNumberName":"V-component_of_WINDS"},"data":[0.0,0.0,0.0,0.0,0.0,0.0,0.0,0.0,0.0,0.0,0.0,0.0,0.0,0.0,0.0,0.0,0.0,0.0,0.0,0.0,0.0,0.0,0.0,0.0,0.0,0.0,0.0,0.0,0.0,0.0,0.0,0.0,0.0,0.0,0.0,0.0,0.0,0.0,0.0,0.0,0.0,0.0,0.0,0.0,0.0,0.0,0.0,0.0,0.0,0.0,0.0,0.0,0.0,0.0,0.0,0.0,0.0,0.0,0.0,0.0,0.0,0.0,0.0,0.0,0.0,0.0,0.0,0.0,0.0,0.0,0.0,0.0,0.0,0.0,0.0,0.0,0.0,0.0,0.0,0.0,0.0,0.0,0.0,0.0,0.0,0.0,0.0,0.0,0.0,0.0,0.0,0.0,0.0,0.0,0.0,0.0,0.0,0.0,0.0,0.0,0.0,0.0,0.0,0.0,0.0,0.0,0.0,0.0,0.0,0.0,0.0,0.0,0.0,0.0,0.0,0.0,0.0,0.0,0.0,0.0,0.0,0.0,0.0,0.0,0.0,0.0,0.0,0.0,0.0,0.0,0.0,0.0,0.0,0.0,0.0,0.0,0.0,0.0,0.0,0.0,0.0,0.0,0.0,0.0,0.0,0.0,0.0,0.0,0.0,0.0,0.0,0.0,0.0,0.0,0.0,0.0,0.0,0.0,0.0,0.0,0.0,0.0,0.0,0.0,0.0,0.0,0.0,0.0,0.0,0.0,0.0,0.0,0.0,0.0,0.0,0.0,0.0,0.0,0.0,0.0,0.0,0.0,0.0,0.0,0.0,0.0,0.0,0.0,0.0,0.0,0.0,0.0,0.0,0.0,0.0,0.0,0.0,0.0,0.0,0.0,0.0,0.0,0.0,0.0,0.0,0.0,0.0,0.0,0.0,0.0,0.0,0.0,0.0,0.0,0.0,0.0,0.0,0.0,0.0,0.0,0.0,0.0,0.0,0.0,0.0,0.0,0.0,0.0,0.0,0.0,0.0,0.0,0.0,0.0,0.0,0.0,0.0,0.0,0.0,0.0,0.0,0.0,0.0,0.0,0.0,0.0,0.0,0.0,0.0,0.0,0.0,0.0,0.0,0.0,0.0,0.0,0.0,0.0,0.0,0.0,0.0,0.0,0.0,0.0,0.0,0.0,0.0,0.0,0.0,0.0,0.0,0.0,0.0,0.0,0.0,0.0,0.0,0.0,0.0,0.0,0.0,0.0,0.0,0.0,0.0,0.0,0.0,0.0,0.0,0.0,0.0,0.0,0.0,0.0,0.0,0.0,0.0,0.0,0.0,0.0,0.0,0.0,0.0,0.0,0.0,0.0,0.0,0.0,0.0,0.0,0.0,0.0,0.0,0.0,0.0,0.0,0.0,0.0,0.0,0.0,0.0,0.0,0.0,0.0,0.0,0.0,0.0,0.0,0.0,0.0,0.0,0.0,0.0,0.0,0.0,0.0,0.0,0.0,0.0,0.0,0.0,0.0,0.0,0.0,0.0,0.0,0.0,0.0,0.0,0.0,0.0,0.0,0.0,0.0,0.0,0.0,0.0,0.0,0.0,0.0,0.0,0.0,0.0,0.0,0.0,0.0,0.0,0.0,0.0,0.0,0.0,0.0,0.0,0.0,0.0,0.0,0.0,0.0,0.0,0.0,0.0,0.0,0.0,0.0,0.0,0.0,0.0,0.0,0.0,0.0,0.0,0.0,0.0,0.0,0.0,0.0,0.0,0.0,0.0,0.0,0.0,0.0,0.0,0.0,0.0,0.0,0.0,0.0,0.0,0.0,0.0,0.0,0.0,0.0,0.0,0.0,0.0,0.0,0.0,0.0,0.0,0.0,0.0,0.0,0.0,0.0,0.0,0.0,0.0,0.0,0.0,0.0,0.0,0.0,0.0,0.0,0.0,0.0,0.0,0.0,0.0,0.0,0.0,0.0,0.0,0.0,0.0,0.0,0.0,0.0,0.0,0.0,0.0,0.0,0.0,0.0,0.0,0.0,0.0,0.0,0.0,0.0,0.0,0.0,0.0,0.0,0.0,0.0,0.0,0.0,0.0,0.0,0.0,0.0,0.0,0.0,0.0,0.0,0.0,0.0,0.0,0.0,0.0,0.0,0.0,0.0,0.0,0.0,0.0,0.0,0.0,0.0,0.0,0.0,0.0,0.0,0.0,0.0,0.0,0.0,0.0,0.0,0.0,0.0,0.0,0.0,0.0,0.0,0.0,0.0,0.0,0.0,0.0,0.0,0.0,0.0,0.0,0.0,0.0,0.0,0.0,0.0,0.0,0.0,0.0,0.0,0.0,0.0,0.0,0.0,0.0,0.0,0.0,0.0,0.0,0.0,0.0,0.0,0.0,0.0,0.0,0.0,0.0,0.0,0.0,0.0,0.0,0.0,0.0,0.0,0.0,0.0,0.0,0.0,0.0,0.0,0.0,0.0,0.0,0.0,0.0,0.0,0.0,0.0,0.0,0.0,0.0,0.0,0.0,0.0,0.0,0.0,0.0,0.0,0.0,0.0,0.0,0.0,0.0,0.0,0.0,0.0,0.0,0.0,0.0,0.0,0.0,0.0,0.0,0.0,0.0,0.0,0.0,0.0,0.0,0.0,0.0,0.0,0.0,0.0,0.0,0.0,0.0,0.0,0.0,0.0,0.0,0.0,0.0,0.0,0.0,0.0,0.0,0.0,0.0,0.0,0.0,0.0,0.0,0.0,0.0,0.0,0.0,0.0,0.0,0.0,0.0,0.0,0.0,0.0,0.0,0.0,0.0,0.0,0.0,0.0,0.0,0.0,0.0,0.0,0.0,0.0,0.0,0.0,0.0,0.0,0.0,0.0,0.0,0.0,0.0,0.0,0.0,0.0,0.0,0.0,0.0,0.0,0.0,0.0,0.0,0.0,0.0,0.0,0.0,0.0,0.0,0.0,0.0,0.0,0.0,0.0,0.0,0.0,0.0,0.0,0.0,0.0,0.0,0.0,0.0,0.0,0.0,0.0,0.0,0.0,0.0,0.0,0.0,0.0,0.0,0.0,0.0,0.0,0.0,0.0,0.0,0.0,0.0,0.0,0.0,0.0,0.0,0.0,0.0,0.0,0.0,0.0,0.0,0.0,0.0,0.0,0.0,0.0,0.0,0.0,0.0,0.0,0.0,0.0,0.0,0.0,0.0,0.0,0.0,0.0,0.0,0.0,0.0,0.0,0.0,0.0,0.0,0.0,0.0,0.0,0.0,0.0,0.0,0.0,0.0,0.0,0.0,0.0,0.0,0.0,0.0,0.0,0.0,0.0,0.0,0.0,0.0,0.0,0.0,0.0,0.0,0.0,0.0,0.0,0.0,0.0,0.0,0.0,0.0,0.0,0.0,0.0,0.0,0.0,0.0,0.0,0.0,0.0,0.0,0.0,0.0,0.0,0.0,0.0,0.0,0.0,0.0,0.0,0.0,0.0,0.0,0.0,0.0,0.0,0.0,0.0,0.0,0.0,0.0,0.0,0.0,0.0,0.0,0.0,0.0,0.0,0.0,0.0,0.0,0.0,0.0,0.0,0.0,0.0,0.0,0.0,0.0,0.0,0.0,0.0,0.0,0.0,0.0,0.0,0.0,0.0,0.0,0.0,0.0,0.0,0.0,0.0,0.0,0.0,0.0,0.0,0.0,0.0,0.0,0.0,0.0,0.0,0.0,0.0,0.0,0.0,0.0,0.0,0.0,0.0,0.0,0.0,0.0,0.0,0.0,0.0,0.0,0.0,0.0,0.0,0.0,0.0,0.0,0.0,0.0,0.0,0.0,0.0,0.0,0.0,0.0,0.0,0.0,0.0,0.0,0.0,0.0,0.0,0.0,0.0,0.0,0.0,0.0,0.0,0.0,0.0,0.0,0.0,0.0,0.0,0.0,0.0,0.0,0.0,0.0,0.0,0.0,0.0,0.0,0.0,0.0,0.0,0.0,0.0,0.0,0.0,0.0,0.0,0.0,0.0,0.0,0.0,0.0,0.0,0.0,0.0,0.0,0.0,0.0,0.0,0.0,0.0,0.0,0.0,0.0,0.0,0.0,0.0,0.0,0.0,0.0,0.0,0.0,0.0,0.0,0.0,0.0,0.0,0.0,0.0,0.0,0.0,0.0,0.0,0.0,0.0,0.0,0.0,0.0,0.0,0.0,0.0,0.0,0.0,0.0,0.0,0.0,0.0,0.0,0.0,0.0,0.0,0.0,0.0,0.0,0.0,0.0,0.0,0.0,0.0,0.0,0.0,0.0,0.0,0.0,0.0,0.0,0.0,0.0,0.0,0.0,0.0,0.0,0.0,0.0,0.0,0.0,0.0,0.0,0.0,0.0,0.0,0.0,0.0,0.0,0.0,0.0,0.0,0.0,0.0,0.0,0.0,0.0,0.0,0.0,0.0,0.0,0.0,0.0,0.0,0.0,0.0,0.0,0.0,0.0,0.0,0.0,0.0,0.0,0.0,0.0,0.0,0.0,0.0,0.0,0.0,0.0,0.0,0.0,0.0,0.0,0.0,0.0,0.0,0.0,0.0,0.0,0.0,0.0,0.0,0.0,0.0,0.0,0.0,0.0,0.0,0.0,0.0,0.0,0.0,0.0,0.0,0.0,0.0,0.0,0.0,0.0,0.0,0.0,0.0,0.0,0.0,0.0,0.0,0.0,0.0,0.0,0.0,0.0,0.0,0.0,0.0,0.0,0.0,0.0,0.0,0.0,0.0,0.0,0.0,0.0,0.0,0.0,0.0,0.0,0.0,0.0,0.0,0.0,0.0,0.0,0.0,0.0,0.0,0.0,0.0,0.0,0.0,0.0,0.0,0.0,0.0,0.0,0.0,0.0,0.0,0.0,0.0,0.0,0.0,0.0,0.0,0.0,0.0,0.0,0.0,0.0,0.0,0.0,0.0,0.0,0.0,0.0,0.0,0.0,0.0,0.0,0.0,0.0,0.0,0.0,0.0,0.0,0.0,0.0,0.0,0.0,0.0,0.0,0.0,0.0,0.0,0.0,0.0,0.0,0.0,0.0,0.0,0.0,0.0,0.0,0.0,0.0,0.0,0.0,0.0,0.0,0.0,0.0,0.0,0.0,0.0,0.0,0.0,0.0,0.0,0.0,0.0,0.0,0.0,0.0,0.0,0.0,0.0,0.0,0.0,0.0,0.0,0.0,0.0,0.0,0.0,0.0,0.0,0.0,0.0,0.0,0.0,0.0,0.0,0.0,0.0,0.0,0.0,0.0,0.0,0.0,0.0,0.0,0.0,0.0,0.0,0.0,0.0,0.0,0.0,0.0,0.0,0.0,0.0,0.0,0.0,0.0,0.0,0.0,0.0,0.0,0.0,0.0,0.0,0.0,0.0,0.0,0.0,0.0,0.0,0.0,0.0,0.0,0.0,0.0,0.0,0.0,0.0,0.0,0.0,0.0,0.0,0.0,0.0,0.0,0.0,0.0,0.0,0.0,0.0,0.0,0.0,0.0,0.0,0.0,0.0,0.0,0.0,0.0,0.0,0.0,0.0,0.0,0.0,0.0,0.0,0.0,0.0,0.0,0.0,0.0,0.0,0.0,0.0,0.0,0.0,0.0,0.0,0.0,0.0,0.0,0.0,0.0,0.0,0.0,0.0,0.0,0.0,0.0,0.0,0.0,0.0,0.0,0.0,0.0,0.0,0.0,0.0,0.0,0.0,0.0,0.0,0.0,0.0,0.0,0.0,0.0,0.0,0.0,0.0,0.0,0.0,0.0,0.0,0.0,0.0,0.0,0.0,0.0,0.0,0.0,0.0,0.0,0.0,0.0,0.0,0.0,0.0,0.0,0.0,0.0,0.0,0.0,0.0,0.0,0.0,0.0,0.0,0.0,0.0,0.0,0.0,0.0,0.0,0.0,0.0,0.0,0.0,0.0,0.0,0.0,0.0,0.0,0.0,0.0,0.0,0.0,0.0,0.0,0.0,0.0,0.0,0.0,0.0,0.0,0.0,0.0,0.0,0.0,0.0,0.0,0.0,0.0,0.0,0.0,0.0,0.0,0.0,0.0,0.0,0.0,0.0,0.0,0.0,0.0,0.0,0.0,0.0,-1.5691,-1.3956,0.0,0.0,0.0,0.0,0.0,0.0,0.0,0.0,0.0,0.0,0.0,0.0,0.0,0.0,0.0,0.0,0.0,0.0,0.0,0.0,0.0,0.0,0.0,-0.8863,-0.8343,-0.8296,-0.7311,0.0,0.0,0.0,0.0,0.0,0.0,0.0,0.0,0.0,-0.6667,-0.7422,-0.7865,-0.9227,-1.1399,-1.0433,-0.9147,-0.7618,0.0,0.0,0.0,0.0,0.0,0.0,0.0,0.0,0.0,0.0,0.0,0.0,0.0,0.0,0.0,0.0,0.0,0.0,0.0,0.0,0.0,0.0,0.0,0.0,0.0,0.0,0.0,0.0,0.0,0.0,0.0,0.0,0.0,0.0,0.0,0.0,0.0,0.0,0.0,0.0,0.0,0.0,0.0,0.0,0.0,0.0,0.0,0.0,0.0,0.0,0.0,0.0,0.0,0.0,0.0,0.0,0.0,0.0,0.0,0.0,0.0,0.0,0.0,0.0,0.0,0.0,0.0,0.0,0.0,0.0,-1.7566,-1.6387,0.0,0.0,0.0,0.0,0.0,0.0,0.0,0.0,0.0,0.0,0.0,0.0,0.0,0.0,0.0,0.0,0.0,0.0,0.0,0.0,0.0,-0.9591,-0.9591,-0.9106,-0.8791,-0.8851,-0.7864,-0.7239,-0.7239,-0.6727,0.0,0.0,0.0,0.0,-0.6295,-0.6391,-0.7482,-0.9629,-1.0456,-1.1993,-1.4085,-1.4648,-1.3447,-1.071,-0.9197,0.0,0.0,0.0,0.0,0.0,0.0,0.0,0.0,0.0,0.0,0.0,0.0,0.0,0.0,0.0,0.0,0.0,0.0,0.0,0.0,0.0,0.0,0.0,0.0,0.0,0.0,0.0,0.0,0.0,0.0,0.0,0.0,0.0,0.0,0.0,0.0,0.0,0.0,0.0,0.0,0.0,0.0,0.0,0.0,0.0,0.0,0.0,0.0,0.0,0.0,0.0,0.0,0.0,0.0,0.0,0.0,0.0,0.0,0.0,0.0,0.0,0.0,0.0,-1.8298,-1.8878,-1.9522,-1.9748,-2.1277,-2.3568,-2.0191,-1.9633,-2.0941,-1.8474,0.0,0.0,0.0,0.0,0.0,0.0,0.0,0.0,0.0,0.0,0.0,0.0,0.0,0.0,0.0,0.0,0.0,0.0,0.0,-0.9523,-0.9523,-0.9018,-0.8911,-0.9367,-0.8417,-0.7792,-0.7792,-0.7299,0.0,0.0,0.0,0.0,-0.6295,-0.6751,-0.8056,-1.0209,-1.4345,-1.6397,-1.6446,-1.7043,-1.693,-1.6124,-1.3769,-1.2734,-1.2637,0.0,0.0,0.0,0.0,0.0,0.0,0.0,0.0,0.0,0.0,0.0,0.0,0.0,0.0,0.0,0.0,0.0,0.0,0.0,0.0,0.0,0.0,0.0,0.0,0.0,0.0,0.0,0.0,0.0,0.0,0.0,0.0,0.0,0.0,0.0,0.0,0.0,0.0,0.0,0.0,0.0,-1.6312,-1.6312,0.0,0.0,0.0,0.0,0.0,0.0,0.0,0.0,0.0,0.0,0.0,0.0,0.0,-1.8408,-1.9025,-2.0133,-2.1201,-2.2269,-2.3837,-2.4881,-2.5488,-2.5938,-2.6508,-2.7116,-2.6567,0.0,-2.2781,-2.1728,0.0,0.0,0.0,0.0,0.0,0.0,0.0,0.0,0.0,0.0,0.0,0.0,0.0,0.0,0.0,0.0,0.0,0.0,0.0,0.0,0.0,-1.0925,-1.1298,-1.2109,-1.1503,-1.0671,-0.9752,-0.8922,0.0,0.0,0.0,-0.6439,-0.6739,-0.8165,-1.0678,-1.4297,-1.7467,-1.9188,-1.9422,-1.9587,-1.9785,-2.0015,-1.857,-1.6762,-1.4718,-1.3454,0.0,0.0,0.0,0.0,0.0,0.0,0.0,0.0,0.0,0.0,0.0,0.0,0.0,0.0,0.0,0.0,0.0,0.0,0.0,0.0,0.0,0.0,0.0,0.0,0.0,0.0,0.0,0.0,0.0,0.0,0.0,0.0,0.0,0.0,0.0,0.0,0.0,0.0,0.0,-1.5623,-1.641,-1.7112,-1.6171,-1.5188,0.0,0.0,0.0,0.0,0.0,0.0,0.0,0.0,0.0,-2.1046,-2.1777,-2.2437,-2.3055,-2.3603,-2.4137,-2.4685,-2.5626,-2.6596,-2.7486,-2.7906,-2.8529,-2.9251,-2.9251,-2.8262,-2.6581,-2.5404,-2.3998,-2.2532,0.0,0.0,0.0,0.0,-2.1918,-2.1956,0.0,0.0,0.0,0.0,0.0,0.0,0.0,0.0,0.0,0.0,0.0,0.0,-1.176,-1.2625,-1.3481,-1.441,-1.4,-1.3204,-1.201,-1.0534,-0.9101,-0.778,-0.6931,-0.6679,-0.7095,-0.9977,-1.355,-1.782,-1.9807,-2.1087,-2.1608,-2.1475,-2.1651,-2.2173,-2.1777,-1.9873,-1.6894,-1.6154,-1.4738,-1.2836,0.0,0.0,0.0,0.0,0.0,0.0,0.0,0.0,0.0,0.0,0.0,0.0,0.0,0.0,0.0,0.0,0.0,0.0,0.0,0.0,0.0,0.0,0.0,0.0,0.0,0.0,0.0,0.0,0.0,0.0,0.0,0.0,0.0,0.0,0.0,0.0,0.0,-1.6299,-1.7054,-1.8313,-1.796,-1.7211,0.0,0.0,0.0,0.0,0.0,0.0,-2.0555,-2.1636,-2.2907,-2.425,-2.5205,-2.5921,-2.6371,-2.6371,-2.6455,-2.661,-2.6971,-2.7741,-2.8767,-2.9094,-2.9795,-3.0708,-3.0708,-3.0538,-3.0058,-2.8422,-2.7134,-2.613,-2.5608,-2.4817,-2.4269,-2.5749,-2.5982,-2.5936,0.0,0.0,0.0,0.0,0.0,0.0,0.0,0.0,0.0,0.0,0.0,-1.1796,-1.188,-1.3288,-1.4434,-1.4917,-1.4514,-1.4217,-1.4132,-1.1688,-1.0004,-0.9401,-0.79,-0.7082,-0.7107,-1.2135,-1.6116,-1.8915,-2.1091,-2.2149,-2.2149,-2.2173,-2.2185,-2.2197,-2.2161,-2.1374,-1.9987,-1.8638,-1.7229,-1.565,-1.2941,0.0,0.0,0.0,0.0,0.0,0.0,0.0,0.0,0.0,0.0,0.0,0.0,0.0,0.0,0.0,0.0,0.0,0.0,0.0,0.0,0.0,0.0,0.0,0.0,0.0,0.0,0.0,0.0,0.0,0.0,0.0,0.0,0.0,0.0,0.0,0.0,0.0,0.0,-2.0623,-2.0438,0.0,0.0,0.0,0.0,-1.9207,-1.9922,-2.1341,-2.3752,-2.4446,-2.564,-2.7481,-2.7607,-2.765,-2.7678,-2.7678,-2.7973,-2.8549,-2.9011,-2.9563,-3.0228,-3.0646,-3.1129,-3.1634,-3.1634,-3.1886,-3.209,-3.012,-2.902,-2.8639,-2.8561,-2.8684,-2.8896,-2.8946,-2.8962,-2.9057,0.0,0.0,0.0,-0.8189,-0.7996,-0.8081,-0.8622,-0.8417,-0.8501,-0.9377,-1.0894,-1.2299,-1.3336,-1.5127,-1.663,-1.7508,-1.7412,-1.6871,-1.5848,-1.3612,-1.2253,-1.2061,-1.0197,-1.0606,-1.3672,-1.6269,-1.8722,-2.1055,-2.136,-2.1726,-2.2197,-2.2067,-2.2107,-2.2209,-2.2546,-2.2001,-2.0814,-2.089,-1.9797,-1.7855,-1.6618,-1.4132,0.0,0.0,0.0,0.0,0.0,0.0,0.0,0.0,0.0,0.0,0.0,0.0,0.0,0.0,0.0,0.0,0.0,0.0,0.0,0.0,0.0,0.0,0.0,0.0,0.0,0.0,0.0,0.0,0.0,0.0,0.0,0.0,0.0,0.0,0.0,0.0,0.0,-2.1125,-2.1731,0.0,-2.1805,-2.2325,-2.2929,-2.3547,-2.4559,-2.5697,-2.6975,-2.7242,-2.786,-2.8928,-2.8956,-2.9139,-2.9532,-2.9546,-3.0043,-3.0982,-3.087,-3.1397,-3.2525,-3.2389,-3.2706,-3.3505,-3.3505,-3.3721,-3.3929,-3.3215,-3.2322,-3.1431,-3.1431,-3.162,-3.1905,-3.2333,-3.2491,-3.2586,0.0,0.0,0.0,-0.8249,-0.8008,-0.8008,-0.838,-0.8117,-0.8477,-1.0101,-1.17,-1.3324,-1.4916,-1.6786,-1.8229,-1.8927,-1.8987,-1.8614,-1.7748,-1.5367,-1.3997,-1.3997,-1.2145,-1.3251,-1.7845,-1.8638,-2.0045,-2.2197,-2.1902,-2.1985,-2.2525,-2.2568,-2.2704,-2.279,-2.2959,-2.2571,-2.1771,-2.2308,-2.1415,-1.9681,-1.8955,-1.6783,-1.3751,0.0,0.0,0.0,0.0,0.0,0.0,0.0,0.0,0.0,0.0,0.0,0.0,0.0,0.0,0.0,0.0,0.0,0.0,0.0,0.0,0.0,0.0,0.0,0.0,0.0,0.0,0.0,0.0,0.0,0.0,0.0,0.0,0.0,0.0,-1.967,-2.1451,-2.2035,-2.3245,-2.4039,-2.4039,-2.5177,-2.6174,-2.6793,-2.7607,-2.8352,-2.897,-2.9195,-2.949,-2.9897,-3.0122,-3.0431,-3.0839,-3.0853,-3.131,-3.232,-3.1931,-3.2341,-3.3516,-3.3193,-3.3455,-3.4283,-3.4283,-3.4445,-3.4736,-3.4736,-3.4394,-3.3748,-3.3841,-3.4058,-3.4388,-3.4835,-3.4994,-3.5058,0.0,0.0,-0.8969,-0.7431,-0.7563,-0.79,-0.7912,-0.7936,-0.8898,-1.1544,-1.3312,-1.4916,-1.6404,-1.8049,-1.8999,-1.9011,-1.9011,-1.9239,-1.9744,-1.6834,-1.5061,-1.5061,-1.372,-1.4904,-1.8975,-1.9083,-2.0105,-2.2197,-2.2727,-2.3043,-2.3235,-2.3782,-2.4025,-2.3964,-2.3466,-2.3159,-2.2995,-2.2787,-2.2099,-2.1014,-1.9678,-1.8746,-1.7893,0.0,0.0,0.0,0.0,0.0,0.0,0.0,0.0,0.0,0.0,0.0,0.0,0.0,0.0,0.0,0.0,0.0,0.0,0.0,0.0,0.0,0.0,0.0,0.0,0.0,0.0,0.0,0.0,0.0,0.0,0.0,0.0,0.0,-1.9714,-2.0574,-2.1899,-2.3543,-2.5045,-2.5964,-2.5978,-2.7088,-2.8057,-2.8675,-2.8717,-2.8984,-2.9602,-3.0193,-3.053,-3.0558,-3.1162,-3.1499,-3.1527,-3.1527,-3.1778,-3.2378,-3.227,-3.2562,-3.3099,-3.3099,-3.3362,-3.3895,-3.3895,-3.415,-3.4596,-3.4596,-3.4929,-3.5498,-3.5696,-3.5985,-3.6303,-3.6335,-3.6351,-3.6367,-0.9293,-0.9091,-0.8766,-0.8321,-0.8056,-0.802,-0.8429,-0.8814,-0.9752,-1.164,-1.3612,-1.5253,-1.6452,-1.8049,-1.9143,-1.9528,-1.9564,-1.9624,-1.9768,-1.7532,-1.6152,-1.6152,-1.8001,-1.9552,-2.0718,-2.1115,-2.1596,-2.2197,-2.2829,-2.3159,-2.3235,-2.4303,-2.4394,-2.3646,-2.3904,-2.3573,-2.2775,-2.2751,-2.2555,-2.2249,-2.1848,-2.0467,-1.8546,0.0,0.0,0.0,0.0,0.0,0.0,0.0,0.0,0.0,0.0,0.0,0.0,0.0,0.0,0.0,0.0,0.0,0.0,0.0,0.0,0.0,0.0,0.0,0.0,0.0,0.0,0.0,0.0,0.0,0.0,0.0,-1.9887,-2.1449,-2.131,-2.3181,-2.4759,-2.5224,-2.6442,-2.7439,-2.7888,-2.824,-2.8689,-2.9307,-2.935,-2.9631,-3.0235,-3.0431,-3.074,-3.1204,-3.1387,-3.171,-3.2145,-3.2145,-3.2628,-3.3566,-3.3566,-3.4083,-3.494,-3.494,-3.5271,-3.5738,-3.5738,-3.609,-3.6613,-3.6613,-3.698,-3.7432,-3.6055,-3.5838,-3.6367,-3.6853,-3.7371,-3.7825,-0.9446,-0.9221,-0.8958,-0.8742,-0.8453,-0.8356,-0.8658,-0.8958,-1.0065,-1.2589,-1.3949,-1.5452,-1.74,-1.8638,-1.9444,-1.9756,-1.9985,-2.0021,-1.9793,-1.8217,-1.7592,-1.8265,-1.9853,-2.1139,-2.2041,-2.2366,-2.2693,-2.2974,-2.3559,-2.3957,-2.4165,-2.5105,-2.5246,-2.4641,-2.4493,-2.4008,-2.3329,-2.2936,-2.2739,-2.269,-2.2739,-2.1797,-2.0306,-1.9504,-1.816,-1.6646,-1.5867,-1.518,-1.4609,-1.4402,0.0,0.0,0.0,0.0,0.0,0.0,0.0,0.0,0.0,0.0,0.0,0.0,0.0,0.0,0.0,0.0,0.0,0.0,0.0,0.0,0.0,0.0,0.0,0.0,-2.1894,-2.3434,-2.3886,-2.5306,-2.6371,-2.6652,-2.7551,-2.8394,-2.9012,-2.9083,-2.9336,-2.994,-2.9996,-3.0263,-3.0895,-3.1176,-3.1485,-3.1864,-3.2117,-3.2426,-3.2778,-3.297,-3.3536,-3.4409,-3.4677,-3.5219,-3.6022,-3.6022,-3.6226,-3.6492,-3.6492,-3.6785,-3.7194,-3.7194,-3.761,-3.8067,0.0,0.0,0.0,0.0,-3.8035,-3.8391,-0.9408,-0.9446,-0.9329,-0.8862,-0.8802,-0.8802,-0.8802,-0.8851,-1.0189,-1.3819,-1.4337,-1.5567,-1.865,-1.9468,-1.9805,-1.9865,-2.0358,-2.0442,-1.9913,-1.9047,-1.9179,-2.055,-2.0249,-2.1029,-2.2995,-2.3043,-2.3361,-2.4013,-2.4615,-2.5074,-2.5423,-2.5996,-2.6176,-2.6064,-2.5099,-2.4471,-2.4205,-2.3282,-2.2848,-2.2739,-2.2848,-2.2726,-2.2323,-2.1257,-2.0478,-1.9825,-1.8744,-1.7667,-1.665,-1.6232,0.0,0.0,0.0,0.0,0.0,0.0,0.0,0.0,0.0,0.0,0.0,0.0,0.0,0.0,0.0,0.0,0.0,0.0,0.0,0.0,0.0,0.0,0.0,0.0,-2.3848,-2.5486,-2.6652,-2.6877,-2.7158,-2.7804,-2.8422,-2.9012,-2.956,-2.9673,-2.994,-3.0488,-3.0586,-3.0909,-3.1555,-3.2117,0.0,0.0,0.0,-3.3312,-3.3382,-3.3825,-3.4274,-3.4876,-3.535,-3.5894,-3.6429,-3.6492,-3.6492,-3.6492,-3.6492,-3.6677,-3.706,-3.706,-3.7389,-3.8017,-3.8262,-3.8391,-3.8391,-3.8391,-3.8391,-3.8391,-0.9485,-0.9446,-0.941,-0.9341,-0.9329,-0.9329,-0.9329,-0.9716,-1.1015,-1.3915,-1.4622,-1.5945,-1.8698,-1.9468,-1.9961,-2.0418,-2.0935,-2.1019,-2.049,-2.0658,-2.0788,-2.0782,-2.1486,-2.2359,-2.3413,-2.3426,-2.3683,-2.4222,-2.495,-2.5344,-2.5423,-2.6133,-2.6145,-2.567,-2.5043,-2.4505,-2.3991,-2.3366,-2.3078,-2.3017,-2.3078,-2.2775,-2.2396,-2.2128,-2.1801,-2.1449,-2.1187,-2.0925,-2.0569,-2.0309,-1.9332,-1.8158,-1.7479,-1.5887,0.0,0.0,0.0,0.0,0.0,0.0,0.0,0.0,0.0,0.0,0.0,0.0,0.0,0.0,0.0,0.0,0.0,0.0,0.0,-2.3421,-2.484,-2.5978,-2.6708,-2.7256,-2.7818,-2.8436,-2.9055,-2.9476,-2.9602,-3.0052,-3.0389,-3.0516,-3.1007,-3.1583,-3.2188,-3.2342,-3.2623,-3.3129,-3.3255,-3.3507,-3.3948,-3.3632,-3.3962,-3.4876,-3.5023,0.0,-3.5879,-3.6289,-3.6492,-3.6492,-3.6492,-3.6785,-3.7314,-3.7314,-3.7727,-3.8335,-3.8391,-3.8391,-3.8391,-3.8391,-3.8391,-3.8391,-0.9485,-0.9485,-0.9446,-0.9485,-0.9497,-0.9497,-0.9497,-0.9713,-1.0858,-1.3541,-1.4361,-1.5452,-1.758,-1.8518,-1.8891,-1.8638,-1.9348,-1.9913,-2.0177,-2.0706,-2.1127,-2.1499,-2.2019,-2.2613,-2.3338,-2.3619,-2.4087,-2.4826,-2.5438,-2.5834,-2.5983,-2.6327,-2.637,-2.5988,-2.5184,-2.4669,-2.4356,-2.3502,-2.3078,-2.3078,-2.3078,-2.2896,-2.2555,-2.2555,-2.2371,-2.2061,-2.2061,-2.1937,-2.1749,-2.1612,-2.0962,-2.0215,-1.9794,-1.8437,-1.6508,0.0,0.0,0.0,0.0,0.0,0.0,0.0,0.0,0.0,0.0,0.0,0.0,0.0,0.0,-1.9527,-2.1272,0.0,-2.3483,-2.4783,-2.5753,-2.6568,-2.72,-2.7832,-2.8352,-2.8647,-2.9237,-2.9729,-3.0038,-3.0347,-3.0783,-3.1415,-3.1766,-3.2216,-3.2834,-3.2862,-3.3127,-3.3687,-3.3701,-3.3825,-3.407,-3.4085,-3.4356,-3.4876,-3.5139,-3.5544,-3.6085,-3.6554,-3.6754,-3.6754,-3.6907,-3.7238,-3.7637,-3.7844,-3.8091,-3.8391,-3.8391,-3.8391,-3.8391,-3.8391,-3.8391,-3.8391,-0.9485,-0.9497,-0.9497,-0.9497,-0.9497,-0.9497,-0.9497,-0.9497,-1.0401,-1.2878,-1.3565,-1.4434,-1.5993,-1.7015,-1.7327,-1.6678,-1.7688,-1.8758,-1.972,-2.049,-2.1308,-2.2211,-2.2259,-2.2613,-2.3262,-2.3778,-2.4435,-2.5344,-2.5884,-2.6227,-2.6533,-2.6533,-2.6471,-2.6251,-2.5259,-2.4757,-2.4594,-2.3565,-2.3078,-2.3078,-2.3078,-2.2969,-2.269,-2.269,-2.2506,-2.2197,-2.2197,-2.2123,-2.1937,-2.1761,-2.1624,-2.1411,-2.1221,-2.032,-1.8895,-1.6534,-1.5893,0.0,0.0,0.0,0.0,0.0,0.0,0.0,0.0,-1.7231,-1.7832,-1.936,-2.0615,-2.1849,-2.3136,-2.4273,-2.5219,-2.595,-2.6483,-2.7074,-2.7846,-2.838,-2.8788,-2.9012,-2.949,-2.9982,-3.0474,-3.074,-3.1302,-3.2328,-3.2511,-3.2806,-3.3297,-3.3382,-3.3646,-3.3948,-3.4016,-3.407,-3.407,-3.4543,-3.4876,-3.5088,-3.5479,-3.6022,-3.6616,-3.6877,-3.6999,-3.7105,-3.7373,-3.7653,-3.7943,-3.8262,-3.8391,-3.8391,-3.8391,-3.8489,-3.8586,-3.844,-3.8489,-3.8602,-0.9497,-0.9497,-0.9497,-0.9497,-0.9497,-0.9497,-0.9497,-0.9497,-1.0137,-1.1832,-1.2143,-1.2782,-1.4385,-1.5055,-1.5684,-1.6512,-1.8025,-1.9143,-1.9744,-2.1187,-2.2127,-2.2359,-2.2555,-2.2936,-2.3653,-2.3866,-2.4518,-2.5598,-2.5661,-2.5963,-2.6533,-2.6533,-2.6189,-2.5661,-2.5084,-2.4556,-2.4054,-2.3414,-2.3078,-2.3078,-2.3078,-2.2969,-2.269,-2.269,-2.2506,-2.2197,-2.2197,-2.2197,-2.2135,-2.1824,-2.1698,-2.1635,-2.1296,-2.1106,-2.0473,-1.7928,-1.7946,-1.8103,-1.5093,-1.523,-1.6606,-1.8122,-1.7813,-1.8066,0.0,-2.1834,-2.1547,-2.342,-2.4201,-2.4717,-2.5404,-2.5247,-2.5359,-2.6512,-2.6764,-2.7228,-2.8422,-2.8647,-2.9097,-3.0193,-3.0375,-3.0445,-3.0516,-3.1541,-3.2258,-3.2398,-3.2918,-3.3255,-3.3326,-3.377,-3.3825,-3.3382,-3.3825,-3.407,-3.407,-3.4138,-3.4677,-3.5623,-3.5688,-3.6148,-3.6954,-3.6999,-3.7105,-3.7358,-3.7711,-3.7886,-3.7943,-3.8262,-3.8391,-3.8391,-3.8391,-3.8796,-3.9282,-3.8634,-3.8796,-3.9363,-0.9497,-0.9497,-0.9497,-0.9497,-0.9497,-0.9497,-0.9497,-0.9497,-0.998,-1.1255,-1.17,-1.2167,-1.283,-1.2794,-1.3047,-1.3804,-1.6173,-1.7845,-1.8374,-2.0791,-2.2247,-2.2309,-2.2371,-2.2604,-2.3133,-2.3517,-2.4028,-2.4669,-2.4996,-2.5272,-2.5498,-2.5498,-2.5372,-2.5121,-2.4582,-2.4217,-2.3966,-2.3376,-2.3078,-2.3078,-2.3017,-2.2848,-2.269,-2.2555,-2.2371,-2.2185,-2.2061,-2.1858,0.0,-2.1569,-2.135,-2.1101,-2.1204,-2.0963,-2.0461,-1.8972,-1.9476,-2.052,-2.004,-2.0039,-2.0291,-2.0794,-2.0819,-2.1105,-2.2777,-2.2964,-2.3122,-2.4283,-2.5217,-2.5841,-2.5907,-2.6287,-2.6778,-2.7284,-2.7678,-2.8085,-2.8619,-2.9307,-2.994,-3.0459,-3.1176,-3.1626,-3.1626,-3.2089,-3.2553,-3.2918,-3.3185,-3.3326,-3.3326,-3.3507,-3.3701,-3.3756,-3.3948,-3.4274,-3.4543,-3.4543,-3.4957,-3.5688,-3.5688,-3.6148,-3.7015,-3.7588,-3.8169,-3.8643,-3.876,-3.8834,-3.8866,-3.9386,-3.9606,-3.9606,-3.9606,-3.98,-3.9978,-3.9282,-3.946,-4.0075,-0.9497,-0.9497,-0.9497,-0.9497,-0.9497,-0.9497,-0.9497,-0.9497,-0.9773,-1.0558,-1.099,-1.1231,-1.1231,-1.0894,-1.087,-1.1399,-1.4225,-1.6317,-1.7147,-2.0057,-2.1885,-2.2173,-2.2247,-2.2371,-2.269,-2.3133,-2.3529,-2.4004,-2.4406,-2.4669,-2.482,-2.482,-2.4745,-2.4569,-2.418,-2.3916,-2.3728,-2.3314,-2.3078,-2.3078,-2.2969,-2.28,-2.2678,-2.2482,-2.2116,-2.1753,-2.1558,-2.1152,-2.0747,-2.0382,-2.017,-2.003,-2.0004,-1.9968,-1.9831,-1.9512,-2.0366,-2.1679,-2.2827,-2.2989,-2.2717,-2.245,-2.2936,-2.3428,-2.3218,-2.3607,-2.4202,-2.479,-2.573,-2.6496,-2.64,-2.7158,-2.7832,-2.8001,-2.8394,-2.8816,-2.9153,-2.9968,-3.0656,-3.1007,-3.185,-3.2483,-3.2637,-3.2665,-3.2903,-3.3479,-3.3382,-3.3382,-3.3507,-3.3507,-3.3701,-3.4085,-3.4206,-3.4476,-3.4876,-3.5073,-3.535,-3.5688,-3.5943,-3.6399,-3.7136,-3.8296,-3.9129,-3.9768,-3.9768,-3.9768,-3.98,-4.0286,-4.0496,-4.0496,-4.0496,-4.061,-4.0723,-4.0237,-4.0367,-4.0788,-0.9497,-0.9497,-0.9497,-0.9497,-0.9497,-0.9497,-0.9497,-0.9497,-0.9497,-0.9533,-0.9557,-0.9569,-0.9569,-0.9545,-0.9749,-1.0305,-1.2818,-1.5024,-1.6546,-1.9167,-2.1115,-2.2149,-2.2309,-2.2482,-2.269,-2.2873,-2.3268,-2.4004,-2.4017,-2.4293,-2.482,-2.482,-2.4531,-2.4017,-2.4004,-2.369,-2.3103,-2.3078,-2.3078,-2.3078,-2.2969,-2.28,-2.2678,-2.2482,-2.1668,-2.0601,-2.0473,-2.0127,-1.949,-1.7847,-1.7769,-1.8154,-1.7279,-1.7808,-1.8875,-1.9447,-2.0219,-2.1023,-2.1472,-2.1995,-2.2426,-2.2413,-2.325,-2.4045,-2.4067,-2.4557,-2.5147,-2.5756,-2.6371,-2.6989,-2.7607,-2.7748,-2.7973,-2.8577,-2.8675,-2.9111,-3.0305,-3.0502,-3.0979,-3.2202,-3.2384,-3.2637,-3.3241,-3.3297,-3.3493,-3.4016,-3.3563,-3.3507,-3.4016,-3.4085,-3.407,-3.407,-3.461,-3.4876,-3.4876,-3.5415,-3.5688,-3.5688,-3.6554,-3.7105,-3.7449,-3.883,-3.9833,-4.0464,-4.0464,-4.0464,-4.0464,-4.048,-4.0496,-4.0496,-4.0496,-4.0917,-4.1533,-4.1517,-4.1517,-4.1549,-1.0041,-0.9737,-0.9605,-0.9953,-0.9725,-0.9497,-0.9497,-0.9497,-0.9497,-0.9497,-0.9497,0.0,0.0,0.0,0.0,0.0,-1.2118,-1.3876,-1.5432,-1.7736,-1.966,-2.1079,-2.1536,-2.2007,-2.2482,-2.2678,-2.2947,-2.3256,-2.3366,-2.3527,-2.3703,-2.3703,-2.3602,-2.3427,-2.3427,-2.3314,-2.3078,-2.3078,-2.3078,-2.3078,-2.2848,-2.2739,-2.2727,-2.2759,-2.1392,-1.9383,0.0,-1.8175,-1.7357,-1.6812,-1.6385,-1.6302,-1.7193,-1.7576,-1.808,-2.0132,-2.1161,-2.1892,-2.3155,-2.3636,-2.3764,-2.3537,-2.3838,-2.4281,-2.4802,-2.5105,-2.5477,-2.6267,-2.7138,-2.7829,-2.8038,-2.8596,-2.9055,-2.9265,-2.9645,-3.0052,-3.0459,-3.1246,-3.1921,-3.2356,-3.2764,-3.3101,-3.3297,-3.3326,-3.3382,-3.3577,-3.3382,-3.3382,-3.3577,-3.3894,-3.407,-3.407,-3.461,-3.5088,-3.5415,-3.5816,-3.6211,-3.6554,-3.7741,-3.8877,-3.9859,-4.0075,-4.0529,-4.1209,-4.1209,-4.1209,-4.1241,-4.1711,-4.1905,-4.1905,-4.1905,-4.2342,-4.299,-4.299,-4.3298,-4.3638,0.0,-1.0161,-0.9908,-1.0245,-0.9845,0.0,0.0,0.0,0.0,0.0,0.0,0.0,0.0,0.0,0.0,0.0,0.0,-1.271,-1.4105,-1.596,-1.7796,-1.9408,-1.9612,-2.0089,-2.0973,-2.0974,-2.1329,-2.2014,-2.2389,-2.2749,-2.3078,-2.3078,-2.3078,-2.3017,-2.3017,-2.3017,-2.3017,-2.3017,-2.313,-2.3267,-2.2454,-2.1989,-2.1651,-2.1197,-1.9401,0.0,-1.6255,-1.5318,-1.4441,-1.447,-1.4411,-1.4528,-1.5718,-1.7086,-1.8534,-2.0348,-2.1611,-2.2639,-2.3721,-2.4059,-2.4121,-2.4367,-2.4426,-2.4629,-2.5495,-2.5735,-2.5968,-2.685,-2.7366,-2.7803,-2.816,-2.8886,-2.9477,-2.9602,-3.0502,-3.119,-3.119,-3.2089,-3.279,-3.2982,-3.3212,-3.3452,-3.3839,-3.3716,-3.3632,-3.3839,-3.3701,-3.377,-3.4113,-3.4085,-3.4341,-3.481,-3.5204,-3.5657,-3.6305,-3.6492,-3.7016,-3.7739,-3.8842,-4.0011,-4.1303,-4.1035,-4.1274,-4.1954,-4.1954,-4.1954,-4.2002,-4.2731,-4.3022,-4.3039,-4.3298,-4.3686,-4.4091,-4.4091,-4.4544,-4.5046,0.0,0.0,-1.0353,0.0,0.0,0.0,0.0,0.0,0.0,0.0,0.0,0.0,0.0,0.0,0.0,0.0,0.0,0.0,-1.2565,-1.3994,-1.5552,-1.7183,-1.6822,-1.7123,-1.8373,-1.8007,-1.8647,-2.0341,-2.0999,-2.187,-2.2865,-2.2865,-2.283,-2.2747,-2.271,-2.2698,-2.2698,-2.2673,-2.2946,-2.3257,-2.1543,-2.0459,-1.9612,-1.7979,-1.5984,-1.3903,-1.2887,-1.1888,-1.1057,-1.1191,-1.2058,-1.3152,-1.3332,-1.6434,-2.0054,-2.0156,-2.1637,-2.3223,-2.3289,-2.3328,-2.3616,-2.4726,-2.5014,-2.5279,-2.6153,-2.6347,-2.6556,-2.7355,-2.7128,-2.7053,-2.7844,-2.8664,-2.9233,-2.9456,-3.1148,-3.2412,-3.2412,-3.2932,-3.3507,-3.4016,-3.3632,-3.377,-3.4743,-3.4409,-3.4341,-3.4876,-3.4409,-3.461,-3.5623,-3.4743,-3.481,-3.6133,-3.6211,-3.6631,-3.7358,-3.7417,-3.7975,-3.9054,-3.9694,-4.0582,-4.163,-4.163,-4.2002,-4.2634,-4.2634,-4.2634,-4.2682,-4.3411,-4.3719,-4.3783,-4.4512,-4.4804,-4.4852,-4.4852,-4.5273,-4.5775,0.0,0.0,0.0,0.0,0.0,0.0,0.0,0.0,0.0,0.0,0.0,0.0,0.0,0.0,0.0,0.0,0.0,0.0,-1.1423,-1.2241,-1.3395,-1.5024,-1.5692,-1.6353,-1.7062,-1.7484,-1.7971,-1.8474,-1.8747,-1.9283,-2.0022,-2.0022,-2.0195,-2.0515,-2.0117,-1.9918,-1.9828,-1.9366,-1.9107,-1.8884,-1.8216,-1.7629,-1.7081,-1.6881,-1.5186,-1.2923,-1.2993,-1.1742,-1.0229,-1.1279,-1.3581,-1.6108,-1.6934,-1.852,-2.0297,-2.1457,-2.2476,-2.3406,-2.4282,-2.4831,-2.5236,-2.5524,-2.5615,-2.5759,-2.6448,-2.6579,-2.6683,-2.6892,-2.6645,-2.6264,-2.5657,-2.716,-2.8393,-2.8042,-3.0443,-3.2412,-3.2412,-3.3249,-3.3825,-3.3507,-3.377,-3.4016,-3.4274,-3.4543,-3.4942,-3.5479,-3.5023,-3.4824,-3.5088,-3.5219,-3.5479,-3.5816,-3.6476,-3.6862,-3.7105,-3.7551,-3.8568,-4.0119,-4.028,-4.1083,-4.2359,-4.2359,-4.2456,-4.2634,-4.2634,-4.2634,-4.2682,-4.3411,-4.3719,-4.3783,-4.4512,-4.5095,-4.5548,-4.5548,-4.6002,-4.6585,0.0,0.0,0.0,0.0,0.0,0.0,0.0,0.0,0.0,0.0,0.0,0.0,0.0,0.0,0.0,0.0,0.0,0.0,0.0,-1.0894,-1.17,-1.2854,-1.3215,-1.373,-1.4526,-1.4773,-1.5384,-1.6328,-1.6473,-1.7127,-1.8149,-1.7912,-1.7915,-1.8104,-1.7795,-1.7659,-1.7575,-1.7267,-1.7119,0.0,0.0,-1.5484,-1.4849,-1.4357,-1.2878,-1.1104,-1.1486,-1.1729,-1.2127,-1.368,-1.5803,-1.7996,-1.8995,-2.0105,-2.1261,-2.2424,-2.3328,-2.4125,-2.4792,-2.538,-2.5876,-2.6138,-2.619,-2.6216,-2.6282,-2.6308,-2.6086,-2.5315,-2.4879,-2.4368,-2.3577,-2.5463,-2.7119,-2.7381,-3.0327,-3.2598,-3.2737,-3.3785,-3.4264,-3.373,-3.4085,-3.4543,-3.4743,-3.5204,-3.5608,-3.6022,-3.5544,-3.535,-3.5608,-3.5688,-3.5894,-3.6289,-3.6846,-3.7345,-3.7583,-3.828,-3.9221,-4.0496,-4.082,-4.1549,-4.2634,-4.2634,-4.2634,-4.2634,-4.2634,-4.2634,-4.2715,-4.3767,-4.4188,-4.4285,-4.5305,-4.5937,-4.6277,-4.6277,-4.6536,-4.6876,0.0,0.0,0.0,0.0,0.0,0.0,0.0,0.0,0.0,0.0,0.0,-0.9569,-0.9497,-0.9497,0.0,0.0,0.0,0.0,0.0,0.0,-1.0413,-1.087,-1.051,-1.0738,-1.1652,-1.1417,-1.2176,-1.4047,-1.4173,-1.4977,-1.6423,-1.5954,-1.5738,-1.5642,-1.5569,-1.5545,-1.5532,-1.5459,-1.5666,-1.5898,-1.4511,-1.3519,-1.2723,0.0,-1.0172,-0.9255,-0.9695,-1.1868,-1.4835,-1.6823,-1.827,-1.9378,-2.0335,-2.148,-2.2591,-2.3141,-2.406,-2.4883,-2.504,-2.5445,-2.5981,-2.6621,-2.6791,-2.6621,-2.5968,-2.5759,-2.5197,-2.3367,-2.2531,-2.2049,-2.1661,-2.3619,-2.5697,-2.7014,-3.0214,-3.2778,-3.3353,-3.4296,-3.4759,-3.4142,-3.461,-3.5154,-3.5559,-3.5943,-3.6274,-3.6554,-3.6148,-3.6133,-3.6554,-3.6148,-3.6258,-3.7105,-3.7373,-3.7786,-3.8391,-3.9023,-3.9687,-4.0367,-4.1079,-4.1857,-4.2634,-4.2634,-4.2682,-4.2763,-4.2603,-4.2634,-4.2731,-4.4188,-4.4787,-4.4933,-4.6342,-4.6876,-4.6876,-4.6876,-4.6876,-4.6876,0.0,0.0,0.0,0.0,0.0,0.0,0.0,0.0,0.0,0.0,-1.1255,-0.9977,0.0,0.0,0.0,0.0,0.0,0.0,0.0,0.0,0.0,-0.9761,-1.0096,-1.0401,-1.057,-1.0949,-1.133,-1.1757,-1.1802,-1.2221,-1.3037,-1.2938,-1.3031,-1.3277,-1.2924,-1.273,-1.2612,-1.2143,-1.1789,-1.1502,-1.1161,-1.0654,-1.0064,-0.9805,0.0,0.0,-1.0631,-1.2228,-1.4213,-1.7523,-1.9868,-2.1565,-2.2522,-2.3251,-2.378,-2.3929,-2.4099,-2.4478,-2.5419,-2.5746,-2.6073,-2.7118,-2.7379,-2.7105,-2.6059,-2.5458,-2.4491,-2.2269,-2.1355,-2.0673,-1.9612,-2.1993,-2.4579,-2.6092,-2.9154,-3.19,-3.3736,-3.4511,-3.4742,-3.4153,-3.4942,-3.5415,-3.5088,-3.5737,-3.6414,-3.6877,-3.7013,-3.7074,-3.6938,-3.7013,-3.7282,-3.7711,-3.777,-3.8017,-3.8391,-3.8521,-3.8958,-3.9671,-4.0351,-4.1371,-4.2634,-4.2634,-4.2958,-4.3492,-4.2893,-4.2634,-4.2731,-4.4188,-4.4787,-4.4933,-4.6342,-4.6876,-4.6876,-4.6876,-4.6876,-4.6945,0.0,0.0,0.0,0.0,0.0,0.0,0.0,-1.2432,-1.3348,-1.4898,-1.4466,-1.3275,-1.1363,-1.0425,-0.9797,0.0,0.0,0.0,0.0,0.0,0.0,-0.9497,-0.9737,-0.9869,-0.9829,-1.0108,-1.0413,-1.069,0.0,-1.0622,-1.1204,-1.0924,-1.0876,-1.1027,-1.0834,-1.0684,-1.0588,-1.0307,-1.0056,-0.9829,-0.9801,-0.9592,-0.9313,0.0,0.0,0.0,-1.0956,-1.2741,-1.4855,-1.6896,-1.9638,-2.2334,-2.3412,-2.3936,-2.4112,-2.4112,-2.4543,-2.5118,-2.5667,-2.6255,-2.6844,-2.7392,-2.7523,-2.6987,-2.4936,-2.4021,-2.2779,-1.9865,-1.9054,-1.8597,-1.7748,-2.0136,-2.2724,-2.4423,-2.7591,-3.0516,-3.2496,-3.3734,-3.4288,-3.377,-3.489,-3.5479,-3.4942,-3.5943,-3.6739,-3.6999,-3.7433,-3.7535,-3.721,-3.7298,-3.7519,-3.7886,-3.7886,-3.8075,-3.8391,-3.8764,-3.9509,-4.0577,-4.1274,-4.2359,-4.3751,-4.3751,-4.3735,-4.3686,-4.3346,-4.2974,-4.2731,-4.4188,-4.4787,-4.4933,-4.6342,-4.6876,-4.6876,-4.6876,-4.6876,-4.6945,0.0,0.0,0.0,0.0,0.0,0.0,0.0,-1.4217,-1.5374,-1.7376,-1.7712,-1.6714,-1.3985,-1.2073,-1.063,0.0,0.0,0.0,0.0,0.0,0.0,0.0,0.0,0.0,-0.9408,0.0,0.0,-1.0023,-0.9634,0.0,0.0,0.0,0.0,0.0,-0.9458,-0.942,-0.9354,-0.9473,-0.9493,0.0,0.0,-0.9423,-0.9356,0.0,0.0,0.0,0.0,-1.2979,-1.4977,-1.6441,-1.8963,-2.1747,-2.3276,-2.3916,-2.4112,-2.4112,-2.4844,-2.5667,-2.5785,-2.6569,-2.7379,-2.7497,-2.7523,-2.6765,-2.3877,-2.2779,-2.1433,-1.7917,-1.7199,-1.7068,-1.665,-1.8597,-2.103,-2.3226,-2.6017,-2.8807,-3.1284,-3.293,-3.3782,-3.3479,-3.489,-3.5623,-3.4942,-3.6148,-3.7015,-3.7015,-3.7551,-3.7828,-3.7594,-3.7594,-3.7711,-3.8001,-3.8162,-3.8373,-3.8634,-3.9347,-4.0335,-4.1581,-4.2294,-4.3395,-4.4787,-4.4787,-4.4561,-4.414,-4.3848,-4.3395,-4.2958,-4.4253,-4.4787,-4.4933,-4.6342,-4.6876,-4.6876,-4.6876,-4.6945,-4.7167,0.0,0.0,0.0,0.0,0.0,0.0,0.0,-1.5043,-1.6967,-2.0502,-1.9732,-1.8374,-1.7111,-1.4706,-1.242,0.0,0.0,0.0,0.0,0.0,0.0,0.0,0.0,0.0,0.0,0.0,0.0,-0.9479,-0.9378,0.0,0.0,0.0,0.0,0.0,0.0,-0.9286,-0.924,-0.9734,0.0,0.0,0.0,0.0,0.0,0.0,0.0,0.0,0.0,-1.2409,-1.2972,-1.7251,-1.8597,-1.8976,-2.1707,-2.3289,-2.4112,-2.4112,-2.4557,-2.5158,-2.568,-2.6282,-2.6883,-2.7406,-2.7523,-2.6765,-2.3877,-2.2779,-2.1433,-1.7917,-1.7199,-1.7186,-1.7133,-1.8192,-2.0197,-2.3687,-2.4886,-2.6972,-3.1503,-3.2718,-3.3343,-3.3941,-3.5429,-3.6022,-3.5023,-3.6148,-3.7015,-3.7015,-3.7551,-3.8017,-3.8278,-3.8335,-3.8335,-3.8335,-3.8965,-3.9379,-3.9379,-4.0059,-4.0788,-4.1581,-4.2294,-4.3395,-4.4787,-4.4787,-4.5095,-4.5548,-4.4269,-4.367,-4.367,-4.4464,-4.4787,-4.4933,-4.6342,-4.6876,-4.6876,-4.6876,-4.7235,-4.7688,0.0,0.0,0.0,0.0,0.0,0.0,-1.4754,-1.5516,-1.7279,-2.1463,-2.109,-2.0089,-1.9044,-1.6797,-1.3997,-1.0606,0.0,0.0,0.0,0.0,0.0,0.0,0.0,0.0,0.0,0.0,-0.9381,-0.9328,-0.9354,0.0,0.0,0.0,0.0,0.0,0.0,-0.9259,-0.924,-0.9712,0.0,0.0,0.0,0.0,0.0,0.0,0.0,0.0,0.0,0.0,-1.3474,-1.5996,-1.7408,-1.8296,-1.946,-2.1067,-2.2688,-2.3367,-2.4478,-2.5537,-2.5759,-2.6491,-2.7249,-2.7471,-2.7275,-2.6347,-2.3799,-2.2243,-2.0594,-1.7774,-1.6937,-1.682,-1.7133,-1.7865,-1.9469,-2.2654,-2.3999,-2.5604,-2.8562,-3.0326,-3.1565,-3.2349,-3.3868,-3.4938,-3.534,-3.6148,-3.6862,-3.721,-3.7653,-3.8075,-3.8391,-3.8812,-3.9055,-3.9055,-3.9735,-4.0302,-4.0739,-4.1436,-4.2359,-4.3508,-4.4221,-4.5079,-4.605,-4.605,-4.5969,-4.5743,-4.4787,-4.4366,-4.4383,-4.4674,-4.503,-4.55,-4.6488,-4.6961,-4.7098,-4.7505,-4.7836,-4.8242,0.0,0.0,0.0,0.0,0.0,-1.2109,-1.5097,-1.596,-1.7664,-2.1572,-2.1403,-2.0752,-2.0249,-1.7472,-1.455,-1.1724,-1.0281,0.0,0.0,0.0,0.0,0.0,0.0,0.0,0.0,0.0,-0.9678,-0.9927,-0.9956,-0.9927,0.0,0.0,-0.9606,-0.9442,0.0,0.0,0.0,0.0,0.0,0.0,0.0,0.0,0.0,0.0,0.0,0.0,0.0,0.0,0.0,0.0,0.0,-1.7891,-1.8231,-1.9447,-2.1041,-2.2531,-2.4204,-2.5615,-2.5785,-2.6661,-2.7523,-2.7523,-2.7105,-2.6073,-2.3746,-2.2021,-2.0306,-1.7944,-1.7016,-1.6754,-1.7133,-1.7695,-1.8909,-2.145,-2.2746,-2.4242,-2.6498,-2.844,-2.9896,-3.0673,-3.2287,-3.3759,-3.4823,-3.5856,-3.6739,-3.7254,-3.7594,-3.7982,-3.8527,-3.9337,-3.9687,-3.9493,-4.0545,-4.1371,-4.1873,-4.2812,-4.3881,-4.5095,-4.5565,-4.618,-4.6876,-4.6876,-4.6601,-4.6083,-4.5469,-4.5161,-4.5161,-4.5227,-4.552,-4.5956,-4.6754,-4.7218,-4.7538,-4.8015,-4.8509,-4.9023,0.0,0.0,0.0,0.0,0.0,0.0,-1.4617,-1.6344,-1.8362,-2.1067,-2.0466,-2.0009,-2.055,-1.6353,-1.3722,-1.4217,-1.1327,0.0,0.0,0.0,0.0,0.0,0.0,0.0,0.0,0.0,-1.0367,-1.1386,-1.133,-1.1263,-1.1251,-1.0814,-1.0309,-0.9781,0.0,0.0,0.0,0.0,0.0,0.0,0.0,0.0,0.0,0.0,0.0,0.0,0.0,0.0,0.0,0.0,0.0,0.0,0.0,-1.8911,-1.9381,-2.1694,-2.366,-2.5105,-2.5667,-2.6661,-2.7523,-2.7523,-2.7105,-2.6073,-2.3746,-2.2322,-2.0858,-1.8558,-1.7617,-1.7186,-1.7199,-1.7695,-1.8645,-2.0365,-2.1152,-2.2734,-2.6315,-2.7625,-2.8572,-2.9515,-3.1248,-3.2581,-3.2983,-3.5154,-3.6616,-3.6999,-3.7254,-3.7852,-3.8942,-3.993,-4.0173,-3.9493,-4.1517,-4.2555,-4.2618,-4.4043,-4.5111,-4.5791,-4.5807,-4.618,-4.6876,-4.6876,-4.6876,-4.6828,-4.6334,-4.6092,-4.6092,-4.6307,-4.6307,-4.6173,-4.7125,-4.7737,-4.8111,-4.8336,-4.9127,-5.0102,0.0,0.0,0.0,0.0,0.0,0.0,0.0,-1.4466,-1.6167,-1.8539,-1.7798,-1.7484,-1.8491,-1.5223,-1.3023,-1.3192,-1.093,0.0,0.0,0.0,0.0,0.0,0.0,0.0,0.0,0.0,-1.1271,-1.1966,-1.2277,-1.2611,-1.2846,-1.1652,-1.1009,-1.0759,-0.9609,-0.9173,0.0,0.0,0.0,0.0,0.0,0.0,0.0,0.0,0.0,0.0,0.0,0.0,0.0,0.0,0.0,0.0,0.0,0.0,0.0,-1.9682,-2.1786,-2.3812,-2.3995,-2.4896,-2.568,-2.5301,-2.5053,-2.4426,-2.2492,-2.1472,-2.0388,-1.8493,-1.7617,-1.7329,-1.7735,-1.763,-1.8508,-2.1599,-2.244,-2.3426,-2.5522,-2.8213,-3.0007,-3.0075,-3.3125,-3.5232,-3.5399,-3.6029,-3.6616,-3.6938,-3.727,-3.763,-3.8222,-3.9656,-4.0626,-4.0901,-4.2035,-4.286,-4.3362,-4.4318,-4.5144,-4.5807,-4.6309,-4.6666,-4.6876,-4.6876,-4.6961,-4.7066,-4.6401,-4.6452,-4.701,-4.6585,-4.6684,-4.7142,-4.7852,-4.8225,-4.8555,-4.9512,-5.0124,-5.064,0.0,0.0,0.0,0.0,0.0,0.0,0.0,-1.3312,-1.4655,-1.6442,-1.5651,-1.5543,-1.7108,-1.4002,-1.2109,-1.2938,-1.0858,0.0,0.0,0.0,0.0,0.0,0.0,0.0,-1.1269,-1.1352,-1.2115,-1.3605,-1.3732,-1.4094,-1.4706,-1.3581,-1.2536,-1.1561,-1.0435,-0.9712,0.0,0.0,0.0,0.0,0.0,0.0,-1.1915,0.0,0.0,0.0,0.0,0.0,0.0,0.0,0.0,0.0,0.0,0.0,0.0,0.0,-2.0022,-2.1786,-2.2662,-2.3746,-2.4557,-2.4204,-2.3785,-2.3106,-2.1812,-2.0727,-1.9643,-1.8362,-1.7617,-1.7316,-1.7695,-1.7643,-1.8332,-2.078,-2.1897,-2.3097,-2.5098,-2.7847,-3.0045,-3.1001,-3.368,-3.5523,-3.5722,-3.6184,-3.6554,-3.6816,-3.7445,-3.8042,-3.8492,-4.0031,-4.1225,-4.1954,-4.2666,-4.3249,-4.3719,-4.4431,-4.4998,-4.5435,-4.6131,-4.6471,-4.6488,-4.6763,-4.6961,-4.7082,-4.6778,-4.6977,0.0,-4.7111,-4.7358,-4.7934,-4.8416,-4.8866,-4.9393,-5.0293,-5.0839,-5.1193,0.0,0.0,0.0,0.0,0.0,0.0,0.0,-1.2733,-1.3756,-1.4713,-1.3985,-1.4105,-1.6032,-1.2674,-1.1039,-1.3047,0.0,0.0,0.0,0.0,0.0,0.0,0.0,0.0,-1.209,-1.1687,-1.2904,-1.5856,-1.5487,-1.5833,-1.6823,-1.6353,-1.476,-1.2371,-1.1757,-1.0902,0.0,0.0,0.0,0.0,-1.2301,-1.2744,0.0,0.0,0.0,0.0,0.0,0.0,0.0,0.0,0.0,0.0,0.0,0.0,0.0,0.0,0.0,0.0,0.0,-2.2844,-2.3799,-2.3759,-2.2962,-2.2074,-2.1407,-2.0048,0.0,-1.8153,-1.7591,-1.7225,-1.7345,-1.7751,-1.8232,-1.8789,-2.0257,-2.2306,-2.5191,-2.7166,-2.9431,-3.2527,-3.3661,-3.4364,-3.4829,-3.5983,-3.6692,-3.6692,-3.7871,-3.8885,-3.9612,-4.0871,-4.1873,-4.2537,-4.3249,-4.3638,-4.3638,-4.435,-4.4706,-4.4723,-4.5451,-4.5807,-4.584,-4.6552,-4.6892,-4.6961,-4.7335,-4.7537,-4.7604,-4.7935,-4.8322,-4.868,-4.8944,-4.9646,-5.057,-5.0785,-5.1193,-5.169,0.0,0.0,0.0,0.0,0.0,0.0,0.0,0.0,0.0,0.0,-1.2579,-1.2364,-1.2938,-1.1027,-0.9881,0.0,0.0,0.0,0.0,0.0,0.0,0.0,0.0,0.0,-1.2102,-1.272,-1.3788,-1.5292,-1.6703,-1.7903,-1.8856,-1.8406,-1.7162,-1.5281,-1.395,-1.2503,0.0,0.0,0.0,0.0,-1.3811,-1.4246,0.0,0.0,0.0,0.0,-1.6807,-1.7473,0.0,0.0,0.0,0.0,0.0,0.0,0.0,0.0,-1.6885,-1.7107,-1.7643,0.0,-2.0701,-2.0244,-2.027,-2.0139,0.0,-1.8911,-1.8623,-1.7617,-1.7303,-1.7629,-1.8936,-1.8476,-1.8868,-2.1903,-2.3079,-2.4538,-2.7054,-3.0761,-3.4379,-3.7443,-3.7597,-3.7754,-3.8696,-3.8541,-3.8528,-3.8842,-3.9356,-3.97,-3.9875,-4.0994,-4.1646,-4.1808,-4.2504,-4.2877,-4.2877,-4.3605,-4.3962,-4.3978,-4.5208,-4.5807,-4.584,-4.6552,-4.703,-4.7335,-4.747,-4.7886,-4.8606,-4.8668,-4.9006,-4.9571,-5.0142,-5.0512,-5.0785,-5.1297,-5.1589,-5.169,0.0,0.0,0.0,0.0,0.0,0.0,0.0,0.0,0.0,0.0,0.0,0.0,0.0,0.0,0.0,0.0,0.0,0.0,0.0,0.0,0.0,0.0,0.0,-1.1907,-1.2102,-1.2858,-1.4108,-1.5764,-1.7086,-1.8614,-2.0229,-1.9974,-1.8722,-1.6566,-1.425,-1.2817,0.0,0.0,0.0,-1.3632,-1.4688,0.0,0.0,0.0,0.0,0.0,-1.7094,-1.7591,0.0,-1.8009,-1.8388,-1.8728,0.0,0.0,0.0,0.0,-1.5983,-1.5983,-1.5983,-1.7852,-1.9721,-1.9394,-1.9564,-1.9643,-1.9028,-1.8493,-1.7944,-1.7329,-1.7352,-1.7785,-1.8795,-1.9586,-2.0538,-2.2072,-2.4553,-2.7429,-3.0552,-3.3955,-3.6807,-3.878,-3.9148,-3.9346,-3.9589,-3.9422,-3.9393,-3.9581,-4.0178,-4.0478,-4.0478,-4.1477,-4.2067,-4.2067,-4.2423,-4.2634,-4.2634,-4.3022,-4.3217,-4.3233,-4.4318,-4.4852,-4.4868,-4.5597,-4.6056,-4.6388,-4.6683,-4.7224,-4.7764,-4.8107,-4.8822,-4.9754,-5.0134,-5.0647,-5.1245,-5.1589,-5.169,-5.169,0.0,0.0,0.0,0.0,0.0,0.0,0.0,0.0,0.0,0.0,0.0,0.0,0.0,0.0,0.0,0.0,0.0,0.0,0.0,0.0,0.0,0.0,0.0,-1.1641,-1.229,-1.2779,-1.4176,-1.6594,-1.7351,-1.8939,-2.1267,-2.1383,-2.0011,-1.7255,-1.4325,-1.3082,0.0,0.0,-1.368,-1.5056,-1.5312,0.0,0.0,0.0,0.0,0.0,0.0,0.0,0.0,-1.8519,-1.9041,-1.9342,-1.8192,0.0,0.0,0.0,0.0,0.0,-1.5652,-1.7761,-1.9745,-1.9389,-1.9533,-1.9711,-1.9541,-1.8346,-1.7323,-1.7393,-1.7706,-1.8221,-1.8961,-2.104,-2.2569,-2.2222,-2.6079,-3.0386,-3.4109,-3.6368,-3.7938,-3.8723,-3.9672,-4.0041,-3.9591,-3.9819,-4.0023,-4.0023,-4.0831,-4.1355,-4.1355,-4.2106,-4.2634,-4.2634,-4.2634,-4.2634,-4.2634,-4.2634,-4.2634,-4.2587,-4.3362,-4.3719,-4.3735,-4.4464,-4.4952,-4.5178,-4.5868,-4.6354,-4.6743,-4.7374,-4.8396,-4.9538,-4.9538,-5.036,-5.1512,-5.1512,-5.1583,-5.169,0.0,0.0,0.0,0.0,0.0,0.0,0.0,0.0,0.0,0.0,0.0,0.0,0.0,0.0,0.0,0.0,0.0,0.0,0.0,0.0,0.0,0.0,-1.0784,-1.1757,-1.3262,-1.3482,-1.4679,-1.6904,-1.8802,-2.0655,-2.2356,-2.3245,-2.186,-1.8565,-1.7115,-1.5437,-1.3765,-1.5153,-1.5346,-1.4823,-1.6297,0.0,0.0,0.0,0.0,0.0,0.0,0.0,0.0,-1.7604,-1.7865,-1.8166,-1.7016,0.0,0.0,0.0,0.0,0.0,-1.6403,-1.8413,-1.9475,-1.7431,-1.8299,-1.9333,-1.8353,-1.7909,-1.7828,-1.8226,-1.8562,-1.9894,-2.3429,-2.3201,-2.3748,-2.7673,-3.0066,-3.2311,-3.4939,-3.7076,-3.8816,-4.0078,-4.065,-4.1236,-4.1976,-4.1882,-4.1853,-4.2106,-4.2282,-4.2393,-4.2393,-4.2506,-4.2634,-4.2634,-4.2634,-4.2634,-4.2634,-4.2634,-4.2634,-4.2587,-4.3362,-4.3719,-4.3735,-4.4464,-4.5178,-4.5913,-4.6018,-4.6833,-4.8102,-4.8225,-4.8675,-4.935,-4.935,-4.988,-5.0691,-5.0691,-5.1119,-5.169,0.0,0.0,0.0,0.0,0.0,0.0,0.0,0.0,0.0,0.0,0.0,0.0,0.0,0.0,0.0,0.0,0.0,0.0,0.0,0.0,0.0,-1.1782,-1.2175,-1.2638,-1.3215,-1.4737,-1.6754,-1.9256,-2.1108,-2.3157,-2.52,-2.3811,-2.1833,-1.9303,-1.7212,-1.5696,-1.4742,-1.5212,-1.5474,-1.563,0.0,0.0,0.0,0.0,0.0,0.0,0.0,0.0,0.0,0.0,-1.7865,-1.7904,-1.6754,0.0,0.0,0.0,0.0,0.0,-1.5755,-1.7518,-1.8893,-1.881,-2.0801,-2.2752,-2.2546,-2.2282,-2.1993,-2.1456,-2.196,-2.3065,-2.507,-2.6083,-2.8156,-3.2627,-3.2974,-3.3609,-3.623,-3.7692,-3.8877,-3.9862,-4.096,-4.1669,-4.181,-4.1976,-4.2174,-4.2302,-4.2508,-4.2634,-4.2634,-4.2634,-4.2634,-4.2634,-4.2634,-4.2634,-4.2634,-4.2634,-4.2634,-4.2634,-4.2974,-4.3136,-4.3136,-4.354,-4.4204,-4.4984,-4.5375,-4.6158,-4.7222,-4.7519,-4.8045,-4.871,-4.871,-4.9174,-4.9906,-5.0352,-5.0727,-5.1119,0.0,0.0,0.0,0.0,0.0,0.0,0.0,0.0,0.0,0.0,0.0,0.0,0.0,0.0,0.0,0.0,0.0,0.0,0.0,0.0,-1.1374,-1.2809,-1.3689,-1.429,-1.4513,-1.6622,-1.9101,-2.1885,-2.3372,-2.5152,-2.705,-2.4275,-2.1838,-1.9647,-1.7342,-1.5996,-1.5449,-1.5291,-1.567,-1.6402,0.0,0.0,0.0,0.0,0.0,0.0,0.0,0.0,0.0,0.0,0.0,0.0,0.0,0.0,0.0,-1.4713,-1.4211,-1.4392,-1.5702,-1.7195,-1.8852,-2.099,-2.3006,-2.4843,-2.6192,-2.5739,-2.4989,-2.4849,-2.5408,-2.606,-2.6582,-2.9063,-3.2081,-3.526,-3.4706,-3.4675,-3.6953,-3.7984,-3.8708,-3.9216,-4.0805,-4.1632,-4.1117,-4.172,-4.2109,-4.2109,-4.2445,-4.2634,-4.2634,-4.2634,-4.2634,-4.2634,-4.2634,-4.2634,-4.2634,-4.2634,-4.2634,-4.2634,-4.2634,-4.2634,-4.2634,-4.2929,-4.3486,-4.4249,-4.4966,-4.5683,-4.6429,-4.6842,-4.7354,-4.7907,-4.7907,-4.8371,-4.9139,-4.9942,-5.0276,-5.0401,0.0,0.0,0.0,0.0,0.0,0.0,0.0,0.0,0.0,0.0,0.0,0.0,0.0,0.0,0.0,0.0,0.0,0.0,0.0,0.0,-1.1165,-1.1776,-1.4634,-1.706,-1.9008,-1.9422,-2.1016,-2.3871,-2.5052,-2.575,-2.5876,-2.5133,-2.2932,-1.959,-1.8943,-1.7401,-1.5376,-1.6544,-1.6767,-1.6441,-1.6937,0.0,0.0,0.0,0.0,0.0,0.0,0.0,0.0,0.0,0.0,0.0,0.0,0.0,-1.5601,-1.5874,-1.5486,-1.5488,-1.7749,-1.8867,-2.0094,-2.3054,-2.2587,-2.2307,-2.5738,-2.4505,-2.3642,-2.7076,-2.7614,-2.7971,-2.9669,-3.1743,-3.3275,-3.3583,-3.4583,-3.563,-3.6445,-3.7692,-3.8523,-3.8585,-4.0106,-4.1117,-4.1138,-4.172,-4.2109,-4.2109,-4.2445,-4.2634,-4.2634,-4.2634,-4.2634,-4.2634,-4.2634,-4.2634,-4.2634,-4.2634,-4.2634,-4.2634,-4.2634,-4.2634,-4.2618,-4.3333,-4.4028,-4.479,-4.5528,-4.628,-4.6952,-4.698,-4.7015,-4.7087,-4.7087,-4.7568,-4.84,-4.9234,-4.9567,-4.9722,0.0,0.0,0.0,0.0,0.0,0.0,0.0,0.0,0.0,0.0,0.0,0.0,0.0,0.0,0.0,0.0,0.0,0.0,0.0,0.0,-1.2165,-1.3467,-1.5684,-1.7757,-1.9651,-2.1511,-2.4073,-2.7327,-2.8114,-2.8079,-2.7385,-2.4619,-2.2283,-2.0182,-1.8231,-1.7014,-1.6478,-1.6663,-1.6781,-1.6911,-1.712,-1.7199,0.0,0.0,0.0,0.0,0.0,0.0,0.0,0.0,-1.6745,-1.7006,-1.6824,-1.7047,-1.7319,-1.6653,-1.6034,-1.5865,-1.7333,-1.8592,-2.0131,-2.2798,-2.3269,-2.4031,-2.7507,-2.8484,-2.9053,-3.0508,-3.0983,-3.1427,-3.2112,-3.3952,-3.5183,-3.4768,-3.5491,-3.6353,-3.703,-3.7923,-3.8662,-3.9093,-4.009,-4.0799,-4.107,-4.1522,-4.1851,-4.2109,-4.2445,-4.2634,-4.2634,-4.2634,-4.2634,-4.2634,-4.2634,-4.2634,-4.2634,-4.2634,-4.2634,-4.2775,-4.2634,-4.2696,-4.2821,-4.3529,-4.4288,-4.502,-4.5784,-4.6411,-4.6998,-4.6998,-4.6998,-4.6998,-4.7088,-4.733,-4.767,-4.855,-4.8865,-4.909,0.0,0.0,0.0,0.0,0.0,0.0,0.0,0.0,0.0,0.0,0.0,0.0,0.0,0.0,0.0,0.0,0.0,0.0,-1.0122,-1.1172,-1.2376,-1.3722,-1.563,-1.7643,-1.976,-2.2452,-2.5262,-2.819,-2.9118,-2.8804,-2.7223,-2.3942,-2.1877,-2.0755,-1.8296,-1.7499,-1.7913,-1.7238,-1.7146,-1.7473,-1.7277,-1.7199,0.0,0.0,0.0,0.0,0.0,0.0,0.0,0.0,-1.6324,-1.6825,-1.6711,-1.7152,-1.7574,-1.7035,-1.6904,-1.7093,-1.7719,-1.893,-2.0602,-2.2879,-2.405,-2.5518,-2.895,-3.0458,-3.1551,-3.3059,-3.3383,-3.3537,-3.3983,-3.486,-3.5507,-3.5476,-3.6045,-3.6661,-3.7123,-3.7938,-3.8677,-3.9272,-4.0121,-4.0867,-4.1189,-4.1588,-4.1851,-4.2109,-4.2445,-4.2634,-4.2634,-4.2634,-4.2634,-4.2634,-4.2634,-4.2634,-4.2634,-4.2634,-4.2743,-4.3007,-4.2958,-4.3019,-4.3279,-4.3997,-4.4712,-4.5407,-4.6119,-4.6637,-4.6998,-4.6998,-4.6998,-4.698,-4.7133,-4.734,-4.7671,-4.8326,-4.8713,-4.9154,0.0,0.0,0.0,0.0,0.0,0.0,0.0,0.0,-0.9497,-0.9497,-0.9446,0.0,0.0,0.0,0.0,0.0,0.0,0.0,-1.0474,-1.0939,-1.1435,-1.1981,-1.4258,-1.6833,-1.9695,-2.2008,-2.4047,-2.5824,-2.7523,-2.7183,-2.4909,-2.3197,-2.2007,-2.1225,-1.9621,-1.9178,-1.9538,-1.8526,-1.81,-1.8061,-1.7447,-1.7212,-1.7253,0.0,0.0,0.0,0.0,0.0,0.0,0.0,-1.5703,-1.4744,-1.722,-1.6984,-1.5919,-1.6901,-1.8232,-1.9391,-1.9391,-2.0279,-2.1697,-2.3713,-2.4783,-2.6241,-2.9658,-2.9396,-2.9781,-3.4506,-3.4398,-3.3844,-3.523,-3.4368,-3.3875,-3.526,-3.6045,-3.6492,-3.6507,-3.7661,-3.8623,-3.8947,-4.0212,-4.1256,-4.1588,-4.1916,-4.2109,-4.2109,-4.2429,-4.2634,-4.2634,-4.2634,-4.2634,-4.2634,-4.2634,-4.2634,-4.2634,-4.2634,-4.2851,-4.3306,-4.3555,-4.3773,-4.4037,-4.4766,-4.5407,-4.595,-4.6666,-4.6998,-4.6998,-4.6998,-4.6998,-4.698,-4.7133,-4.768,-4.8406,-4.8632,-4.9207,-5.0028,0.0,0.0,0.0,0.0,0.0,0.0,0.0,0.0,-0.9497,-0.9497,-0.9485,0.0,0.0,0.0,0.0,0.0,0.0,0.0,-1.0485,-1.0939,-1.1435,-1.1981,-1.4258,-1.5892,-1.6754,-1.942,-2.2465,-2.5824,-2.5929,-2.521,-2.3694,-2.1982,-2.108,-2.0858,-1.9943,-1.9347,-1.906,-1.8401,-1.8323,-1.861,-1.8061,-1.7985,-1.8256,0.0,0.0,0.0,0.0,0.0,0.0,0.0,0.0,0.0,-1.675,-1.8023,-1.9144,-1.8089,-1.841,-1.9015,-1.8549,-2.0112,-2.2171,-2.3228,-2.5889,-2.8704,-3.0658,-3.1151,-3.2028,-3.4891,-3.5537,-3.5553,-3.5491,-3.5537,-3.5553,-3.5491,-3.6045,-3.6661,-3.7138,-3.7729,-3.8525,-3.9651,-4.03,-4.1035,-4.1868,-4.2045,-4.2174,-4.2429,-4.2571,-4.2634,-4.2634,-4.2634,-4.2634,-4.2634,-4.2634,-4.2634,-4.2634,-4.2759,-4.3157,-4.3806,-4.398,-4.4226,-4.4524,-4.5285,-4.5835,-4.6151,-4.6731,-4.6998,-4.6998,-4.6998,-4.6998,-4.698,-4.7133,-4.7366,-4.7707,-4.8442,-4.8908,-4.9412,0.0,0.0,0.0,0.0,0.0,0.0,-0.9458,-0.9446,-0.9446,-0.9446,-0.9446,-0.9499,0.0,0.0,0.0,-1.0298,-1.0273,-1.0428,-1.092,-1.1097,-1.154,-1.2307,-1.3945,-1.5356,-1.6506,-1.8898,-2.1002,-2.2753,-2.3315,-2.3001,-2.1851,-2.1498,-2.138,-2.138,-2.1211,-2.0701,-1.9891,-1.9107,-1.8969,-1.9176,-1.8605,-1.8609,-1.899,0.0,0.0,0.0,0.0,0.0,0.0,0.0,0.0,0.0,-1.6245,-1.7477,-1.8876,-1.8551,-1.9314,-2.0421,-2.0767,-2.2355,-2.4204,-2.5691,-2.7549,-2.9566,-3.1705,-3.2936,-3.3983,-3.523,-3.5814,-3.6045,-3.5907,-3.6106,-3.6229,-3.609,-3.6521,-3.6986,-3.739,-3.7872,-3.8544,-3.9535,-4.0056,-4.0721,-4.1819,-4.1884,-4.2075,-4.2539,-4.2634,-4.2634,-4.2634,-4.2696,-4.2696,-4.2696,-4.2759,-4.2805,-4.2805,-4.2945,-4.3295,-4.3956,-4.4339,-4.4783,-4.5142,-4.5734,-4.62,-4.6542,-4.6842,-4.6998,-4.6998,-4.6998,-4.6998,-4.698,-4.7133,-4.7447,-4.7841,-4.8478,-4.9205,-4.9999,0.0,0.0,0.0,0.0,0.0,0.0,-0.9408,-0.9408,-0.9408,-0.9408,-0.9408,-0.954,0.0,0.0,0.0,-1.0656,-1.0527,-1.074,-1.148,-1.1375,-1.1777,-1.2834,-1.3657,-1.5369,-1.8114,-1.9638,-1.9598,-1.7944,-2.0178,-2.0714,-1.9682,-2.1407,-2.2284,-2.2363,-2.2831,-2.2426,-2.1276,-2.0122,-1.9615,-1.9554,-1.8971,-1.9045,-1.944,-1.9181,0.0,0.0,0.0,0.0,0.0,0.0,0.0,0.0,-1.5799,-1.6046,-1.6542,-1.8327,-2.0461,-2.2671,-2.4379,-2.561,-2.7011,-2.9673,-2.9643,-2.975,-3.2813,-3.4596,-3.5536,-3.5491,-3.5537,-3.5768,-3.6446,-3.6273,-3.6235,-3.689,-3.727,-3.7417,-3.7417,-3.7954,-3.8518,-3.8914,-3.955,-4.0344,-4.1403,-4.1468,-4.1743,-4.2391,-4.2488,-4.2537,-4.2537,-4.2743,-4.2899,-4.2899,-4.3052,-4.3113,-4.3113,-4.3113,-4.3355,-4.3831,-4.4729,-4.539,-4.5837,-4.6137,-4.6542,-4.6998,-4.6998,-4.6998,-4.6998,-4.6998,-4.6998,-4.698,-4.7133,-4.7698,-4.8416,-4.8622,-4.973,-5.1086,0.0,0.0,0.0,0.0,0.0,0.0,-0.9408,-0.9408,-0.9408,-0.9408,-0.9408,-0.954,-0.988,-1.0097,0.0,-1.0681,-1.1077,-1.1186,-1.0911,-1.1494,-1.2167,-1.286,-1.5186,-1.7173,-1.8702,-1.8218,-1.7552,-1.6767,-1.8571,-1.912,-1.8506,-2.0267,-2.1315,-2.1694,-2.1825,-2.1237,-2.0061,-1.8693,-1.8446,-1.8872,-1.8549,-1.8979,-1.9732,-1.9219,-1.841,0.0,0.0,0.0,0.0,0.0,0.0,0.0,-1.5926,-1.6771,-1.7548,-1.6995,-1.9405,-2.2147,-2.1553,-2.3794,-2.6872,-2.9073,-3.1413,-3.3367,-3.4075,-3.5053,-3.576,-3.5536,-3.5907,-3.6384,-3.68,-3.6814,-3.6872,-3.7222,-3.7358,-3.7417,-3.7417,-3.778,-3.8259,-3.8926,-3.9371,-3.9903,-4.0658,-4.0723,-4.0788,-4.0934,-4.1484,-4.1808,-4.1808,-4.2528,-4.2899,-4.2899,-4.3052,-4.3113,-4.3113,-4.3251,-4.3578,-4.4128,-4.4875,-4.558,-4.6137,-4.659,-4.6888,-4.6998,-4.6998,-4.6998,-4.6998,-4.6998,-4.6998,-4.698,-4.7133,-4.7357,-4.7643,-4.8424,-4.8981,-4.9601,0.0,0.0,0.0,0.0,0.0,0.0,0.0,0.0,-0.9381,-0.9354,-0.9487,-0.9698,-0.9919,-1.0223,0.0,0.0,-1.0942,-1.1173,-1.1415,-1.1781,-1.2503,-1.3657,-1.5944,-1.7225,-1.7264,-1.6689,-1.6245,-1.5957,-1.6545,-1.7133,-1.7708,-1.9769,-2.1013,-2.1525,-2.1996,-2.1266,-1.9569,-1.8735,-1.8589,-1.8871,-1.8758,-1.9109,-1.9721,-1.909,-1.8199,-1.7113,-1.6335,0.0,0.0,0.0,0.0,0.0,0.0,0.0,-1.7196,-1.7562,-1.9177,-2.1152,-2.2347,-2.4555,-2.7208,-3.0105,-3.2382,-3.3958,-3.3958,-3.4836,-3.5629,-3.5455,-3.6266,-3.6952,-3.715,-3.7329,-3.7508,-3.7594,-3.777,-3.7902,-3.7902,-3.8017,-3.8293,-3.8679,-3.8843,-3.9233,-3.993,-4.0011,-4.014,-4.0464,-4.0853,-4.1047,-4.1047,-4.1662,-4.1994,-4.1994,-4.2545,-4.2785,-4.2742,-4.3531,-4.403,-4.4226,-4.525,-4.6003,-4.659,-4.6888,-4.6998,-4.6998,-4.6998,-4.6998,-4.6998,-4.6998,-4.6998,-4.698,-4.7133,-4.7249,-4.7356,-4.7937,-4.8439,-4.9039,0.0,0.0,0.0,0.0,0.0,0.0,0.0,0.0,0.0,-0.9301,-0.9579,-0.9828,-0.997,-1.0378,-1.067,0.0,0.0,0.0,-1.1998,-1.2029,-1.2724,-1.4389,-1.5931,-1.6349,-1.5513,-1.5395,-1.5343,-1.5343,-1.4905,-1.5638,-1.7549,-1.9687,-2.1009,-2.1667,-2.2347,-2.1461,-1.936,-1.8852,-1.8711,-1.8738,-1.8608,-1.8853,-1.9256,-1.8493,-1.752,-1.6458,-1.5858,-1.5634,-1.5649,-1.5782,0.0,0.0,0.0,0.0,-1.6276,-1.8069,-1.8932,-1.9996,-2.3209,-2.5579,-2.7995,-3.1602,-3.3056,-3.3688,-3.3814,-3.4786,-3.5712,-3.5823,-3.6685,-3.7417,-3.7476,-3.7695,-3.7943,-3.796,-3.8205,-3.8391,-3.8391,-3.8391,-3.8391,-3.8391,-3.8391,-3.8634,-3.9233,-3.9298,-3.9525,-4.0092,-4.0254,-4.0318,-4.0378,-4.0802,-4.1041,-4.114,-4.2137,-4.2617,-4.2634,-4.3962,-4.4524,-4.4378,-4.5631,-4.6495,-4.6998,-4.6998,-4.6998,-4.6998,-4.6998,-4.6998,-4.6998,-4.6998,-4.6998,-4.698,-4.7178,-4.7249,-4.7302,-4.7468,-4.803,-4.8731,0.0,0.0,0.0,0.0,0.0,0.0,0.0,0.0,0.0,0.0,-0.9499,-0.971,-0.997,-1.0651,-1.1216,-1.1467,-1.1776,-1.1854,-1.1522,0.0,0.0,-1.384,-1.4572,-1.5108,-1.5487,-1.4977,-1.4716,-1.4716,-1.494,-1.6285,-1.8712,-1.9926,-2.1124,-2.2163,-2.1649,-2.068,-1.9252,-1.7337,-1.6848,-1.7316,-1.6542,-1.6936,-1.7849,-1.6623,-1.6083,-1.5844,-1.5254,-1.5014,-1.5116,-1.5758,-1.6011,0.0,0.0,0.0,-1.538,-1.5668,-1.7422,-1.9287,-1.9175,-2.3747,-2.9296,-3.2408,-3.413,-3.5268,-3.5837,-3.6365,-3.6853,-3.7428,-3.7467,-3.7476,-3.777,-3.7886,-3.8017,-3.8278,-3.8391,-3.8391,-3.8391,-3.8391,-3.8391,-3.8391,-3.8391,-3.844,-3.8537,-3.8537,-3.8586,-3.8667,-3.925,-3.9664,-3.978,-4.054,-4.1255,-4.1875,-4.2762,-4.3461,-4.3853,-4.4766,-4.5197,-4.5144,-4.5852,-4.6495,-4.6998,-4.6998,-4.6998,-4.6998,-4.6998,-4.6998,-4.6998,-4.6998,-4.6998,-4.7025,-4.7187,-4.7302,-4.732,-4.7572,-4.7729,-4.7971,0.0,0.0,0.0,0.0,0.0,0.0,0.0,0.0,0.0,0.0,0.0,-1.0456,-1.0033,-1.0795,-1.1335,-1.1375,-1.1547,-1.1663,-1.1742,-1.1979,-1.2462,-1.3252,-1.3598,-1.3861,-1.4023,-1.3461,-1.3717,-1.49,-1.4009,-1.5827,-2.0158,-2.0316,-2.1215,-2.2706,-2.1561,-2.0359,-1.9053,-1.6847,-1.6097,-1.6319,-1.5548,-1.6728,-1.8714,-1.6608,-1.6548,-1.7363,-1.5538,-1.4905,-1.5019,-1.5318,-1.5735,-1.6095,-1.6095,0.0,0.0,0.0,-1.5791,-1.7157,-2.0413,-2.508,-2.988,-3.328,-3.5016,-3.5989,-3.6277,-3.6757,-3.7182,-3.7472,-3.7801,-3.8033,-3.8148,-3.8205,-3.8205,-3.8391,-3.8391,-3.8391,-3.8391,-3.8391,-3.8391,-3.8391,-3.8391,-3.8391,-3.8391,-3.8391,-3.8391,-3.8391,-3.8756,-3.9048,-3.9105,-3.9607,-4.0128,-4.0776,-4.1659,-4.2294,-4.2721,-4.4331,-4.5516,-4.6249,-4.6525,-4.6795,-4.6998,-4.6998,-4.6998,-4.6998,-4.6998,-4.6998,-4.6998,-4.6998,-4.6998,-4.7025,-4.7232,-4.7302,-4.732,-4.7615,-4.7717,-4.7826,0.0,0.0,0.0,0.0,0.0,0.0,0.0,0.0,0.0,0.0,0.0,-1.111,-1.0353,0.0,0.0,0.0,-1.1396,-1.1579,-1.1981,-1.2095,-1.2337,-1.2773,-1.2671,-1.2718,-1.2924,-1.2248,-1.2777,-1.4561,-1.3613,-1.5778,-2.0878,-2.0946,-2.2074,-2.3985,-2.2367,-2.075,-1.9174,-1.7136,-1.6218,-1.6082,-1.5946,-1.7423,-1.9511,-1.8178,-1.8667,-1.9676,-1.6985,-1.6029,-1.5981,-1.5464,-1.5671,-1.6123,-1.6123,-1.5584,0.0,0.0,0.0,-1.5474,-2.1346,-2.5226,-2.8717,-3.3166,-3.4993,-3.5877,-3.6675,-3.7226,-3.7598,-3.7598,-3.8019,-3.8391,-3.8391,-3.8391,-3.8391,-3.8391,-3.8391,-3.8391,-3.8391,-3.8391,-3.8391,-3.8391,-3.8391,-3.8391,-3.8391,-3.8448,-3.8448,-3.8448,-3.856,-3.8672,-3.8727,-3.8876,-3.9312,-4.0036,-4.0883,-4.156,-4.2064,-4.4173,-4.5705,-4.6694,-4.689,-4.6998,-4.698,-4.6783,-4.6801,-4.6998,-4.6998,-4.6998,-4.6998,-4.6998,-4.7043,-4.7088,-4.7232,-4.7302,-4.7363,-4.7615,-4.7717,-4.7826,0.0,0.0,0.0,0.0,0.0,0.0,0.0,0.0,0.0,0.0,0.0,-1.1309,-1.1069,-1.1255,-1.1561,-1.1916,-1.1968,-1.1968,-1.2007,-1.2007,-1.2153,-1.2494,-1.1748,0.0,-1.2966,-1.2086,-1.2074,-1.3011,-1.4443,-1.6884,-2.0289,-2.1968,-2.4115,-2.6504,-2.4536,-2.2289,-1.9943,-1.8365,-1.7393,-1.706,-1.8355,-1.8949,-1.9311,-2.1782,-2.2787,-2.2552,-1.9921,-1.8973,-1.8682,-1.6793,-1.6163,-1.6194,-1.6194,-1.5288,-1.4252,0.0,0.0,0.0,-1.9656,-2.1918,-2.4611,-3.1262,-3.3446,-3.4703,-3.7607,-3.8327,-3.8343,-3.8343,-3.8375,-3.8391,-3.8391,-3.8391,-3.8391,-3.8391,-3.8391,-3.8391,-3.8391,-3.8391,-3.8391,-3.8391,-3.8391,-3.8391,-3.8391,-3.8504,-3.8576,-3.8576,-3.8711,-3.886,-3.8969,-3.8969,-3.9523,-4.0707,-4.1543,-4.2434,-4.3398,-4.4991,-4.5775,-4.5873,-4.6641,-4.6998,-4.6962,-4.6212,-4.6284,-4.6998,-4.6998,-4.6998,-4.6998,-4.6998,-4.7088,-4.7196,-4.7276,-4.7363,-4.7511,-4.7657,-4.7717,-4.785,0.0,0.0,0.0,0.0,0.0,0.0,0.0,0.0,0.0,0.0,0.0,0.0,0.0,-1.1441,-1.1944,-1.1981,-1.2333,-1.2585,-1.2585,-1.2135,-1.2223,-1.3041,-1.1908,-1.1785,-1.2911,-1.1852,-1.1889,-1.3168,-1.333,-1.5477,-1.94,-2.011,-2.1872,-2.4334,-2.3182,-2.2124,-2.109,-1.7529,-1.615,-1.6483,-1.7882,-1.9745,-2.1797,-2.2735,-2.4242,-2.5492,-2.2762,-2.0952,-1.9793,-1.9054,-1.7946,-1.684,-1.684,-1.5345,-1.3298,-1.1959,-1.2821,-1.4831,-1.7695,-2.0871,-2.4335,-2.8192,-3.1518,-3.4188,-3.536,-3.7064,-3.8391,-3.8391,-3.8391,-3.8391,-3.8391,-3.8391,-3.8391,-3.8391,-3.8391,-3.8391,-3.8391,-3.8391,-3.8448,-3.8504,-3.852,-3.856,-3.8655,-3.8711,-3.8711,-3.8711,-3.886,-3.9115,-3.9489,-3.961,-4.0153,-4.1202,-4.1527,-4.2263,-4.35,-4.4053,-4.4571,-4.5035,-4.532,-4.5463,-4.5463,-4.516,-4.5195,-4.5463,-4.5463,-4.6052,-4.6944,-4.6444,-4.632,-4.6426,-4.6557,-4.6668,-4.6807,-4.7476,-4.8043,-4.8539,0.0,0.0,0.0,0.0,0.0,0.0,0.0,0.0,-1.2499,-1.283,0.0,0.0,0.0,0.0,-1.2226,-1.2007,-1.2206,-1.2341,-1.24,-1.1764,-1.1799,-1.2678,-1.1731,-1.1718,-1.2877,-1.1622,-1.1563,-1.2863,-1.2653,-1.4269,-1.7574,-1.8611,-2.0259,-2.2306,-2.1218,-2.1218,-2.1858,-1.8477,-1.6923,-1.6952,-1.9489,-2.1213,-2.2509,-2.4943,-2.6504,-2.7149,-2.5262,-2.3646,-2.2293,-2.1926,-2.0786,-1.9439,-1.864,-1.5995,-1.2867,-1.1281,-1.242,-1.459,-1.6379,-1.9338,-2.2692,-2.5863,-2.8666,-3.1325,-3.4078,-3.5877,-3.7226,-3.8197,-3.8391,-3.8391,-3.8391,-3.8391,-3.8391,-3.8391,-3.8391,-3.8391,-3.8391,-3.8448,-3.8504,-3.8576,-3.8616,-3.8711,-3.8805,-3.886,-3.886,-3.886,-3.9023,-3.9292,-3.961,-3.9851,-4.048,-4.1472,-4.1666,-4.2207,-4.309,-4.3375,-4.3768,-4.425,-4.45,-4.4624,-4.4607,-4.4357,-4.4375,-4.4607,-4.4357,-4.4981,-4.6159,-4.5668,-4.5541,-4.5688,-4.5773,-4.59,-4.6055,-4.6969,-4.7645,-4.8254,0.0,0.0,0.0,0.0,0.0,0.0,0.0,0.0,-1.2265,-1.2911,0.0,0.0,0.0,0.0,0.0,-1.2115,-1.1592,-1.1348,-1.1389,-1.0905,-1.0821,-1.1273,0.0,0.0,-1.284,-1.1391,-1.107,-1.1961,-1.2554,-1.3528,-1.4913,-1.7654,-1.9668,-2.092,-1.9002,-1.9618,-2.2003,-2.1247,-1.989,-1.8653,-2.3332,-2.3286,-2.1275,-2.855,-2.975,-2.755,-2.755,-2.7088,-2.6317,-2.5222,-2.4595,-2.3804,-2.1327,-1.7189,-1.3104,-1.2411,-1.3197,-1.4544,0.0,0.0,0.0,-2.4319,-2.4808,-2.6054,-3.3793,-3.4691,-3.4716,-3.7663,-3.8262,-3.8278,-3.8375,-3.8391,-3.8391,-3.8391,-3.8391,-3.8391,-3.8391,-3.852,-3.8616,-3.8632,-3.8711,-3.8805,-3.8805,-3.8914,-3.9023,-3.9023,-3.9202,-3.9325,-3.9325,-3.9782,-4.048,-4.1472,-4.2044,-4.2287,-4.2287,-4.3072,-4.3465,-4.3483,-4.4196,-4.4553,-4.4517,-4.3804,-4.3875,-4.45,-4.3786,-4.3893,-4.4553,-4.4718,-4.4821,-4.4964,-4.5052,-4.5174,-4.5363,-4.6178,-4.6504,-4.6862,0.0,0.0,0.0,0.0,0.0,-1.2094,-1.276,-1.2786,-1.2798,0.0,0.0,0.0,-1.152,-1.2812,-1.3902,-1.4133,-1.3767,-1.2925,-1.1549,-1.0823,-1.0726,-1.1349,-1.1137,-1.1401,-1.2227,-1.1369,-1.1021,-1.1278,-1.1434,-1.2227,-1.3617,-1.4903,-1.6491,-1.8268,-1.77,-1.79,-1.8498,-1.7317,-1.7669,-1.921,-2.147,-2.3302,-2.5041,-2.8611,-3.0397,-3.1065,-3.1306,-3.02,-2.8552,-2.8653,-2.6161,-2.2372,-1.8232,-1.5557,-1.3729,-1.2785,-1.4174,-1.5981,-1.581,0.0,0.0,0.0,0.0,0.0,-2.6142,-2.7718,-2.9867,-3.4376,-3.4894,-3.5347,-3.7922,-3.8391,-3.8391,-3.8391,-3.8391,-3.8391,-3.8391,-3.852,-3.8616,-3.875,-3.886,-3.8969,-3.9148,-3.9218,-3.9218,-3.9218,-3.9272,-3.9468,-3.9782,-4.0625,-4.1383,-4.2044,-4.2228,-4.2287,-4.2287,-4.2519,-4.2626,-4.2626,-4.284,-4.2929,-4.2929,-4.2733,-4.2733,-4.2929,-4.2816,-4.291,-4.3143,-4.368,-4.3996,-4.4137,-4.4259,-4.4361,-4.453,-4.5345,-4.6377,-4.7461,0.0,0.0,-1.0571,-1.1656,-1.232,-1.3011,-1.3891,-1.3866,-1.374,0.0,0.0,0.0,-1.3619,-1.4941,-1.5839,-1.5688,-1.4507,-1.3135,-1.1629,-1.0412,-0.9815,-0.9975,-1.038,-1.0815,-1.1196,-1.0818,-1.0757,-1.1032,-1.0754,-1.1047,-1.1887,-1.3145,-1.4228,-1.5145,-1.5395,-1.5545,-1.5441,-1.4406,-1.5668,-1.8747,-2.2205,-2.4089,-2.5211,-2.9104,-3.0616,-3.0838,-3.2196,-3.1408,-2.9918,-3.1209,-2.8399,-2.3618,-1.972,-1.709,-1.5249,-1.4233,-1.5558,-1.7345,-1.7223,-1.8386,-1.9503,-1.901,0.0,0.0,-2.5051,-2.6399,-2.8469,-3.4464,-3.5361,-3.5782,-3.801,-3.8391,-3.8391,-3.8391,-3.8391,-3.8391,-3.8391,-3.856,-3.8711,-3.8805,-3.9169,-3.947,-3.9592,-3.9799,-3.9952,-3.9952,-3.9952,-4.012,-4.0625,-4.1185,-4.177,-4.2287,-4.2287,-4.2287,-4.2287,-4.2287,-4.2287,-4.2287,-4.2287,-4.2287,-4.2287,-4.2287,-4.2328,-4.2405,-4.2463,-4.2503,-4.2602,-4.3073,-4.331,-4.339,-4.3508,-4.3568,-4.3697,-4.4494,-4.5718,-4.701,0.0,0.0,-1.1044,-1.3326,-1.3871,-1.4488,-1.5781,-1.5422,-1.5061,0.0,-1.5159,-1.5823,-1.7751,-1.8159,-1.7921,-1.7036,-1.4715,-1.2813,-1.1682,-0.9936,-0.8664,-0.8045,-0.9355,-1.009,-1.009,-1.0171,-1.0494,-1.1093,-1.0435,-1.0143,-1.025,-1.2097,-1.2682,-1.2241,-1.2805,-1.3082,-1.3067,-1.2759,-1.4523,-1.7991,-2.3694,-2.4907,-2.3934,-2.9832,-3.0671,-2.9116,-3.1575,-3.1636,-3.0829,-3.2697,-3.0521,-2.6532,-2.3687,-2.0607,-1.785,-1.6638,-1.7582,-1.9137,-1.9564,-1.981,-2.007,-2.0543,-1.9187,0.0,-2.6665,-2.7289,-2.8229,-3.4824,-3.6189,-3.6397,-3.7167,-3.7323,-3.7355,-3.7436,-3.7702,-3.7994,-3.8343,-3.859,-3.8674,-3.8674,-3.9337,-3.9767,-3.9682,-4.0229,-4.0552,-4.0466,-4.0582,-4.0886,-4.1472,-4.1472,-4.177,-4.2287,-4.2287,-4.2287,-4.2287,-4.2287,-4.2287,-4.2287,-4.2287,-4.2287,-4.2287,-4.2346,-4.2405,-4.2503,-4.2503,-4.2566,-4.2649,-4.2745,-4.2822,-4.2822,-4.2862,-4.292,-4.3048,-4.3864,-4.4929,-4.6119,-1.011,-1.1136,-1.2315,-1.3507,-1.5035,-1.6481,-1.7636,-1.6956,-1.6677,-1.766,-1.7365,-1.8321,-2.1605,-2.0543,-1.943,-1.9105,-1.7113,-1.4694,-1.1859,-1.0534,-0.9308,-0.8128,-0.9372,-1.0094,-1.0094,-1.0617,-1.097,-1.1093,-1.0435,-1.0389,-1.0909,-1.1308,-1.1759,-1.221,-1.2349,-1.2411,-1.2534,-1.456,-1.6874,-1.9327,-2.0583,-2.3469,-2.7229,-2.969,-3.132,-3.2396,-3.3157,-3.3121,-3.2538,-3.1485,-3.0202,-2.8388,-2.4628,-2.3519,-2.305,-1.9987,-2.128,-2.3373,-2.1899,-2.2434,-2.2835,-2.0369,-2.0817,0.0,-1.9247,-1.9942,-2.1845,-2.4824,-2.5403,-2.6509,-3.0048,-3.0668,-3.0862,-3.1475,-3.3239,-3.5446,-3.8042,-3.815,-3.792,-3.792,-3.8272,-3.8317,-3.7719,-3.8588,-3.8967,-3.8438,-3.9264,-4.0331,-4.1455,-4.1472,-4.177,-4.2287,-4.2287,-4.2287,-4.2287,-4.2287,-4.2287,-4.2287,-4.2287,-4.2287,-4.2287,-4.2405,-4.2463,-4.2503,-4.2685,-4.2763,-4.2783,-4.2842,-4.2842,-4.2822,-4.2862,-4.305,-4.3411,-4.4271,-4.5291,-4.6479,-1.0463,-1.1919,-1.3628,-1.5133,-1.6584,-1.8033,-1.9572,-1.9081,-1.8869,-1.9768,-2.0161,-2.1008,-2.2733,-2.1928,-2.0965,-2.0314,-1.8037,-1.5456,-1.2629,-1.0971,-0.9495,-0.8156,-0.9388,-1.0266,-1.0586,-1.0604,-1.1112,-1.2159,-1.0774,-1.045,-1.1109,-1.1482,-1.2644,-1.4343,-1.2876,-1.3016,-1.4374,-1.3868,-1.523,-1.8058,-2.2061,-2.5943,-2.9555,-3.166,-3.2965,-3.371,-3.3848,-3.3797,-3.3486,-3.2224,-3.1024,-2.9695,-2.7562,-2.6651,-2.5842,-2.3029,-2.365,-2.4912,-2.3308,-2.343,-2.3718,-2.2295,-2.2056,0.0,0.0,-2.0866,-2.1948,-2.5408,-2.5225,-2.5537,-2.8936,-2.86,-2.8314,-2.9675,-3.1548,-3.3142,-3.4037,-3.6053,-3.7392,-3.7305,-3.7701,-3.7836,-3.7451,-3.841,-3.8967,-3.8868,-3.9398,-4.0014,-4.0671,-4.0689,-4.0872,-4.1207,-4.1207,-4.1386,-4.1859,-4.1859,-4.2056,-4.245,-4.245,-4.245,-4.245,-4.2486,-4.2544,-4.2645,-4.2667,-4.2765,-4.288,-4.305,-4.3124,-4.3087,-4.316,-4.3336,-4.3749,-4.4631,-4.5677,-4.68,-1.0774,-1.2477,-1.458,-1.6368,-1.7785,-1.9293,-2.1018,-2.0951,-2.0938,-2.1794,-2.2767,-2.341,-2.3551,-2.336,-2.2892,-2.2029,-1.9652,-1.7091,-1.4335,-1.2277,-1.0658,-0.9528,-0.9742,-1.0543,-1.1846,-1.0851,-1.1112,-1.279,-1.1266,-1.0789,-1.1328,-1.1912,-1.3401,-1.5474,-1.3938,-1.428,-1.5855,-1.3562,-1.4515,-1.8131,-2.4551,-2.8118,-2.9839,-3.2984,-3.3922,-3.3681,-3.4137,-3.4333,-3.4235,-3.355,-3.2377,-3.1157,-3.0418,-2.957,-2.8353,-2.5775,-2.5878,-2.6505,-2.5017,-2.4832,-2.4927,-2.4397,-2.3459,-2.2841,0.0,0.0,0.0,-2.6537,-2.5967,-2.5514,-2.763,-2.6545,-2.5877,-2.7631,-2.9398,-3.0065,-2.8695,-3.2491,-3.5357,-3.5202,-3.6501,-3.7188,-3.6662,-3.7284,-3.8257,-3.9608,-3.9091,-3.9073,-3.9878,-3.9953,-4.0009,-4.0121,-4.0103,-4.0446,-4.1171,-4.1171,-4.1584,-4.2375,-4.2375,-4.2465,-4.2609,-4.2566,-4.2645,-4.2783,-4.2688,-4.2747,-4.292,-4.3178,-4.3371,-4.3508,-4.3508,-4.3814,-4.4339,-4.5227,-4.6263,-4.7372,-1.0729,-1.2643,-1.4644,-1.5012,-1.7889,-2.0428,-2.1203,-2.1497,-2.2178,-2.3759,-2.4221,-2.4962,-2.6461,-2.6065,-2.5785,-2.5993,-2.4675,-2.204,-1.7884,-1.5946,-1.4796,-1.4406,-1.1066,-1.0943,-1.4667,-1.2261,-1.1093,-1.1339,-1.1759,-1.201,-1.2087,-1.2164,-1.2025,-1.1876,-1.5471,-1.5845,-1.3949,-1.6797,-2.0463,-2.4354,-2.498,-2.5206,-2.5702,-3.0336,-3.2011,-3.2083,-3.4293,-3.5085,-3.4968,-3.4205,-3.3851,-3.3272,-3.087,-3.1597,-3.253,-2.8237,-2.916,-3.1057,-2.8561,-2.8868,-2.8937,-2.4878,-2.5738,-2.5876,-1.9273,0.0,-2.0747,-1.8335,0.0,-1.8843,-1.9602,0.0,0.0,-2.0566,-2.336,-2.4961,-2.362,-2.6686,-2.9029,-2.8993,-3.3143,-3.5033,-3.2569,-3.2191,-3.4004,-3.859,-3.6221,-3.6185,-3.9886,-4.0123,-4.0181,-4.0181,-4.0181,-4.0235,-4.0362,-4.0362,-4.0757,-4.1548,-4.1548,-4.1926,-4.2609,-4.2706,-4.2802,-4.2783,-4.2824,-4.29,-4.2882,-4.2957,-4.3301,-4.3849,-4.3849,-4.4512,-4.5594,-4.6419,-4.7486,-4.8621,-1.1375,-1.3693,-1.5371,-1.4735,-1.6928,-1.9188,-2.0356,-2.2381,-2.4036,-2.472,-2.5209,-2.6006,-2.7354,-2.6568,-2.6083,-2.6489,-2.5256,-2.2693,-1.8484,-1.7497,-1.6208,-1.4129,-1.239,-1.2282,-1.4006,-1.2215,-1.1427,-1.1743,-1.1738,-1.1676,-1.1574,-1.201,-1.3271,-1.524,-1.7123,-1.8827,-2.0242,-2.0061,-2.1092,-2.2865,-2.3758,-2.3944,-2.4464,-3.1216,-3.3773,-3.3963,-3.502,-3.5448,-3.5565,-3.5243,-3.4609,-3.3871,-3.3646,-3.3345,-3.2696,-3.0535,-3.048,-3.0666,-2.887,-2.9179,-2.9334,-2.654,-2.6454,-2.5734,-2.0567,-1.9788,-1.9839,-1.8785,0.0,0.0,0.0,0.0,0.0,0.0,-2.1292,-2.2054,-2.0228,-2.344,-2.6184,-2.6775,0.0,0.0,-3.1686,-3.1774,-3.3523,-3.779,-3.5134,-3.49,-3.8527,-3.8725,-3.8798,-3.8905,-3.8905,-3.9175,-3.9752,-3.9752,-4.0329,-4.1556,-4.1556,-4.1737,-4.208,-4.2567,-4.2569,-4.2192,-4.2643,-4.2957,-4.3213,-4.3406,-4.3767,-4.4213,-4.4402,-4.5084,-4.6105,-4.6898,-4.7848,-4.8818,-1.1804,-1.3909,-1.5114,-1.4231,-1.5927,-1.8133,-2.0167,-2.2789,-2.4787,-2.5416,-2.5845,-2.6643,-2.8106,-2.7452,-2.7139,-2.7734,-2.6917,-2.4771,-2.0957,-1.9955,-1.8703,-1.6983,-1.4776,-1.4062,-1.4996,-1.2868,-1.1674,-1.1496,-1.1506,-1.1635,-1.1885,-1.2003,-1.3728,-1.6767,-1.8,-2.0372,-2.3376,-2.2484,-2.2815,-2.3988,-2.4709,-2.569,-2.7231,-3.2546,-3.5101,-3.5847,-3.5873,-3.602,-3.6172,-3.5966,-3.5197,-3.4495,-3.537,-3.4558,-3.3134,-3.2607,-3.2012,-3.1244,-2.9971,-3.0024,-2.9834,-2.7299,-2.623,-2.4873,-2.1267,-2.034,-2.0164,-1.9911,-1.951,0.0,0.0,0.0,-1.831,-1.9491,0.0,-2.009,-1.8238,-2.0541,-2.2751,0.0,0.0,0.0,0.0,-2.9917,-3.1372,-3.5954,-3.3366,-3.3362,-3.7542,-3.7774,-3.7845,-3.8036,-3.8036,-3.8359,-3.9061,-3.9061,-3.9731,-4.1089,-4.1089,-4.1198,-4.1415,-4.2032,-4.2123,-4.1869,-4.2487,-4.3048,-4.3557,-4.3818,-4.4095,-4.4411,-4.4681,-4.5508,-4.6601,-4.7169,-4.8079,-4.9102,-1.1799,-1.2602,-1.3108,-1.3065,-1.5236,-1.8106,-2.127,-2.237,-2.3728,-2.6074,-2.5986,-2.6635,-2.9051,-2.9544,-3.0114,-3.1166,-3.1461,-3.0316,-2.7288,-2.4366,-2.3784,-2.6143,-1.8821,-1.6203,-1.9527,-1.5048,-1.1684,-0.9687,-1.1092,-1.2512,-1.3877,-1.2394,-1.2234,-1.3345,-1.7584,-1.923,-1.9194,-2.3587,-2.7837,-3.1496,-2.96,-3.146,-3.5214,-3.3596,-3.4506,-3.6684,-3.6869,-3.697,-3.6865,-3.6075,-3.5776,0.0,-3.4742,-3.4909,-3.5196,-3.431,-3.4507,-3.4714,-3.3179,-3.2766,-3.1558,-2.6368,-2.5057,-2.385,-1.9326,-2.0515,-2.1919,-1.9536,-2.2064,-2.4018,-2.1695,-2.1361,-2.1154,-2.0296,-1.9726,0.0,0.0,-1.7403,-1.7318,0.0,0.0,0.0,0.0,-2.442,-2.5454,0.0,-3.0012,-3.1016,-3.7522,-3.7967,-3.8036,-3.8192,-3.8192,-3.8192,-3.8228,-3.8228,-3.8645,-3.946,-3.946,-3.9858,-4.0546,-4.0894,-4.1464,-4.2176,-4.2556,-4.3144,-4.3881,-4.3912,-4.4095,-4.4383,-4.4411,-4.5609,-4.7359,-4.7378,-4.8439,-4.986,-1.2492,-1.3474,-1.367,-1.2038,-1.3628,-1.6381,-1.9999,-2.2382,-2.4422,-2.6164,-2.6673,-2.7668,-2.9807,-3.0118,-3.07,-3.1951,-3.1751,-3.0361,-2.7565,-2.6134,-2.5211,-2.4717,-2.1085,-1.9151,-1.9321,-1.7149,-1.4649,-1.1844,-1.2439,-1.2688,-1.2584,-1.1498,-1.1794,-1.3429,-1.7362,-2.078,-2.3756,-2.6353,-2.8956,-3.1261,-3.0611,-3.2424,-3.5566,-3.5025,-3.5669,-3.6908,-3.6987,-3.7164,0.0,-3.7072,-3.6555,-3.6017,-3.6224,-3.5709,-3.5016,-3.5186,-3.4983,-3.4571,-3.4184,-3.4335,-3.3561,-2.9258,-2.7448,-2.5623,-2.1409,-2.1625,-2.2031,-1.967,-2.228,-2.427,-2.1928,-2.1447,-2.1139,-2.0338,-1.9508,-1.8289,0.0,-1.5433,-1.5433,0.0,0.0,0.0,0.0,0.0,0.0,0.0,-3.1569,0.0,-3.7683,-3.7916,-3.8038,-3.8192,-3.8192,-3.8192,-3.8192,-3.8192,-3.859,-3.9387,-3.9387,-3.9532,-3.9786,-4.038,-4.0641,-4.0671,-4.1866,-4.2761,-4.3465,-4.4017,-4.443,-4.4789,-4.5375,-4.6334,-4.7397,-4.7397,-4.8458,-4.9898,-1.2898,-1.3686,-1.3813,-1.2411,-1.4022,-1.6634,-1.9904,-2.2624,-2.481,-2.6211,-2.7056,-2.82,-2.9975,-3.0479,-3.112,-3.2222,-3.1911,-3.0861,-2.8855,-2.8044,-2.7107,-2.5778,-2.412,-2.2523,-2.1098,-1.9535,-1.7405,-1.4635,-1.4053,-1.3752,-1.3681,-1.2024,-1.2052,-1.3598,-1.6533,-2.0445,-2.5057,-2.7466,-3.0265,-3.3032,-3.3104,-3.4312,-3.605,0.0,-3.6377,-3.6622,0.0,-3.7334,-3.7577,-3.7577,-3.7165,-3.6717,-3.7175,-3.6531,-3.5678,-3.6113,-3.5787,-3.529,-3.5127,-3.5332,-3.4746,-3.12,-2.9639,-2.7787,-2.3519,-2.3925,-2.4514,-2.1975,-2.4019,-2.6039,-2.5216,-2.33,-2.1893,-2.1996,-1.9867,-1.7332,0.0,-1.4704,-1.5146,0.0,0.0,0.0,0.0,0.0,0.0,0.0,0.0,0.0,0.0,-3.772,-3.7969,-3.8122,-3.8192,-3.8192,-3.8192,-3.8192,-3.8513,-3.9137,-3.9137,-3.9152,-3.9264,-3.9887,-4.0136,-4.0211,-4.1616,-4.2688,-4.3453,-4.4263,-4.4707,-4.499,-4.5862,-4.6676,-4.7434,-4.7738,-4.8723,-4.9898,-1.3066,-1.3284,-1.3635,-1.4227,-1.6246,-1.8609,-2.1008,-2.2963,-2.4733,-2.624,-2.7177,-2.8249,-2.9652,-3.0665,-3.1442,-3.2136,-3.2167,-3.1852,-3.1142,-3.0052,-2.9425,-2.9457,-2.7775,-2.6172,-2.4801,-2.2188,-1.9834,-1.7776,-1.5854,-1.559,-1.6829,-1.385,-1.2833,-1.357,-1.5141,-1.8414,-2.3005,-2.6961,-3.176,-3.6742,-3.6948,-3.6992,-3.6956,-3.7009,-3.6517,-3.5957,-3.692,-3.7447,-3.7577,-3.7577,-3.7577,-3.7558,-3.7372,-3.7297,-3.7259,-3.7105,-3.7009,-3.6851,-3.6078,-3.5867,-3.5164,-3.2262,-3.1467,-3.0184,-2.5602,-2.7325,-2.9074,-2.6096,-2.733,-2.9321,-3.0771,-2.6696,-2.3519,-2.4828,-2.0518,-1.6262,-1.4203,-1.5158,-1.6186,0.0,0.0,0.0,0.0,0.0,0.0,0.0,0.0,0.0,0.0,-3.7253,-3.7718,-3.7984,-3.8122,-3.8192,-3.8192,-3.8192,-3.8322,-3.8585,-3.8585,-3.873,-3.898,-3.9313,-3.9896,-4.071,-4.1879,-4.2844,-4.3701,-4.4554,-4.4895,-4.499,-4.5899,-4.6771,-4.7605,-4.8439,-4.9235,-4.9898,-1.4459,-1.5018,-1.6051,-1.7492,-1.7061,-1.7729,-2.1486,-2.2661,-2.3951,-2.629,-2.7431,-2.8525,-2.9895,-3.0732,-3.1442,-3.2136,-3.1726,-3.1397,-3.1207,-3.0115,-2.971,-3.027,-2.9183,-2.8125,-2.7169,-2.423,-2.1888,-2.0203,-1.7663,-1.6072,-1.5331,-1.3934,-1.2828,-1.2065,-1.414,-1.8211,-2.3712,-2.6643,-3.1477,-3.7143,-3.7182,-3.6849,-3.639,0.0,-3.6594,-3.6162,-3.7013,-3.7447,-3.7577,-3.7577,-3.7577,-3.7577,-3.7558,-3.7503,-3.7503,-3.7466,-3.7334,-3.7206,-3.7143,-3.7016,-3.6584,-3.5207,-3.3597,-3.1845,-2.992,-3.0648,-3.1019,-2.8551,-3.0756,-3.202,-2.8325,-2.6481,-2.4652,-2.2089,-1.896,-1.6867,-1.6875,0.0,0.0,-1.9202,0.0,0.0,0.0,0.0,0.0,0.0,0.0,0.0,0.0,0.0,-3.4828,-3.7826,-3.7969,-3.7985,-3.8036,-3.8036,-3.8156,-3.8307,-3.851,-3.8646,-3.8718,-3.8999,-3.9399,-3.9902,-4.1444,-4.234,-4.2848,-4.4308,-4.4895,-4.5047,-4.6525,-4.7965,-4.9273,-4.95,-4.9709,-4.9898,-1.54,-1.6746,-1.8462,-1.9999,-1.9869,-2.0382,-2.2956,-2.3248,-2.4069,-2.6518,-2.7636,-2.8497,-2.9259,-3.0975,-3.2189,-3.2588,-3.2253,-3.1885,-3.1582,-3.1245,-3.084,-3.0325,-3.0677,-3.037,-2.9284,-2.7188,-2.5195,-2.3321,-1.975,-1.707,-1.5227,-1.3467,-1.1999,-1.0981,-1.3638,-1.7248,-2.1711,-2.7308,-3.2068,-3.5899,-3.6984,-3.7163,0.0,-3.714,-3.7033,-3.6825,-3.7287,-3.7503,-3.7577,-3.7577,-3.7577,-3.7577,-3.7577,-3.7577,-3.7577,-3.7577,-3.7521,-3.7447,-3.7594,-3.7521,-3.734,-3.6878,-3.5794,-3.4408,-3.2785,-3.3016,-3.3087,-3.1476,-3.2292,-3.2894,-3.1532,-2.8405,-2.4585,-2.0206,-1.8013,-1.6978,-1.7225,0.0,0.0,0.0,-1.975,0.0,0.0,0.0,0.0,0.0,0.0,0.0,0.0,0.0,-3.4046,-3.7685,-3.7522,-3.7608,-3.8138,-3.7842,-3.8018,-3.8695,-3.8894,-3.9045,-3.9181,-3.932,-3.9508,-3.9764,-4.1442,-4.2257,-4.2545,-4.4213,-4.5122,-4.5634,-4.7302,-4.8742,-4.9898,-4.9898,-4.9898,-4.9898,-1.6261,-1.8339,-2.0393,-2.1474,-2.2929,-2.4249,-2.4981,-2.4619,-2.5029,-2.7047,-2.8152,-2.8762,-2.8858,-3.1336,-3.2951,-3.2951,-3.2854,-3.253,-3.1898,-3.2546,-3.2109,-3.0275,-3.2075,-3.2593,-3.1264,-3.0203,-2.8452,-2.5979,-2.1691,-1.8172,-1.5399,-1.288,-1.1166,-1.0324,-1.3415,-1.6543,-2.005,-2.8811,-3.3263,-3.4586,-3.672,-3.7577,-3.7577,-3.7577,-3.7577,-3.7577,-3.7577,-3.7577,-3.7577,-3.7577,-3.7577,-3.7577,-3.7577,-3.7577,-3.7577,-3.7577,-3.7577,-3.7577,-3.7577,-3.7577,-3.7577,-3.7577,-3.7577,-3.7059,-3.487,-3.4888,-3.5137,-3.4516,-3.3273,-3.3237,-3.6381,-3.0845,-2.4312,-1.9699,-1.8319,-1.7818,0.0,0.0,0.0,0.0,0.0,0.0,0.0,0.0,0.0,0.0,0.0,0.0,0.0,0.0,-3.3799,-3.756,-3.7163,-3.7262,-3.8111,-3.7666,-3.7993,-3.9051,-3.9345,-3.9599,-3.9804,-3.9889,-3.9889,-3.9984,-4.156,-4.2299,-4.2545,-4.4213,-4.5539,-4.6657,-4.8117,-4.9178,-4.9898,-4.9898,-4.9898,-4.9898,-1.7711,-1.9225,-2.0389,-2.0353,-2.1997,-2.4191,-2.663,-2.691,-2.7358,-2.885,-2.9862,-3.0674,-3.1318,-3.1835,-3.219,-3.219,-3.1656,-3.1251,-3.1075,-3.1785,-3.2028,-3.1656,-3.2814,-3.3395,-3.3132,-3.1146,-2.8349,-2.4801,-2.2371,-1.8418,-1.3104,-1.3173,-1.2137,-1.0324,-1.3415,-1.9046,-2.6521,-3.1331,-3.4783,-3.697,-3.7416,-3.7577,-3.7577,-3.7577,-3.7577,-3.7577,-3.7577,-3.7577,-3.7577,-3.7577,-3.7577,-3.7577,-3.7577,-3.7577,-3.7577,-3.7577,-3.7577,-3.7577,-3.7577,-3.7577,-3.7577,-3.7577,-3.7577,-3.7487,-3.7059,-3.7041,-3.7094,-3.697,-3.672,-3.5936,-3.391,0.0,-2.6364,-2.2887,-2.2212,-2.3017,0.0,0.0,0.0,0.0,0.0,-2.3677,0.0,0.0,0.0,0.0,0.0,0.0,0.0,0.0,-3.0362,0.0,-3.7719,-3.7566,0.0,0.0,-3.8077,-3.7761,-3.883,-3.935,-3.9427,-3.9758,-3.9889,-3.9946,-4.0972,-4.1806,-4.2545,-4.4213,-4.6222,-4.8287,-4.8572,-4.9178,-4.9898,-4.9898,-4.9898,-4.9898,-2.053,-2.156,-2.2536,-2.3337,-2.5244,-2.713,-2.8517,-2.9383,-2.9919,-3.018,-3.061,-3.0911,-3.0895,-3.1898,-3.2417,-3.2044,-3.1688,-3.1639,-3.2028,-3.2541,-3.2814,-3.2814,-3.3862,-3.4247,-3.3927,-3.2984,-3.0238,-2.5625,-2.2928,-1.8883,-1.3672,-1.2034,-1.0877,-1.0394,-1.4775,-2.018,-2.63,-3.1094,-3.411,-3.5812,-3.7095,-3.7577,-3.7577,-3.7577,-3.7577,-3.7577,-3.7577,-3.7862,-3.8219,-3.8219,-3.8219,-3.829,-3.8665,-3.8522,-3.8219,-3.8219,-3.7916,-3.7577,-3.7577,-3.7577,-3.7577,-3.7577,-3.7577,-3.7577,-3.7577,-3.7577,-3.7577,-3.7577,-3.7577,-3.6702,-3.3841,-3.0371,0.0,0.0,-2.4564,0.0,0.0,0.0,-2.5922,0.0,0.0,0.0,0.0,0.0,0.0,0.0,0.0,0.0,0.0,0.0,-2.9665,0.0,0.0,0.0,-3.788,0.0,-3.8198,-3.8377,-3.9144,-3.9526,-3.9526,-3.9781,-3.9889,-3.9946,-4.0821,-4.1673,-4.2602,-4.5141,-4.7188,-4.875,-4.9271,-4.9721,-5.0063,-5.0125,-5.0174,-5.0149,-2.3,-2.3824,-2.482,-2.6225,-2.8135,-2.9513,-2.9659,-3.0846,-3.1623,-3.1202,-3.0978,-3.0781,-3.0405,-3.1704,-3.24,-3.1834,-3.1862,-3.2152,-3.2722,-3.3393,-3.3727,-3.3727,-3.4747,-3.5093,-3.4566,-3.4822,-3.2446,-2.7301,-2.395,-1.9901,-1.5193,-1.1533,-1.066,-1.2415,-1.7271,-2.189,0.0,0.0,-3.3628,-3.4852,-3.6809,-3.7577,-3.7577,-3.7577,-3.7577,-3.7577,-3.7577,-3.8112,-3.8808,-3.8808,-3.8915,-3.9111,-3.9539,-3.9272,-3.8808,-3.8808,-3.8344,-3.7844,-3.7844,-3.7844,-3.7809,-3.763,-3.7577,-3.7577,-3.7577,-3.7452,-3.7327,-3.7327,-3.7327,-3.6577,-3.4141,-3.1706,0.0,0.0,-2.7004,0.0,0.0,0.0,-2.8614,0.0,0.0,0.0,-2.2532,0.0,0.0,0.0,0.0,0.0,-2.9256,0.0,0.0,0.0,0.0,-3.6831,-3.7485,0.0,-3.8385,-3.901,-3.9457,-3.967,-3.967,-3.9826,-3.9889,-3.9927,-4.0631,-4.1692,-4.317,-4.6165,-4.8029,-4.9112,-4.9891,-5.0212,-5.0264,-5.0361,-5.0289,-5.0134,-2.3692,-2.4836,-2.5663,-2.5681,-2.7023,-2.8249,-2.8832,-3.0101,-3.1235,-3.1834,-3.1332,-3.1154,-3.1753,-3.1396,-3.1105,-3.0995,-3.1324,-3.1561,-3.1627,-3.3223,-3.4136,-3.4136,-3.5155,-3.5688,-3.5664,-3.5968,-3.3882,-2.9265,-2.6165,-2.1987,-1.6725,-1.3624,-1.4515,-1.8813,-2.1423,0.0,0.0,-3.3239,-3.5136,-3.7273,-3.7505,-3.7577,-3.7577,-3.7577,-3.7577,-3.7577,-3.7577,-3.8112,-3.8808,-3.8808,-3.9254,-3.97,-3.9093,-3.8879,-3.8808,-3.8808,-3.8754,-3.8701,-3.8701,-3.8701,-3.8522,-3.7773,-3.7577,-3.7577,-3.7577,-3.7023,-3.6506,-3.6506,-3.6506,-3.5792,-3.3437,-3.5025,-3.5096,0.0,-3.0838,-3.2367,0.0,0.0,-3.0535,-3.1278,0.0,0.0,0.0,-1.8482,0.0,0.0,0.0,0.0,0.0,0.0,0.0,-3.3764,-3.411,-3.3879,-3.318,-3.7044,-3.8655,-3.8032,-3.9046,-3.9526,-3.9526,-3.9781,-3.9889,-3.9889,-3.9984,-4.1806,-4.4819,-4.6639,-4.8454,-5.0068,-5.0169,-5.0287,-5.0383,-5.0404,-4.9944,-4.9332,-2.4553,-2.507,-2.5834,-2.7243,-2.8021,-2.8971,-3.0474,-3.083,-3.1024,-3.1407,-3.154,-3.151,-3.138,-3.1105,-3.0749,-3.0328,-3.1052,-3.1654,-3.2083,-3.3594,-3.4675,-3.5131,-3.5744,-3.6191,-3.6335,-3.6461,-3.4818,-3.1236,-2.7255,-2.3484,-2.0,-1.7378,-1.8682,-2.3347,-2.6207,-2.9432,-3.2847,-3.5136,-3.6684,-3.7577,-3.7577,-3.7577,-3.7577,-3.7577,-3.7577,-3.7648,-3.8148,-3.8808,-3.9539,-4.0021,-4.0075,-3.986,-3.9557,-3.9468,-3.9468,-3.9468,-3.9468,-3.9468,-3.9468,-3.9147,-3.8736,-3.8397,-3.7951,-3.7577,-3.7577,-3.7345,-3.697,-3.6488,-3.6452,-3.6254,-3.5305,-3.5159,-3.5113,-3.4806,-3.3936,-3.4081,-3.6313,0.0,0.0,-3.527,0.0,-3.1899,0.0,0.0,0.0,0.0,0.0,0.0,0.0,0.0,0.0,-3.0698,0.0,-3.6165,-3.437,-3.7594,-3.933,-3.9517,-3.9596,-3.9623,-3.9623,-3.9804,-4.0173,-4.0726,-4.12,-4.2803,-4.5194,-4.6891,-4.8376,-4.9644,-5.0272,-5.0526,-5.0529,-5.0123,-4.9774,-4.9521,-2.5894,-2.6094,-2.68,-2.8832,-2.9225,-2.9789,-3.1229,-3.1034,-3.0738,-3.0826,-3.1193,-3.1277,-3.0713,-3.0619,-3.0409,-2.9951,-3.1172,-3.216,-3.2646,-3.4252,-3.5437,-3.6028,-3.6276,-3.6544,-3.6766,-3.6806,-3.5801,-3.3759,-2.9572,-2.6591,-2.4751,-2.2187,-2.3277,-2.7483,-3.0036,-3.2272,-3.43,-3.6613,-3.7577,-3.7577,-3.7577,-3.7577,-3.7577,-3.7577,-3.7737,-3.8023,-3.8611,-3.9432,-4.0307,-4.0646,-4.0538,-4.0217,-3.9985,-4.0075,-4.0217,-3.9985,-4.0075,-4.0253,-4.0253,-3.9878,-3.9432,-3.9182,-3.8701,-3.8219,-3.7987,-3.7755,-3.7399,-3.6717,-3.6658,-3.6816,-3.7166,-3.5884,-3.5339,-3.7106,-3.5897,-3.5347,-3.7028,-3.7279,-3.7138,-3.6804,-3.5493,-3.4213,-3.314,-2.8735,0.0,0.0,0.0,0.0,0.0,0.0,0.0,0.0,0.0,0.0,-3.5497,-3.8275,-3.9989,-4.0587,-4.0252,-3.9939,-3.9717,-3.9892,-4.0473,-4.1352,-4.2189,-4.3566,-4.5392,-4.7073,-4.8367,-4.9355,-5.0336,-5.0565,-5.0349,-4.9869,-4.9378,-4.8972,-2.7906,-2.8453,-2.8893,-2.9999,-3.03,-3.0359,-3.0264,-3.0205,-3.0205,-3.0205,-3.0222,-3.0179,-3.0033,-2.9962,-2.9918,-2.9918,-3.1835,-3.31,-3.31,-3.5087,-3.6385,-3.6661,-3.6702,-3.6806,-3.6987,-3.6987,-3.697,-3.6917,-3.3846,-3.1945,-3.1117,-2.8041,-2.8357,-3.1564,-3.2314,-3.4495,-3.7523,-3.7559,-3.7577,-3.7577,-3.7577,-3.7577,-3.7577,-3.7577,-3.8094,-3.879,-3.8808,-3.9789,-4.0967,-4.0199,-4.0449,-4.0949,-4.0164,-4.0449,-4.0931,-4.0146,-4.0467,-4.1092,-4.1092,-4.1074,-4.0877,-4.011,-3.9896,-3.97,-3.8968,-3.8165,-3.747,-3.7098,-3.7012,-3.7374,-3.8556,-3.8032,-3.6971,-3.548,-3.6481,-3.684,-3.5089,-3.565,-3.5813,-3.4684,-2.9864,-2.8911,-3.4703,-2.7267,0.0,0.0,0.0,0.0,0.0,0.0,0.0,-3.4203,-3.4409,0.0,-3.5479,-3.8872,-4.0595,-4.0587,-4.0873,-4.0524,-3.9717,-3.9981,-4.0654,-4.1641,-4.2524,-4.3847,-4.5534,-4.7202,-4.8491,-4.9488,-5.0354,-5.0308,-4.9707,-4.9707,-4.8604,-4.725,-2.7036,-2.7743,-2.8391,-2.9277,-2.9903,-3.0248,-3.0189,-3.0189,-3.0231,-3.0316,-3.0274,-3.0428,-3.0964,-3.0457,-3.0119,-3.0119,-3.1667,-3.2838,-3.3388,-3.5036,-3.6212,-3.6891,-3.6908,-3.6987,-3.7182,-3.722,-3.7259,-3.7392,-3.4283,-3.2613,-3.2364,-3.1382,-3.2624,-3.5686,-3.5936,-3.6613,-3.7577,-3.7577,-3.7916,-3.8415,-3.8415,-3.8719,-3.9165,-3.9407,-3.9532,-3.9667,-4.0412,-4.0894,-4.1145,-4.1546,-4.1855,-4.1926,-4.1121,-4.0992,-4.1056,-4.0788,-4.1288,-4.1912,-4.1912,-4.152,-4.1038,-4.0788,-4.0324,-3.986,-3.9611,-3.9157,-3.8645,-3.7962,-3.8096,-3.8301,-3.809,-3.8513,-3.8707,-3.8209,-3.8539,-3.8663,-3.8107,-3.8025,-3.7903,-3.7529,-3.612,-3.5906,-3.778,-3.2988,0.0,0.0,0.0,0.0,0.0,0.0,0.0,0.0,-3.6137,0.0,-3.6592,-4.0104,-4.2167,-4.2716,-4.2441,-4.1838,-4.1017,-4.1686,-4.2162,-4.2542,-4.3367,-4.4419,-4.5605,-4.674,-4.7463,-4.7983,-4.9451,-4.9888,-4.9707,-4.9707,-4.9359,-4.8914,-2.7494,-2.817,-2.8842,-2.9501,-3.002,-3.0415,-3.0678,-3.0728,-3.0869,-3.1219,-3.1209,-3.1417,-3.214,-3.1732,-3.1295,-3.1068,-3.2546,-3.3648,-3.398,-3.5404,-3.6517,-3.7087,-3.7105,-3.722,-3.741,-3.741,0.0,-3.7577,-3.5614,-3.4684,-3.4684,-3.4684,-3.5703,-3.7577,-3.7577,-3.7577,-3.7612,-3.7916,-3.8344,-3.8826,-3.9111,-3.9504,-3.9914,-4.0143,-4.0265,-4.0453,-4.1166,-4.1504,-4.1725,-4.2284,-4.2544,-4.2436,-4.1956,-4.1755,-4.1604,-4.1221,-4.1663,-4.2287,-4.2287,-4.193,-4.1578,-4.168,-4.1303,-4.0933,-4.0798,-4.0362,-3.9918,-3.9626,-3.9833,-3.9834,-3.9144,-3.9357,-3.976,-4.008,-3.9854,-3.983,-4.0353,-4.0274,-3.9656,-3.8319,-3.8294,0.0,0.0,-3.5848,-3.4144,0.0,0.0,0.0,0.0,0.0,-3.1789,-3.3937,-3.8451,-4.0421,-3.9432,-4.1783,-4.3209,-4.3681,-4.3158,-4.2635,-4.2187,-4.2725,-4.3184,-4.3564,-4.4064,-4.4807,-4.5735,-4.6622,-4.7017,-4.727,-4.903,-4.9494,-4.9243,-4.9591,-4.9494,-4.9262,-2.8902,-2.9531,-3.0006,-3.0509,-3.0642,-3.0907,-3.1586,-3.1702,-3.1934,-3.2597,-3.268,-3.2873,-3.3398,-3.3482,-3.3304,-3.2698,-3.4252,-3.5106,-3.4797,-3.6145,-3.7091,-3.7297,-3.7334,-3.741,-3.7594,-3.7577,-3.7577,-3.7577,-3.7577,-3.7577,-3.7577,-3.7577,-3.7577,-3.7577,-3.7577,-3.7612,-3.7719,-3.8487,-3.8879,-3.9022,-3.9718,-4.0021,-4.0075,-4.0113,-4.0578,-4.1181,-4.1221,-4.1761,-4.2503,-4.2503,-4.2566,-4.2609,-4.2609,-4.2609,-4.2426,-4.1475,-4.1739,-4.2328,-4.2369,-4.2369,-4.2432,-4.2693,-4.277,-4.2666,-4.2365,-4.176,-4.136,-4.1791,-4.1927,-4.1807,-4.1363,-4.0631,-4.0347,-4.1162,-4.0612,-4.0522,-4.1858,-4.2134,-4.1003,-3.7665,-3.7399,0.0,-3.6604,-3.6549,-3.7423,0.0,0.0,0.0,0.0,0.0,-3.2827,-4.0825,-4.1151,-4.1895,-4.3329,-4.3663,-4.3843,-4.3843,-4.335,-4.3145,-4.322,-4.3258,-4.3781,-4.4601,-4.4659,-4.5104,-4.5858,-4.667,-4.6999,-4.7173,-4.8856,-4.9068,-4.8508,-4.9378,-4.9223,-4.8682,-2.912,-2.9977,-3.0815,-3.1269,-3.1818,-3.2232,-3.2398,-3.2431,-3.2497,-3.2663,-3.268,-3.294,-3.3639,-3.433,-3.478,-3.4835,-3.4818,-3.5014,-3.5514,-3.6178,-3.6844,-3.7485,-3.7521,-3.754,-3.7577,-3.7577,-3.7577,-3.7577,-3.7577,-3.7577,-3.7577,-3.7577,-3.7577,-3.7577,-3.7577,-3.7933,-3.854,-3.8736,-3.9524,-4.0709,-4.0888,-4.1357,-4.1995,-4.2132,-4.2199,-4.2199,-4.24,-4.2505,-4.2503,-4.2685,-4.2745,-4.2745,-4.2745,-4.2745,-4.2709,-4.2336,-4.2368,-4.2591,-4.2846,-4.2903,-4.3014,-4.3316,-4.3367,-4.3364,-4.3295,-4.3417,-4.3359,-4.2838,-4.2987,-4.3018,-4.2257,-4.1958,-4.1882,-4.209,-4.1939,-4.1916,-4.2267,-4.2323,-4.204,-4.1198,-4.1127,-4.1075,-4.0908,-4.1062,-4.0041,0.0,0.0,-3.8357,-3.7795,-3.6403,-3.7584,-4.193,-4.2807,-4.3387,-4.3764,-4.4671,-4.5201,-4.5301,-4.5171,-4.4815,-4.4269,-4.4882,-4.4959,-4.4639,-4.5258,-4.5626,-4.5819,-4.6013,-4.6109,-4.6206,-4.7289,-4.8005,-4.8508,-4.9378,-4.9958,-5.0345,-2.9303,-3.0162,-3.1077,-3.1698,-3.2124,-3.2607,-3.3184,-3.3283,-3.3399,-3.3657,-3.3707,-3.3931,-3.4543,-3.5067,-3.5608,-3.6172,-3.6068,-3.609,-3.6289,-3.6735,-3.7131,-3.7559,-3.7577,-3.7577,-3.7577,-3.7577,-3.7577,-3.7577,-3.7969,-3.8148,-3.8148,-3.8487,-3.8647,-3.8647,-3.8647,-3.8897,-3.9343,-3.9738,-4.0477,-4.1343,-4.174,-4.2192,-4.2609,-4.2709,-4.2786,-4.2768,-4.2939,-4.305,-4.3124,-4.3213,-4.3284,-4.3284,-4.3284,-4.3284,-4.3284,-4.3231,-4.3032,-4.2884,-4.323,-4.3334,-4.3385,-4.3717,-4.3893,-4.4035,-4.4095,-4.4289,-4.4363,-4.3947,-4.4071,-4.3985,-4.3152,-4.3,-4.3,-4.3,-4.3,-4.3133,-4.3493,-4.3549,-4.3417,-4.3038,-4.305,-4.2946,-4.2585,-4.2676,-4.1839,-3.9541,-4.0187,0.0,-4.0101,-4.0852,-4.1857,-4.3151,-4.3711,-4.4172,-4.4592,-4.5262,-4.5661,-4.58,-4.58,-4.5568,-4.5162,-4.5587,-4.5548,-4.5162,-4.5606,-4.58,-4.58,-4.58,-4.6032,-4.6477,-4.7347,-4.8237,-4.9107,-4.9939,-5.0519,-5.0906,-2.9422,-3.0281,-3.1199,-3.1876,-3.2177,-3.2703,-3.3851,-3.4118,-3.4372,-3.4911,-3.4947,-3.5118,-3.5498,-3.5633,-3.595,-3.6684,-3.7243,-3.7411,-3.7017,-3.7394,-3.7613,-3.7613,-3.7613,-3.7613,-3.7577,-3.7702,-3.7826,-3.7933,-3.8629,-3.8986,-3.8986,-3.9629,-3.9914,-3.9914,-3.9914,-4.0024,-4.0167,-4.0981,-4.1417,-4.1656,-4.24,-4.2747,-4.2806,-4.2768,-4.2958,-4.3231,-4.3231,-4.3456,-4.3818,-4.3818,-4.3849,-4.3912,-4.3912,-4.3912,-4.3912,-4.3974,-4.3638,-4.3369,-4.3634,-4.3762,-4.3856,-4.4076,-4.4355,-4.4578,-4.4693,-4.4738,-4.4745,-4.487,-4.4895,-4.4687,-4.4004,-4.3891,-4.3758,-4.3379,-4.3644,-4.3985,-4.4308,-4.4692,-4.4697,-4.4014,-4.404,-4.3861,-4.3155,-4.3235,-4.3307,-4.3307,-4.3958,-4.4362,-4.4362,-4.5053,-4.5111,-4.4381,-4.4344,-4.4689,-4.5456,-4.558,-4.5692,-4.58,-4.58,-4.58,-4.58,-4.58,-4.58,-4.58,-4.58,-4.58,-4.58,-4.58,-4.6303,-4.7173,-4.7908,-4.8817,-4.9784,-5.048,-5.0809,-5.0906,-2.9483,-3.0489,-3.1417,-3.1918,-3.3031,-3.3907,-3.4141,-3.4693,-3.5111,-3.5228,-3.5245,-3.5291,-3.5337,-3.5633,-3.5907,-3.602,-3.6821,-3.7339,-3.7541,-3.7631,-3.7667,-3.7667,-3.7667,-3.7649,-3.7577,-3.8272,-3.8933,-3.9557,-3.9682,-3.9736,-3.9736,-3.986,-3.9953,-4.0085,-4.0085,-4.0482,-4.1205,-4.1312,-4.2011,-4.2996,-4.3159,-4.3371,-4.3689,-4.3623,-4.3656,-4.3689,-4.3689,-4.3754,-4.3818,-4.3881,-4.3881,-4.3912,-4.3912,-4.3912,-4.3974,-4.4242,-4.427,-4.4194,-4.4252,-4.4484,-4.4707,-4.4751,-4.4821,-4.4846,-4.487,-4.487,-4.487,-4.4914,-4.4895,-4.4857,-4.4743,-4.4706,-4.4023,-4.1939,-4.336,-4.4023,-4.2052,-4.3726,-4.5109,-4.4976,-4.5109,-4.5112,-4.4998,-4.5108,-4.5194,-4.5194,-4.5407,-4.5544,-4.5544,-4.566,-4.5679,-4.5544,-4.5436,-4.5494,-4.5737,-4.5771,-4.5786,-4.58,-4.58,-4.58,-4.58,-4.58,-4.58,-4.58,-4.58,-4.58,-4.58,-4.58,-4.6303,-4.7115,-4.725,-4.8275,-4.9726,-4.99,-5.0364,-5.0925,-2.9995,-3.0691,-3.1449,-3.2059,-3.2698,-3.3439,-3.4141,-3.4544,-3.4897,-3.5241,-3.5487,-3.5633,-3.5633,-3.5977,-3.6323,-3.6586,-3.696,-3.7395,-3.7845,-3.8223,-3.8438,-3.8438,-3.8797,-3.8993,-3.8974,-3.9387,-3.9783,-4.0123,-4.0497,-4.0712,-4.0712,-4.1142,-4.1396,-4.1435,-4.1435,-4.1672,-4.2052,-4.2109,-4.2594,-4.3303,-4.3355,-4.3557,-4.3912,-4.3881,-4.3974,-4.4125,-4.4125,-4.4242,-4.4402,-4.443,-4.443,-4.443,-4.443,-4.443,-4.4476,-4.461,-4.4681,-4.4681,-4.4681,-4.4777,-4.4895,-4.4895,-4.4895,-4.4895,-4.4895,-4.4895,-4.4895,-4.4895,-4.4895,-4.4895,-4.4895,-4.4895,-4.4535,-4.3379,-4.425,-4.4661,-4.352,-4.4491,-4.532,-4.532,-4.5438,-4.551,-4.551,-4.5629,-4.5708,-4.5708,-4.5771,-4.58,-4.58,-4.58,-4.58,-4.58,-4.5737,-4.5737,-4.58,-4.58,-4.58,-4.58,-4.58,-4.58,-4.58,-4.58,-4.58,-4.5819,-4.6303,-4.6264,-4.5988,-4.6878,-4.7497,-4.7956,-4.8406,-4.9393,-5.0519,-5.0538,-5.0757,-5.1074,-3.0208,-3.0617,-3.1103,-3.1918,-3.2171,-3.2713,-3.3903,-3.424,-3.4583,-3.5283,-3.565,-3.5864,-3.5994,-3.6256,-3.6649,-3.7114,-3.7228,-3.7451,-3.7862,-3.8707,-3.9175,-3.9122,-3.9786,-4.0213,-4.0392,-4.0524,-4.0669,-4.0849,-4.1387,-4.1692,-4.1692,-4.2322,-4.2609,-4.2649,-4.2649,-4.2649,-4.2688,-4.2765,-4.3013,-4.3338,-4.3371,-4.359,-4.3912,-4.4004,-4.4184,-4.443,-4.4484,-4.4681,-4.4895,-4.4895,-4.4895,-4.4895,-4.4895,-4.4895,-4.4895,-4.4895,-4.4895,-4.4895,-4.4895,-4.4895,-4.4895,-4.4895,-4.4895,-4.4895,-4.4895,-4.4895,-4.4895,-4.4895,-4.4895,-4.4895,-4.4895,-4.4919,-4.4778,-4.4189,-4.4748,-4.5046,-4.4454,-4.4997,-4.5457,-4.5457,-4.5563,-4.5645,-4.5645,-4.5737,-4.58,-4.58,-4.58,-4.58,-4.58,-4.58,-4.58,-4.58,-4.58,-4.58,-4.58,-4.58,-4.58,-4.58,-4.58,-4.5896,-4.609,-4.609,-4.6206,-4.6472,-4.7134,-4.7096,-4.6723,-4.8218,-4.8974,-4.9259,-4.9944,-5.0726,-5.1474,-5.1285,-5.1205,-5.1206,-2.9661,-2.9881,-3.0199,-3.1139,-3.1833,-3.2544,-3.3372,-3.4066,-3.4759,-3.5476,-3.5622,-3.5783,-3.6199,-3.6301,-3.6492,-3.69,-3.7266,-3.7505,-3.7542,-3.8689,-3.9334,-3.9193,-3.9896,-4.0596,-4.1276,-4.1315,-4.1692,-4.2429,-4.2483,-4.2519,-4.2519,-4.2573,-4.2667,-4.2783,-4.2783,-4.2804,-4.29,-4.29,-4.3087,-4.3406,-4.3406,-4.359,-4.3943,-4.4242,-4.4383,-4.4457,-4.4732,-4.487,-4.4895,-4.4895,-4.4895,-4.4895,-4.4895,-4.4895,-4.4895,-4.4895,-4.4895,-4.4895,-4.4895,-4.4895,-4.4895,-4.4895,-4.4895,-4.4895,-4.4895,-4.4895,-4.4895,-4.4895,-4.4895,-4.4895,-4.4895,-4.5038,-4.4407,-4.2045,-4.3752,-4.4557,-4.2197,-4.4011,-4.558,-4.558,-4.5708,-4.5786,-4.5786,-4.578,-4.58,-4.58,-4.58,-4.58,-4.58,-4.58,-4.58,-4.58,-4.58,-4.58,-4.58,-4.58,-4.58,-4.58,-4.58,-4.6225,-4.6999,-4.6999,-4.7478,-4.829,-4.8368,-4.8406,-4.8479,-4.942,-5.0275,-5.1016,-5.1074,-5.1632,-5.2319,-5.1566,-5.1244,-5.1218,-3.0038,-3.0225,-3.0435,-3.1112,-3.1427,-3.185,-3.2594,-3.2949,-3.3541,-3.4759,-3.5172,-3.5599,-3.6249,-3.6533,-3.6821,-3.7246,-3.7432,-3.7632,-3.7933,-3.8395,-3.9262,-4.0618,-4.1467,-4.2027,-4.2276,-4.2296,-4.2479,-4.2786,-4.2786,-4.2786,-4.2786,-4.2786,-4.2824,-4.2862,-4.2862,-4.2862,-4.2882,-4.2882,-4.3069,-4.3406,-4.3406,-4.359,-4.3912,-4.4035,-4.4213,-4.443,-4.4538,-4.4707,-4.4895,-4.4895,-4.4895,-4.4895,-4.4895,-4.4895,-4.4895,-4.4895,-4.4895,-4.4895,-4.4895,-4.4895,-4.4895,-4.4895,-4.4895,-4.4895,-4.4895,-4.4895,-4.4895,-4.4895,-4.4895,-4.4895,-4.4895,-4.5061,-4.4868,-4.3895,-4.4748,-4.5182,-4.4237,-4.5028,-4.5723,-4.5723,-4.5771,-4.58,-4.58,-4.58,-4.58,-4.58,-4.58,-4.58,-4.58,-4.58,-4.58,-4.58,-4.58,-4.58,-4.58,-4.6341,-4.6612,-4.6612,-4.7207,-4.7652,-4.7981,-4.8005,-4.8217,-4.858,-4.9124,-4.9404,-4.9572,-5.0985,-5.1782,-5.2172,-5.2719,-5.2806,-5.2596,-5.2279,-5.18,-5.1324,-3.0097,-3.0267,-3.0477,-3.1095,-3.119,-3.1444,-3.2171,-3.2313,-3.273,-3.3981,-3.4635,-3.5229,-3.587,-3.6417,-3.686,-3.7283,-3.7432,-3.7632,-3.7967,-3.8341,-3.937,-4.116,-4.2066,-4.2609,-4.2842,-4.2862,-4.2882,-4.2882,-4.2882,-4.2882,-4.2882,-4.2882,-4.2882,-4.2882,-4.2882,-4.2882,-4.2882,-4.2882,-4.3014,-4.3231,-4.3371,-4.3523,-4.3754,-4.3974,-4.4213,-4.4411,-4.4511,-4.4707,-4.4895,-4.4895,-4.4895,-4.4895,-4.4895,-4.4895,-4.4895,-4.4895,-4.4895,-4.4895,-4.4895,-4.4895,-4.4895,-4.4895,-4.4895,-4.4895,-4.4895,-4.4895,-4.4895,-4.4895,-4.4895,-4.4895,-4.4895,-4.5061,-4.5213,-4.5277,-4.5438,-4.5613,-4.5661,-4.5737,-4.58,-4.58,-4.58,-4.58,-4.58,-4.58,-4.58,-4.58,-4.58,-4.58,-4.58,-4.58,-4.58,-4.58,-4.58,-4.58,-4.58,-4.6651,-4.698,-4.6767,-4.7657,-4.8236,-4.8521,-4.858,-4.8761,-4.9103,-4.997,-5.0374,-5.0568,-5.2319,-5.3059,-5.3164,-5.3767,-5.3466,-5.2667,-5.2394,-5.1909,-5.1396,-2.9617,-2.9793,-3.0113,-3.1015,-3.119,-3.1444,-3.2195,-3.2313,-3.2544,-3.3305,-3.4032,-3.4687,-3.5163,-3.5835,-3.6433,-3.686,-3.7283,-3.7505,-3.7505,-3.8671,-3.9713,-4.0474,-4.1289,-4.2085,-4.2864,-4.2882,-4.2882,-4.2882,-4.2882,-4.2882,-4.2882,-4.2882,-4.2882,-4.2882,-4.2882,-4.2882,-4.2882,-4.2882,-4.2882,-4.292,-4.3266,-4.3406,-4.3456,-4.4136,-4.4402,-4.4457,-4.4777,-4.4895,-4.4895,-4.4895,-4.4895,-4.4895,-4.4895,-4.4895,-4.4895,-4.4895,-4.4895,-4.4895,-4.4895,-4.4895,-4.4895,-4.4895,-4.4895,-4.4895,-4.4895,-4.4895,-4.4895,-4.4895,-4.4895,-4.4895,-4.4895,-4.508,-4.5256,-4.5381,-4.551,-4.5645,-4.5786,-4.58,-4.58,-4.58,-4.58,-4.58,-4.58,-4.58,-4.58,-4.58,-4.58,-4.58,-4.58,-4.58,-4.58,-4.58,-4.58,-4.58,-4.58,-4.667,-4.6728,-4.6027,-4.6825,-4.7699,-4.8607,-4.8607,-4.9119,-5.0059,-5.0925,-5.1337,-5.1523,-5.3262,-5.3984,-5.3984,-5.3988,-5.3467,-5.2605,-5.1726,-5.1405,-5.1396,-2.9182,-2.9572,-3.0011,-3.0683,-3.1061,-3.1359,-3.1674,-3.1725,-3.1981,-3.273,-3.3019,-3.3629,-3.4871,-3.5197,-3.569,-3.6603,-3.7055,-3.7524,-3.8083,-3.8489,-3.9064,-3.9813,-4.1053,-4.1832,-4.2067,-4.2611,-4.2882,-4.2882,-4.2882,-4.2882,-4.2882,-4.2882,-4.2882,-4.2882,-4.2882,-4.2882,-4.292,-4.3142,-4.3249,-4.3266,-4.3623,-4.3754,-4.3786,-4.3974,-4.4184,-4.4411,-4.4511,-4.4707,-4.4895,-4.4895,-4.4895,-4.4895,-4.4895,-4.4895,-4.4895,-4.4895,-4.4895,-4.4895,-4.4895,-4.4895,-4.4895,-4.4895,-4.4895,-4.4895,-4.4895,-4.4895,-4.4895,-4.4895,-4.4895,-4.4943,-4.5061,-4.5237,-4.5381,-4.551,-4.5645,-4.5752,-4.578,-4.58,-4.58,-4.58,-4.58,-4.58,-4.58,-4.58,-4.58,-4.58,-4.58,-4.58,-4.58,-4.5835,-4.5861,-4.5861,-4.5861,-4.5886,-4.5953,-4.6706,-4.7018,-4.6844,-4.7742,-4.8347,-4.869,-4.941,-4.9882,-5.0186,-5.1011,-5.1379,-5.1433,-5.196,-5.2531,-5.3081,-5.3095,-5.2931,-5.2663,-5.2409,-5.1925,-5.1402,-2.9257,-2.9705,-3.0182,-3.0683,-3.11,-3.1406,-3.1479,-3.1517,-3.1671,-3.2115,-3.2439,-3.2969,-3.3891,-3.4523,-3.5179,-3.5859,-3.6584,-3.7303,-3.8101,-3.8168,-3.847,-3.9094,-4.0268,-4.1179,-4.1796,-4.2595,-4.3013,-4.3013,-4.2975,-4.2994,-4.2994,-4.2938,-4.2882,-4.2882,-4.2882,-4.2882,-4.292,-4.3124,-4.3213,-4.3249,-4.3642,-4.374,-4.3754,-4.4053,-4.426,-4.443,-4.4557,-4.4732,-4.4895,-4.4895,-4.4895,-4.4895,-4.4895,-4.4895,-4.4895,-4.4895,-4.4895,-4.4895,-4.4895,-4.4895,-4.4895,-4.4895,-4.4895,-4.4895,-4.4895,-4.4943,-4.501,-4.4919,-4.5014,-4.5109,-4.5192,-4.532,-4.5438,-4.558,-4.5661,-4.5737,-4.58,-4.58,-4.58,-4.58,-4.5808,-4.5854,-4.5854,-4.5848,-4.5893,-4.5893,-4.5841,-4.5808,-4.588,-4.5886,-4.5898,-4.5941,-4.5953,-4.5964,-4.5997,-4.6434,-4.6687,-4.6728,-4.7659,-4.8132,-4.826,-4.8875,-4.9179,-4.9218,-5.0057,-5.0406,-5.0432,-5.0757,-5.1405,-5.2192,-5.2192,-5.2186,-5.2195,-5.2195,-5.1843,-5.1394,-2.9467,-2.9995,-3.0393,-3.0878,-3.123,-3.1479,-3.1517,-3.1517,-3.1517,-3.1517,-3.2098,-3.2542,-3.261,-3.3881,-3.477,-3.4907,-3.5994,-3.6956,-3.7703,-3.7827,-3.8,-3.835,-3.9167,-4.0312,-4.1791,-4.2649,-4.3142,-4.3214,-4.3123,-4.3104,-4.3104,-4.2975,-4.2938,-4.2938,-4.2938,-4.2938,-4.292,-4.2957,-4.2957,-4.3032,-4.3511,-4.3627,-4.359,-4.4355,-4.4568,-4.4511,-4.4802,-4.4895,-4.4919,-4.4895,-4.4895,-4.4895,-4.4895,-4.4895,-4.4895,-4.4895,-4.4895,-4.4895,-4.4919,-4.4919,-4.4919,-4.4943,-4.4943,-4.4943,-4.4919,-4.508,-4.517,-4.4991,-4.5197,-4.5361,-4.5277,-4.5341,-4.5456,-4.5596,-4.5613,-4.5661,-4.58,-4.5814,-4.5814,-4.5827,-4.5861,-4.5917,-4.5917,-4.5964,-4.5997,-4.5997,-4.5893,-4.5861,-4.5997,-4.5953,-4.5953,-4.6007,-4.6007,-4.6017,-4.6027,-4.6017,-4.6022,-4.6035,-4.6819,-4.7276,-4.7395,-4.7532,-4.761,-4.7649,-4.8528,-4.886,-4.8838,-4.957,-5.0383,-5.1164,-5.1164,-5.1258,-5.1394,-5.1394,-5.1394,-5.1394,-2.8575,-2.9316,-3.0054,-3.0518,-3.0958,-3.1385,-3.1688,-3.1726,-3.1726,-3.1726,-3.1863,-3.219,-3.2758,-3.3119,-3.3808,-3.5012,-3.6162,-3.7055,-3.7542,-3.7844,-3.8068,-3.8168,-3.925,-3.9983,-4.0331,-4.1624,-4.2595,-4.3214,-4.3178,-4.3178,-4.3178,-4.3142,-4.3123,-4.3123,-4.3123,-4.3123,-4.316,-4.3426,-4.3511,-4.3579,-4.421,-4.4439,-4.4467,-4.4846,-4.4967,-4.4948,-4.4967,-4.5014,-4.5057,-4.501,-4.4943,-4.4895,-4.4895,-4.4895,-4.4895,-4.4895,-4.4895,-4.4919,-4.5103,-4.5148,-4.5151,-4.526,-4.5282,-4.526,-4.517,-4.5258,-4.5341,-4.5301,-4.5361,-4.5419,-4.5493,-4.5545,-4.5596,-4.5723,-4.5771,-4.58,-4.588,-4.5893,-4.5905,-4.5953,-4.5975,-4.5986,-4.5986,-4.5997,-4.5997,-4.5997,-4.5975,-4.5975,-4.5997,-4.6047,-4.6047,-4.6084,-4.6084,-4.6107,-4.6156,-4.6045,-4.6054,-4.6163,-4.636,-4.6472,-4.658,-4.7283,-4.7595,-4.7653,-4.8516,-4.8516,-4.7907,-4.806,-4.8626,-4.9364,-4.9364,-5.0204,-5.1394,-5.1394,-5.1394,-5.1394,-2.8982,-2.9617,-3.014,-3.0335,-3.0861,-3.1329,-3.1542,-3.1709,-3.18,-3.18,-3.18,-3.1955,-3.2334,-3.2697,-3.3446,-3.4818,-3.5972,-3.6789,-3.7199,-3.7765,-3.8186,-3.8368,-3.8999,-3.9515,-3.9882,-4.1013,-4.1951,-4.279,-4.3139,-4.3305,-4.3286,-4.3251,-4.3304,-4.3442,-4.3442,-4.3493,-4.3623,-4.3818,-4.3881,-4.3912,-4.4336,-4.4448,-4.443,-4.4827,-4.4924,-4.4881,-4.5014,-4.508,-4.5084,-4.5057,-4.5014,-4.5014,-4.5071,-4.5071,-4.5068,-4.5159,-4.5178,-4.5154,-4.5279,-4.53,-4.5321,-4.5419,-4.5491,-4.5491,-4.5321,-4.54,-4.5493,-4.5437,-4.5543,-4.5642,-4.5688,-4.5747,-4.5802,-4.5873,-4.5905,-4.5917,-4.5933,-4.5953,-4.5964,-4.5997,-4.6027,-4.6066,-4.6093,-4.6075,-4.6066,-4.6093,-4.6047,-4.6027,-4.6093,-4.6093,-4.6102,-4.6146,-4.6157,-4.615,-4.6206,-4.6119,-4.6143,-4.6253,-4.6225,-4.6215,-4.6264,-4.6758,-4.6983,-4.7002,-4.7455,-4.7396,-4.6983,-4.6983,-4.7471,-4.8271,-4.8642,-4.9618,-5.0828,-5.1258,-5.1394,-5.1394,-2.9425,-2.9897,-3.0123,-3.0267,-3.0804,-3.1218,-3.1295,-3.1579,-3.18,-3.18,-3.18,-3.18,-3.18,-3.2455,-3.3277,-3.4242,-3.5348,-3.6203,-3.6672,-3.7455,-3.8107,-3.8596,-3.8658,-3.9019,-3.968,-4.0487,-4.1368,-4.2304,-4.3061,-4.3429,-4.3429,-4.3358,-4.3495,-4.3758,-4.3804,-4.3924,-4.4146,-4.4146,-4.4146,-4.4175,-4.4327,-4.4308,-4.4261,-4.4707,-4.4808,-4.4751,-4.5019,-4.5125,-4.5103,-4.5125,-4.5129,-4.5135,-4.5246,-4.5285,-4.5304,-4.5472,-4.5473,-4.5438,-4.5475,-4.5475,-4.5473,-4.5558,-4.5669,-4.5718,-4.5543,-4.5577,-4.5642,-4.5591,-4.5761,-4.5898,-4.5835,-4.5933,-4.5997,-4.5997,-4.5997,-4.6007,-4.6017,-4.6017,-4.6017,-4.6027,-4.6084,-4.6138,-4.6196,-4.6146,-4.6146,-4.6196,-4.6102,-4.6083,-4.619,-4.615,-4.6137,-4.6203,-4.6201,-4.6218,-4.6222,-4.6221,-4.6249,-4.6305,-4.6249,-4.6211,-4.6211,-4.6276,-4.63,-4.63,-4.63,-4.63,-4.63,-4.63,-4.6807,-4.7666,-4.833,-4.9208,-5.0204,-5.1082,-5.1394,-5.1394,-2.84,-2.8919,-2.9467,-3.0166,-3.0625,-3.0965,-3.1257,-3.1579,-3.18,-3.18,-3.18,-3.18,-3.18,-3.2455,-3.2938,-3.3118,-3.4169,-3.5148,-3.5911,-3.6644,-3.741,-3.815,-3.8515,-3.8762,-3.8854,-3.9643,-4.0799,-4.2304,-4.3112,-4.3497,-4.3497,-4.3763,-4.3942,-4.3955,-4.4202,-4.4327,-4.4355,-4.4355,-4.4355,-4.4383,-4.4624,-4.4726,-4.4751,-4.5087,-4.5213,-4.5194,-4.5192,-4.5148,-4.5125,-4.517,-4.522,-4.5285,-4.5304,-4.5416,-4.5555,-4.5587,-4.5587,-4.5603,-4.5708,-4.5742,-4.5769,-4.5891,-4.5944,-4.5944,-4.5922,-4.5933,-4.5933,-4.5933,-4.5956,-4.5986,-4.5966,-4.5997,-4.5997,-4.5997,-4.5997,-4.6017,-4.6084,-4.6084,-4.6102,-4.6181,-4.6189,-4.6196,-4.6196,-4.6196,-4.6196,-4.6196,-4.617,-4.6172,-4.6197,-4.6183,-4.6195,-4.6198,-4.62,-4.6226,-4.6289,-4.6289,-4.6285,-4.6306,-4.6287,-4.629,-4.629,-4.6303,-4.63,-4.63,-4.63,-4.63,-4.63,-4.63,-4.6807,-4.7608,-4.7725,-4.872,-5.0204,-5.1082,-5.1394,-5.1394,-2.8591,-2.8935,-2.9303,-2.9957,-3.0309,-3.0625,-3.0965,-3.1295,-3.1596,-3.18,-3.18,-3.18,-3.18,-3.226,-3.265,-3.2827,-3.3876,-3.4784,-3.5339,-3.6544,-3.7393,-3.7739,-3.8358,-3.8707,-3.8707,-3.9478,-4.0249,-4.0965,-4.2213,-4.2818,-4.2837,-4.3446,-4.3814,-4.4005,-4.4121,-4.4346,-4.4624,-4.4624,-4.472,-4.4929,-4.5023,-4.5087,-4.5109,-4.5235,-4.5297,-4.5297,-4.5275,-4.5254,-4.5213,-4.5254,-4.5279,-4.5322,-4.5399,-4.5454,-4.5543,-4.5713,-4.5747,-4.5747,-4.5866,-4.5902,-4.5925,-4.6027,-4.6066,-4.6075,-4.6102,-4.6102,-4.6093,-4.6047,-4.6066,-4.6075,-4.6102,-4.6102,-4.6102,-4.6102,-4.6102,-4.6111,-4.6146,-4.6154,-4.6181,-4.6196,-4.6196,-4.6196,-4.6196,-4.6203,-4.6201,-4.6201,-4.6195,-4.6192,-4.6192,-4.62,-4.6204,-4.6204,-4.6248,-4.6269,-4.6307,-4.6301,-4.6293,-4.63,-4.63,-4.63,-4.63,-4.63,-4.63,-4.63,-4.63,-4.63,-4.63,-4.63,-4.6534,-4.6963,-4.79,-4.9325,-5.0867,-5.1258,-5.1394,-5.1394]}]]